[[{"header":{"parameterUnit":"m.s-1","parameterCategory":1,"la1":31.0,"la2":29.5877,"lo1":-88.7671,"lo2":-86.6584,"dx":0.0162,"dy":0.0185,"nx":115,"ny":88,"refTime":"2023-01-13T06:00:00:Z","depth":0,"parameterNumber":2,"parameterNumberName":"U-component_of_WINDS"},"data":[0.0,0.0,0.0,0.0,0.0,0.0,0.0,0.0,0.0,0.0,0.0,0.0,0.0,0.0,0.0,0.0,0.0,0.0,0.0,0.0,0.0,0.0,0.0,0.0,0.0,0.0,0.0,0.0,0.0,0.0,0.0,0.0,0.0,0.0,0.0,0.0,0.0,0.0,0.0,0.0,0.0,0.0,0.0,0.0,0.0,0.0,0.0,0.0,0.0,0.0,0.0,0.0,0.0,0.0,0.0,0.0,0.0,0.0,0.0,0.0,0.0,0.0,0.0,0.0,0.0,0.0,0.0,0.0,0.0,0.0,0.0,0.0,0.0,0.0,0.0,0.0,0.0,0.0,0.0,0.0,0.0,0.0,0.0,0.0,0.0,0.0,0.0,0.0,0.0,0.0,0.0,0.0,0.0,0.0,0.0,0.0,0.0,0.0,0.0,0.0,0.0,0.0,0.0,0.0,0.0,0.0,0.0,0.0,0.0,0.0,0.0,0.0,0.0,0.0,0.0,0.0,0.0,0.0,0.0,0.0,0.0,0.0,0.0,0.0,0.0,0.0,0.0,0.0,0.0,0.0,0.0,0.0,0.0,0.0,0.0,0.0,0.0,0.0,0.0,0.0,0.0,0.0,0.0,0.0,0.0,0.0,0.0,0.0,0.0,0.0,0.0,0.0,0.0,0.0,0.0,0.0,0.0,0.0,0.0,0.0,0.0,0.0,0.0,0.0,0.0,0.0,0.0,0.0,0.0,0.0,0.0,0.0,0.0,0.0,0.0,0.0,0.0,0.0,0.0,0.0,0.0,0.0,0.0,0.0,0.0,0.0,0.0,0.0,0.0,0.0,0.0,0.0,0.0,0.0,0.0,0.0,0.0,0.0,0.0,0.0,0.0,0.0,0.0,0.0,0.0,0.0,0.0,0.0,0.0,0.0,0.0,0.0,0.0,0.0,0.0,0.0,0.0,0.0,0.0,0.0,0.0,0.0,0.0,0.0,0.0,0.0,0.0,0.0,0.0,0.0,0.0,0.0,0.0,0.0,0.0,0.0,0.0,0.0,0.0,0.0,0.0,0.0,0.0,0.0,0.0,0.0,0.0,0.0,0.0,0.0,0.0,0.0,0.0,0.0,0.0,0.0,0.0,0.0,0.0,0.0,0.0,0.0,0.0,0.0,0.0,0.0,0.0,0.0,0.0,0.0,0.0,0.0,0.0,0.0,0.0,0.0,0.0,0.0,0.0,0.0,0.0,0.0,0.0,0.0,0.0,0.0,0.0,0.0,0.0,0.0,0.0,0.0,0.0,0.0,0.0,0.0,0.0,0.0,0.0,0.0,0.0,0.0,0.0,0.0,0.0,0.0,0.0,0.0,0.0,0.0,0.0,0.0,0.0,0.0,0.0,0.0,0.0,0.0,0.0,0.0,0.0,0.0,0.0,0.0,0.0,0.0,0.0,0.0,0.0,0.0,0.0,0.0,0.0,0.0,0.0,0.0,0.0,0.0,0.0,0.0,0.0,0.0,0.0,0.0,0.0,0.0,0.0,0.0,0.0,0.0,0.0,0.0,0.0,0.0,0.0,0.0,0.0,0.0,0.0,0.0,0.0,0.0,0.0,0.0,0.0,0.0,0.0,0.0,0.0,0.0,0.0,0.0,0.0,0.0,0.0,0.0,0.0,0.0,0.0,0.0,0.0,0.0,0.0,0.0,0.0,0.0,0.0,0.0,0.0,0.0,0.0,0.0,0.0,0.0,0.0,0.0,0.0,0.0,0.0,0.0,0.0,0.0,0.0,0.0,0.0,0.0,0.0,0.0,0.0,0.0,0.0,0.0,0.0,0.0,0.0,0.0,0.0,0.0,0.0,0.0,0.0,0.0,0.0,0.0,0.0,0.0,0.0,0.0,0.0,0.0,0.0,0.0,0.0,0.0,0.0,0.0,0.0,0.0,0.0,0.0,0.0,0.0,0.0,0.0,0.0,0.0,0.0,0.0,0.0,0.0,0.0,0.0,0.0,0.0,0.0,0.0,0.0,0.0,0.0,0.0,0.0,0.0,0.0,0.0,0.0,0.0,0.0,0.0,0.0,0.0,0.0,0.0,0.0,0.0,0.0,0.0,0.0,0.0,0.0,0.0,0.0,0.0,0.0,0.0,0.0,0.0,0.0,0.0,0.0,0.0,0.0,0.0,0.0,0.0,0.0,0.0,0.0,0.0,0.0,0.0,0.0,0.0,0.0,0.0,0.0,0.0,0.0,0.0,0.0,0.0,0.0,0.0,0.0,0.0,0.0,0.0,0.0,0.0,0.0,0.0,0.0,0.0,0.0,0.0,0.0,0.0,0.0,0.0,0.0,0.0,0.0,0.0,0.0,0.0,0.0,0.0,0.0,0.0,0.0,0.0,0.0,0.0,0.0,0.0,0.0,0.0,0.0,0.0,0.0,0.0,0.0,0.0,0.0,0.0,0.0,0.0,0.0,0.0,0.0,0.0,0.0,0.0,0.0,0.0,0.0,0.0,0.0,0.0,0.0,0.0,0.0,0.0,0.0,0.0,0.0,0.0,0.0,0.0,0.0,0.0,0.0,0.0,0.0,0.0,0.0,0.0,0.0,0.0,0.0,0.0,0.0,0.0,0.0,0.0,0.0,0.0,0.0,0.0,0.0,0.0,0.0,0.0,0.0,0.0,0.0,0.0,0.0,0.0,0.0,0.0,0.0,0.0,0.0,0.0,0.0,0.0,0.0,0.0,0.0,0.0,0.0,0.0,0.0,0.0,0.0,0.0,0.0,0.0,0.0,0.0,0.0,0.0,0.0,0.0,0.0,0.0,0.0,0.0,0.0,0.0,0.0,0.0,0.0,0.0,0.0,0.0,0.0,0.0,0.0,0.0,0.0,0.0,0.0,0.0,0.0,0.0,0.0,0.0,0.0,0.0,0.0,0.0,0.0,0.0,0.0,0.0,0.0,0.0,0.0,0.0,0.0,0.0,0.0,0.0,0.0,0.0,0.0,0.0,0.0,0.0,0.0,0.0,0.0,0.0,0.0,0.0,0.0,0.0,0.0,0.0,0.0,0.0,0.0,0.0,0.0,0.0,0.0,0.0,0.0,0.0,0.0,0.0,0.0,0.0,0.0,0.0,0.0,0.0,0.0,0.0,0.0,0.0,0.0,0.0,0.0,0.0,0.0,0.0,0.0,0.0,0.0,0.0,0.0,0.0,0.0,0.0,0.0,0.0,0.0,0.0,0.0,0.0,0.0,0.0,0.0,0.0,0.0,0.0,0.0,0.0,0.0,0.0,0.0,0.0,0.0,0.0,0.0,0.0,0.0,0.0,0.0,0.0,0.0,0.0,0.0,0.0,0.0,0.0,0.0,0.0,0.0,0.0,0.0,0.0,0.0,0.0,0.0,0.0,0.0,0.0,0.0,0.0,0.0,0.0,0.0,0.0,0.0,0.0,0.0,0.0,0.0,0.0,0.0,0.0,0.0,0.0,0.0,0.0,0.0,0.0,0.0,0.0,0.0,0.0,0.0,0.0,0.0,0.0,0.0,0.0,0.0,0.0,0.0,0.0,0.0,0.0,0.0,0.0,0.0,0.0,0.0,0.0,0.0,0.0,0.0,0.0,0.0,0.0,0.0,0.0,0.0,0.0,0.0,0.0,0.0,0.0,0.0,0.0,0.0,0.0,0.0,0.0,0.0,0.0,0.0,0.0,0.0,0.0,0.0,0.0,0.0,0.0,0.0,0.0,0.0,0.0,0.0,0.0,0.0,0.0,0.0,0.0,0.0,0.0,0.0,0.0,0.0,0.0,0.0,0.0,0.0,0.0,0.0,0.0,0.0,0.0,0.0,0.0,0.0,0.0,0.0,0.0,0.0,0.0,0.0,0.0,0.0,0.0,0.0,0.0,0.0,0.0,0.0,0.0,0.0,0.0,0.0,0.0,0.0,0.0,0.0,0.0,0.0,0.0,0.0,0.0,0.0,0.0,0.0,0.0,0.0,0.0,0.0,0.0,0.0,0.0,0.0,0.0,0.0,0.0,0.0,0.0,0.0,0.0,0.0,0.0,0.0,0.0,0.0,0.0,0.0,0.0,0.0,0.0,0.0,0.0,0.0,0.0,0.0,0.0,0.0,0.0,0.0,0.0,0.0,0.0,0.0,0.0,0.0,0.0,0.0,0.0,0.0,0.0,0.0,0.0,0.0,0.0,0.0,0.0,0.0,0.0,0.0,0.0,0.0,0.0,0.0,0.0,0.0,0.0,0.0,0.0,-3.0381,0.0,0.0,0.0,-3.0423,0.0,0.0,0.0,0.0,0.0,0.0,0.0,0.0,0.0,0.0,0.0,0.0,0.0,0.0,0.0,0.0,0.0,0.0,0.0,0.0,0.0,0.0,0.0,0.0,0.0,0.0,0.0,0.0,0.0,0.0,0.0,0.0,0.0,0.0,0.0,0.0,0.0,0.0,0.0,0.0,0.0,0.0,0.0,0.0,0.0,0.0,0.0,0.0,0.0,0.0,0.0,0.0,0.0,0.0,0.0,0.0,0.0,0.0,0.0,0.0,0.0,0.0,0.0,0.0,0.0,0.0,0.0,0.0,0.0,0.0,0.0,0.0,0.0,0.0,0.0,0.0,0.0,0.0,0.0,0.0,0.0,0.0,0.0,0.0,0.0,0.0,0.0,0.0,0.0,0.0,0.0,0.0,0.0,0.0,0.0,0.0,0.0,0.0,0.0,0.0,0.0,0.0,0.0,0.0,0.0,0.0,0.0,0.0,0.0,0.0,-3.1326,-3.1737,-3.216,-3.216,-3.1769,0.0,0.0,0.0,0.0,0.0,0.0,0.0,0.0,0.0,0.0,0.0,0.0,0.0,0.0,0.0,0.0,0.0,0.0,0.0,0.0,0.0,0.0,0.0,0.0,0.0,0.0,0.0,0.0,0.0,0.0,0.0,0.0,0.0,0.0,0.0,0.0,0.0,0.0,0.0,0.0,0.0,0.0,0.0,0.0,0.0,0.0,0.0,0.0,0.0,0.0,0.0,0.0,0.0,0.0,0.0,0.0,0.0,0.0,0.0,0.0,0.0,0.0,0.0,0.0,0.0,0.0,0.0,0.0,0.0,0.0,0.0,0.0,0.0,0.0,0.0,0.0,0.0,0.0,0.0,0.0,0.0,0.0,0.0,0.0,0.0,0.0,0.0,0.0,0.0,0.0,0.0,0.0,0.0,0.0,0.0,0.0,0.0,0.0,0.0,0.0,0.0,0.0,0.0,0.0,0.0,0.0,0.0,0.0,0.0,0.0,0.0,0.0,-3.3083,-3.3199,-3.316,0.0,0.0,0.0,0.0,0.0,0.0,0.0,0.0,0.0,0.0,0.0,0.0,0.0,0.0,0.0,0.0,0.0,0.0,0.0,0.0,0.0,0.0,0.0,0.0,0.0,0.0,0.0,0.0,0.0,0.0,0.0,0.0,0.0,0.0,0.0,0.0,0.0,0.0,0.0,0.0,0.0,0.0,0.0,0.0,0.0,0.0,0.0,0.0,0.0,0.0,0.0,0.0,0.0,0.0,0.0,0.0,0.0,0.0,0.0,0.0,0.0,0.0,0.0,0.0,0.0,0.0,0.0,0.0,0.0,0.0,0.0,0.0,0.0,0.0,0.0,0.0,0.0,0.0,0.0,0.0,0.0,0.0,0.0,0.0,0.0,0.0,0.0,0.0,0.0,0.0,0.0,0.0,0.0,0.0,0.0,0.0,0.0,0.0,0.0,0.0,0.0,0.0,0.0,0.0,0.0,0.0,0.0,0.0,0.0,0.0,-3.2814,-3.2891,-3.3667,0.0,-3.4013,0.0,0.0,0.0,0.0,0.0,0.0,0.0,0.0,0.0,0.0,0.0,0.0,0.0,0.0,0.0,0.0,0.0,0.0,0.0,0.0,0.0,0.0,0.0,0.0,0.0,0.0,0.0,0.0,0.0,0.0,0.0,0.0,0.0,0.0,0.0,0.0,0.0,0.0,0.0,0.0,0.0,0.0,0.0,0.0,0.0,0.0,0.0,0.0,0.0,0.0,0.0,0.0,0.0,0.0,0.0,0.0,0.0,0.0,0.0,0.0,0.0,0.0,0.0,0.0,0.0,0.0,0.0,0.0,0.0,0.0,0.0,0.0,0.0,0.0,0.0,0.0,0.0,0.0,0.0,0.0,0.0,0.0,0.0,0.0,0.0,0.0,0.0,0.0,0.0,0.0,0.0,0.0,0.0,0.0,0.0,0.0,0.0,0.0,0.0,0.0,0.0,0.0,0.0,0.0,0.0,0.0,0.0,0.0,0.0,0.0,-3.393,-3.4423,-3.4776,-3.4737,0.0,0.0,0.0,0.0,0.0,0.0,0.0,0.0,0.0,0.0,0.0,0.0,0.0,0.0,0.0,0.0,0.0,0.0,0.0,0.0,0.0,0.0,0.0,0.0,0.0,0.0,0.0,0.0,0.0,0.0,0.0,0.0,0.0,0.0,0.0,0.0,0.0,0.0,0.0,0.0,0.0,0.0,0.0,0.0,0.0,0.0,0.0,0.0,0.0,0.0,0.0,0.0,0.0,0.0,0.0,0.0,0.0,0.0,0.0,0.0,0.0,0.0,0.0,0.0,0.0,0.0,0.0,0.0,0.0,0.0,0.0,0.0,0.0,0.0,0.0,0.0,0.0,0.0,0.0,0.0,0.0,0.0,0.0,0.0,0.0,0.0,0.0,0.0,0.0,0.0,0.0,0.0,0.0,0.0,0.0,0.0,0.0,0.0,0.0,0.0,0.0,0.0,0.0,0.0,0.0,0.0,0.0,0.0,0.0,0.0,-3.4456,-3.4853,-3.5462,-3.55,-3.5192,-3.4584,0.0,0.0,0.0,0.0,0.0,0.0,0.0,0.0,0.0,0.0,0.0,0.0,0.0,0.0,0.0,0.0,0.0,0.0,0.0,0.0,0.0,0.0,0.0,0.0,0.0,0.0,0.0,0.0,0.0,0.0,0.0,0.0,0.0,0.0,0.0,0.0,0.0,0.0,0.0,0.0,0.0,0.0,0.0,0.0,0.0,0.0,0.0,0.0,0.0,0.0,0.0,0.0,0.0,0.0,0.0,0.0,0.0,0.0,0.0,0.0,0.0,0.0,0.0,0.0,0.0,0.0,0.0,0.0,0.0,0.0,0.0,0.0,0.0,0.0,0.0,0.0,0.0,0.0,0.0,0.0,0.0,0.0,0.0,0.0,0.0,0.0,0.0,0.0,0.0,0.0,0.0,0.0,0.0,0.0,0.0,0.0,0.0,0.0,0.0,0.0,0.0,0.0,0.0,0.0,0.0,0.0,0.0,0.0,-3.4256,-3.5027,-3.5462,-3.5538,-3.55,-3.55,0.0,0.0,0.0,0.0,0.0,0.0,0.0,0.0,0.0,0.0,0.0,0.0,0.0,0.0,0.0,0.0,0.0,0.0,0.0,0.0,0.0,0.0,0.0,0.0,0.0,0.0,0.0,0.0,0.0,0.0,0.0,0.0,0.0,0.0,0.0,0.0,0.0,0.0,0.0,0.0,0.0,0.0,0.0,0.0,0.0,0.0,0.0,0.0,0.0,0.0,0.0,0.0,0.0,0.0,0.0,0.0,0.0,0.0,0.0,0.0,0.0,0.0,0.0,0.0,0.0,0.0,0.0,0.0,0.0,0.0,0.0,0.0,0.0,0.0,0.0,0.0,0.0,0.0,0.0,0.0,0.0,0.0,0.0,0.0,0.0,0.0,0.0,0.0,0.0,0.0,0.0,0.0,0.0,0.0,0.0,0.0,0.0,0.0,0.0,0.0,0.0,0.0,0.0,0.0,0.0,0.0,0.0,0.0,0.0,-3.5862,-3.665,-3.7123,-3.7084,-3.6584,-3.6269,0.0,0.0,0.0,0.0,0.0,0.0,0.0,0.0,0.0,0.0,0.0,0.0,0.0,0.0,0.0,0.0,0.0,0.0,0.0,0.0,0.0,0.0,0.0,0.0,0.0,0.0,0.0,0.0,0.0,0.0,0.0,0.0,0.0,0.0,0.0,0.0,0.0,0.0,0.0,0.0,0.0,0.0,0.0,0.0,0.0,0.0,0.0,0.0,0.0,0.0,0.0,0.0,0.0,0.0,0.0,0.0,0.0,0.0,0.0,0.0,0.0,0.0,0.0,0.0,0.0,0.0,0.0,0.0,0.0,0.0,0.0,0.0,0.0,0.0,0.0,0.0,0.0,0.0,0.0,0.0,0.0,0.0,0.0,0.0,0.0,0.0,0.0,0.0,0.0,0.0,0.0,0.0,0.0,0.0,0.0,0.0,0.0,0.0,0.0,0.0,0.0,0.0,0.0,0.0,0.0,0.0,0.0,0.0,0.0,-3.7591,0.0,-3.883,-3.8784,-3.7969,-3.7392,0.0,0.0,0.0,0.0,0.0,0.0,0.0,0.0,0.0,0.0,0.0,0.0,0.0,0.0,0.0,0.0,0.0,0.0,0.0,0.0,0.0,0.0,0.0,0.0,0.0,0.0,0.0,0.0,0.0,0.0,0.0,0.0,0.0,0.0,0.0,0.0,0.0,0.0,0.0,0.0,0.0,0.0,0.0,0.0,0.0,0.0,0.0,0.0,0.0,0.0,0.0,0.0,0.0,0.0,0.0,0.0,0.0,0.0,0.0,0.0,0.0,0.0,0.0,0.0,0.0,0.0,0.0,0.0,0.0,0.0,0.0,0.0,0.0,0.0,0.0,0.0,0.0,0.0,0.0,0.0,0.0,0.0,0.0,0.0,0.0,0.0,0.0,0.0,0.0,0.0,0.0,0.0,0.0,0.0,0.0,0.0,0.0,0.0,0.0,0.0,0.0,0.0,0.0,0.0,0.0,0.0,0.0,0.0,-3.7914,-3.9343,-4.0306,-4.0792,-4.0554,-3.9854,-3.8969,0.0,0.0,0.0,0.0,0.0,0.0,0.0,0.0,0.0,0.0,0.0,0.0,0.0,0.0,0.0,0.0,0.0,0.0,0.0,0.0,0.0,0.0,0.0,0.0,0.0,0.0,0.0,0.0,0.0,0.0,0.0,0.0,0.0,0.0,0.0,0.0,0.0,0.0,0.0,0.0,0.0,0.0,0.0,0.0,0.0,0.0,0.0,0.0,0.0,0.0,0.0,0.0,0.0,0.0,0.0,0.0,0.0,0.0,0.0,0.0,0.0,0.0,0.0,0.0,0.0,0.0,0.0,0.0,0.0,0.0,0.0,0.0,0.0,0.0,0.0,0.0,0.0,0.0,0.0,0.0,0.0,0.0,0.0,0.0,0.0,0.0,0.0,0.0,0.0,0.0,0.0,0.0,0.0,0.0,0.0,0.0,0.0,0.0,0.0,0.0,0.0,0.0,0.0,0.0,0.0,0.0,0.0,0.0,0.0,-4.3736,-4.4514,-4.4944,-4.4855,-4.3508,-4.2085,0.0,0.0,0.0,0.0,0.0,0.0,0.0,0.0,0.0,0.0,0.0,0.0,0.0,0.0,0.0,0.0,0.0,0.0,0.0,0.0,0.0,0.0,0.0,0.0,0.0,0.0,0.0,0.0,0.0,0.0,0.0,0.0,0.0,0.0,0.0,0.0,0.0,0.0,0.0,0.0,0.0,0.0,0.0,0.0,0.0,0.0,0.0,0.0,0.0,0.0,0.0,0.0,0.0,0.0,0.0,0.0,0.0,0.0,0.0,0.0,0.0,0.0,0.0,0.0,0.0,0.0,0.0,0.0,0.0,0.0,0.0,0.0,0.0,0.0,0.0,0.0,0.0,0.0,0.0,0.0,0.0,0.0,0.0,0.0,0.0,0.0,0.0,0.0,0.0,0.0,0.0,0.0,0.0,0.0,0.0,0.0,0.0,0.0,0.0,0.0,0.0,0.0,0.0,0.0,0.0,0.0,0.0,0.0,0.0,-4.896,-4.8587,-4.8351,-4.8317,-4.6624,-4.4932,-4.3278,0.0,0.0,0.0,0.0,0.0,0.0,0.0,0.0,0.0,0.0,0.0,0.0,0.0,0.0,0.0,0.0,0.0,0.0,0.0,0.0,0.0,0.0,0.0,0.0,0.0,0.0,0.0,0.0,0.0,0.0,0.0,0.0,0.0,0.0,0.0,0.0,0.0,0.0,0.0,0.0,0.0,0.0,0.0,0.0,0.0,0.0,0.0,0.0,0.0,0.0,0.0,0.0,0.0,0.0,0.0,0.0,0.0,0.0,0.0,0.0,0.0,0.0,0.0,0.0,0.0,0.0,0.0,0.0,0.0,0.0,0.0,0.0,0.0,0.0,0.0,0.0,0.0,0.0,0.0,0.0,0.0,0.0,0.0,0.0,0.0,0.0,0.0,0.0,0.0,0.0,0.0,0.0,0.0,0.0,0.0,0.0,0.0,0.0,0.0,0.0,0.0,0.0,0.0,0.0,0.0,0.0,0.0,0.0,-5.4776,-5.2509,-5.1268,-5.1058,-4.9394,-4.7625,0.0,0.0,0.0,0.0,0.0,0.0,0.0,0.0,0.0,0.0,0.0,0.0,0.0,0.0,0.0,0.0,0.0,0.0,0.0,0.0,0.0,0.0,0.0,0.0,0.0,0.0,0.0,0.0,0.0,0.0,0.0,0.0,0.0,0.0,0.0,0.0,0.0,0.0,0.0,0.0,0.0,0.0,0.0,0.0,0.0,0.0,0.0,0.0,0.0,0.0,0.0,0.0,0.0,0.0,0.0,0.0,0.0,0.0,0.0,0.0,0.0,0.0,0.0,0.0,0.0,0.0,0.0,0.0,0.0,0.0,0.0,0.0,0.0,0.0,0.0,0.0,0.0,0.0,0.0,0.0,0.0,0.0,0.0,0.0,0.0,0.0,0.0,0.0,0.0,0.0,0.0,0.0,0.0,0.0,0.0,0.0,0.0,0.0,0.0,0.0,0.0,0.0,0.0,0.0,0.0,0.0,0.0,0.0,0.0,-5.7216,-5.7371,-5.6703,-5.5367,-5.3703,-5.1433,0.0,0.0,0.0,0.0,0.0,0.0,0.0,0.0,0.0,0.0,0.0,0.0,0.0,0.0,0.0,0.0,0.0,0.0,0.0,0.0,0.0,0.0,0.0,0.0,0.0,0.0,0.0,0.0,0.0,0.0,0.0,0.0,0.0,0.0,0.0,0.0,0.0,0.0,0.0,0.0,0.0,0.0,0.0,0.0,0.0,0.0,0.0,0.0,0.0,0.0,0.0,0.0,0.0,0.0,0.0,0.0,0.0,0.0,0.0,0.0,0.0,0.0,0.0,0.0,0.0,0.0,0.0,0.0,0.0,0.0,0.0,0.0,0.0,0.0,0.0,0.0,0.0,0.0,0.0,0.0,0.0,0.0,0.0,0.0,0.0,0.0,0.0,0.0,0.0,0.0,0.0,0.0,0.0,0.0,0.0,0.0,0.0,0.0,0.0,0.0,0.0,0.0,0.0,0.0,0.0,0.0,0.0,0.0,-5.6579,-5.9454,-6.0678,-6.0751,-5.9677,-5.7319,-5.4511,0.0,0.0,0.0,0.0,0.0,0.0,0.0,0.0,0.0,0.0,0.0,0.0,0.0,0.0,0.0,0.0,0.0,0.0,0.0,0.0,0.0,0.0,0.0,0.0,0.0,0.0,0.0,0.0,0.0,0.0,0.0,0.0,0.0,0.0,0.0,0.0,0.0,0.0,0.0,0.0,0.0,0.0,0.0,0.0,0.0,0.0,0.0,0.0,0.0,0.0,0.0,0.0,0.0,0.0,0.0,0.0,0.0,0.0,0.0,0.0,0.0,0.0,0.0,0.0,0.0,0.0,0.0,0.0,0.0,0.0,0.0,0.0,0.0,0.0,0.0,0.0,0.0,0.0,0.0,0.0,0.0,0.0,0.0,0.0,0.0,0.0,0.0,0.0,0.0,0.0,0.0,0.0,0.0,0.0,0.0,0.0,0.0,0.0,0.0,0.0,0.0,0.0,0.0,0.0,0.0,0.0,0.0,0.0,-5.8815,-6.1499,-6.2993,-6.3708,-6.3474,-6.0319,-5.7011,0.0,0.0,0.0,0.0,0.0,0.0,0.0,0.0,0.0,0.0,0.0,0.0,0.0,0.0,0.0,0.0,0.0,0.0,0.0,0.0,0.0,0.0,0.0,0.0,0.0,0.0,0.0,0.0,0.0,0.0,0.0,0.0,0.0,0.0,0.0,0.0,0.0,0.0,0.0,0.0,0.0,0.0,0.0,0.0,0.0,0.0,0.0,0.0,0.0,0.0,0.0,0.0,0.0,0.0,0.0,0.0,0.0,0.0,0.0,0.0,0.0,0.0,0.0,0.0,0.0,0.0,0.0,0.0,0.0,0.0,0.0,0.0,0.0,0.0,0.0,0.0,0.0,0.0,0.0,0.0,0.0,0.0,0.0,0.0,0.0,0.0,0.0,0.0,0.0,0.0,0.0,0.0,0.0,0.0,0.0,0.0,0.0,0.0,0.0,0.0,0.0,0.0,0.0,0.0,0.0,0.0,0.0,0.0,-6.0452,-6.4778,-6.5223,-6.5356,-6.532,-6.205,-5.8973,0.0,0.0,0.0,0.0,0.0,0.0,0.0,0.0,0.0,0.0,0.0,0.0,0.0,0.0,0.0,0.0,0.0,0.0,0.0,0.0,0.0,0.0,0.0,0.0,0.0,0.0,0.0,0.0,0.0,0.0,0.0,0.0,0.0,0.0,0.0,0.0,0.0,0.0,0.0,0.0,0.0,0.0,0.0,0.0,0.0,0.0,0.0,0.0,-4.8279,0.0,0.0,0.0,0.0,0.0,0.0,0.0,0.0,0.0,0.0,0.0,0.0,0.0,0.0,0.0,0.0,0.0,0.0,0.0,0.0,0.0,0.0,0.0,0.0,0.0,0.0,0.0,0.0,0.0,0.0,0.0,0.0,0.0,0.0,0.0,0.0,0.0,0.0,0.0,0.0,0.0,0.0,0.0,0.0,0.0,0.0,0.0,0.0,0.0,0.0,0.0,0.0,0.0,0.0,0.0,0.0,0.0,0.0,0.0,-6.2558,-6.5847,-6.6752,-6.6922,-6.6397,-6.3935,-6.1012,0.0,0.0,0.0,0.0,0.0,0.0,0.0,0.0,0.0,0.0,0.0,0.0,0.0,0.0,0.0,0.0,0.0,0.0,0.0,0.0,0.0,0.0,0.0,0.0,0.0,0.0,0.0,0.0,0.0,0.0,0.0,0.0,0.0,0.0,0.0,0.0,0.0,0.0,0.0,0.0,0.0,0.0,0.0,0.0,0.0,0.0,0.0,0.0,0.0,0.0,0.0,0.0,0.0,0.0,0.0,0.0,0.0,0.0,0.0,0.0,0.0,0.0,0.0,0.0,0.0,0.0,0.0,0.0,0.0,0.0,0.0,0.0,0.0,0.0,0.0,0.0,0.0,0.0,0.0,0.0,0.0,0.0,0.0,0.0,0.0,0.0,0.0,0.0,0.0,0.0,0.0,0.0,0.0,0.0,0.0,0.0,0.0,0.0,0.0,0.0,0.0,0.0,0.0,0.0,0.0,0.0,0.0,-6.1503,-6.4778,-6.6746,-6.8012,-6.8334,-6.7667,-6.5936,-6.3089,-5.9011,0.0,0.0,0.0,0.0,0.0,0.0,0.0,0.0,0.0,0.0,0.0,0.0,0.0,0.0,0.0,0.0,0.0,0.0,0.0,0.0,0.0,0.0,0.0,0.0,0.0,0.0,0.0,0.0,0.0,0.0,0.0,0.0,0.0,0.0,0.0,0.0,0.0,0.0,-4.7192,-5.0462,0.0,0.0,0.0,0.0,0.0,0.0,0.0,0.0,-5.6472,0.0,0.0,0.0,0.0,0.0,0.0,0.0,0.0,0.0,0.0,0.0,0.0,0.0,0.0,0.0,0.0,0.0,0.0,0.0,0.0,0.0,0.0,0.0,0.0,0.0,0.0,0.0,0.0,0.0,0.0,0.0,0.0,0.0,0.0,0.0,0.0,0.0,0.0,0.0,0.0,0.0,0.0,0.0,0.0,0.0,0.0,0.0,0.0,0.0,0.0,0.0,0.0,0.0,0.0,0.0,0.0,-6.0406,-6.3216,-6.6449,-7.0129,-6.9746,-6.9758,-7.0206,-6.7936,-6.5051,-6.1524,0.0,0.0,0.0,0.0,0.0,0.0,0.0,0.0,0.0,0.0,0.0,0.0,0.0,0.0,0.0,0.0,0.0,0.0,0.0,0.0,0.0,0.0,0.0,0.0,0.0,0.0,0.0,0.0,0.0,0.0,0.0,0.0,0.0,0.0,0.0,0.0,0.0,0.0,0.0,-5.3395,-5.5049,0.0,0.0,0.0,0.0,0.0,0.0,0.0,0.0,-5.8319,0.0,0.0,0.0,0.0,0.0,0.0,0.0,0.0,0.0,0.0,0.0,0.0,0.0,0.0,0.0,0.0,0.0,0.0,0.0,0.0,0.0,0.0,0.0,0.0,0.0,0.0,0.0,0.0,0.0,0.0,0.0,0.0,0.0,0.0,0.0,0.0,0.0,0.0,0.0,0.0,0.0,0.0,0.0,0.0,0.0,0.0,0.0,0.0,0.0,0.0,0.0,0.0,0.0,0.0,0.0,-6.181,-6.5118,-6.8162,-7.0978,-7.1466,-7.1437,-7.0898,-6.8859,-6.6013,0.0,0.0,0.0,0.0,0.0,0.0,0.0,0.0,0.0,0.0,0.0,0.0,0.0,0.0,0.0,0.0,0.0,0.0,0.0,0.0,0.0,0.0,0.0,0.0,0.0,0.0,0.0,0.0,0.0,0.0,0.0,0.0,0.0,0.0,0.0,0.0,0.0,0.0,0.0,0.0,-5.5511,-5.7665,-5.7665,0.0,0.0,0.0,0.0,0.0,0.0,-6.282,-6.1935,0.0,0.0,0.0,0.0,0.0,0.0,0.0,0.0,0.0,0.0,0.0,0.0,0.0,0.0,0.0,0.0,0.0,0.0,0.0,0.0,0.0,0.0,0.0,0.0,0.0,0.0,0.0,0.0,0.0,0.0,0.0,0.0,0.0,0.0,0.0,0.0,0.0,0.0,0.0,0.0,0.0,0.0,0.0,0.0,0.0,0.0,0.0,0.0,0.0,0.0,0.0,0.0,0.0,0.0,0.0,-6.2986,-6.6885,-6.9743,-7.1556,-7.2852,-7.2822,-7.1437,-6.9629,-6.6744,0.0,0.0,0.0,0.0,0.0,0.0,0.0,0.0,0.0,0.0,0.0,0.0,0.0,0.0,0.0,0.0,0.0,0.0,0.0,0.0,0.0,0.0,0.0,0.0,0.0,0.0,0.0,0.0,0.0,0.0,0.0,0.0,0.0,0.0,0.0,0.0,0.0,0.0,0.0,0.0,0.0,-5.9973,-6.0473,-6.2435,0.0,0.0,0.0,0.0,-6.6397,-6.6128,0.0,0.0,0.0,0.0,0.0,0.0,0.0,0.0,0.0,0.0,0.0,0.0,0.0,0.0,0.0,0.0,0.0,0.0,0.0,0.0,0.0,0.0,0.0,0.0,0.0,0.0,0.0,0.0,0.0,0.0,0.0,0.0,0.0,0.0,0.0,0.0,0.0,0.0,0.0,0.0,0.0,0.0,0.0,0.0,0.0,0.0,0.0,0.0,0.0,0.0,0.0,0.0,0.0,0.0,0.0,0.0,-6.4692,-6.8006,-7.0874,-7.3254,-7.3468,-7.3385,-7.3168,-7.0821,-6.7898,0.0,0.0,0.0,0.0,0.0,0.0,0.0,0.0,0.0,0.0,0.0,0.0,0.0,0.0,0.0,0.0,0.0,0.0,0.0,0.0,0.0,0.0,0.0,0.0,0.0,0.0,0.0,0.0,0.0,0.0,0.0,0.0,0.0,0.0,0.0,0.0,0.0,0.0,0.0,0.0,0.0,-6.1473,-6.3705,-6.4897,-6.5859,0.0,0.0,-6.7244,-6.8013,-6.6859,0.0,0.0,0.0,0.0,0.0,0.0,0.0,0.0,0.0,0.0,0.0,0.0,0.0,0.0,0.0,0.0,0.0,0.0,0.0,0.0,0.0,0.0,0.0,0.0,0.0,0.0,0.0,0.0,0.0,0.0,0.0,0.0,0.0,0.0,0.0,0.0,0.0,0.0,0.0,0.0,0.0,0.0,0.0,0.0,0.0,0.0,0.0,0.0,0.0,0.0,0.0,0.0,0.0,0.0,0.0,-6.2206,-6.7134,-6.9899,-7.2302,-7.4295,-7.4739,-7.4668,-7.4207,-7.2206,-6.9283,0.0,0.0,0.0,0.0,0.0,0.0,0.0,0.0,0.0,0.0,0.0,0.0,0.0,0.0,0.0,0.0,0.0,0.0,0.0,0.0,0.0,0.0,0.0,0.0,0.0,0.0,0.0,0.0,0.0,0.0,0.0,0.0,0.0,0.0,0.0,0.0,0.0,0.0,0.0,0.0,0.0,0.0,-6.5667,-6.7552,0.0,0.0,0.0,-7.086,-7.1231,0.0,0.0,0.0,0.0,0.0,0.0,0.0,0.0,0.0,0.0,0.0,0.0,0.0,0.0,0.0,0.0,0.0,0.0,0.0,0.0,0.0,0.0,0.0,0.0,0.0,0.0,0.0,0.0,0.0,0.0,0.0,0.0,0.0,0.0,0.0,0.0,0.0,0.0,0.0,0.0,0.0,0.0,0.0,0.0,0.0,0.0,0.0,0.0,0.0,0.0,0.0,0.0,0.0,0.0,0.0,0.0,0.0,-6.88,-7.1406,-7.3524,-7.5182,-7.6178,-7.613,-7.5053,-7.3399,0.0,0.0,0.0,0.0,0.0,0.0,0.0,0.0,0.0,0.0,0.0,0.0,0.0,0.0,0.0,0.0,0.0,0.0,0.0,0.0,0.0,0.0,0.0,0.0,0.0,0.0,0.0,-4.3932,0.0,0.0,0.0,0.0,0.0,0.0,0.0,0.0,0.0,0.0,0.0,0.0,0.0,0.0,-6.4936,-6.7667,-7.0052,-7.1783,0.0,0.0,-7.3731,-7.3514,-7.2206,-7.0667,0.0,0.0,0.0,0.0,0.0,0.0,0.0,0.0,0.0,0.0,0.0,0.0,0.0,0.0,0.0,0.0,0.0,0.0,0.0,0.0,0.0,0.0,0.0,0.0,0.0,0.0,0.0,0.0,0.0,0.0,0.0,0.0,0.0,0.0,0.0,0.0,0.0,0.0,0.0,0.0,0.0,0.0,0.0,0.0,0.0,0.0,0.0,0.0,0.0,0.0,0.0,0.0,0.0,0.0,-6.3906,-6.88,-7.2024,-7.4449,-7.6069,-7.7564,-7.7553,-7.5938,-7.4322,-7.1822,0.0,0.0,0.0,0.0,0.0,0.0,0.0,0.0,0.0,0.0,0.0,0.0,0.0,0.0,0.0,0.0,0.0,0.0,0.0,0.0,0.0,0.0,0.0,0.0,0.0,0.0,0.0,0.0,0.0,0.0,0.0,0.0,0.0,0.0,0.0,0.0,0.0,0.0,0.0,0.0,0.0,-6.6936,-7.0206,-7.2168,-7.336,0.0,-7.413,-7.4361,-7.3615,-7.2745,-7.1552,-6.9898,0.0,0.0,0.0,0.0,0.0,0.0,0.0,0.0,0.0,0.0,0.0,0.0,0.0,0.0,0.0,0.0,0.0,0.0,0.0,0.0,0.0,0.0,0.0,0.0,0.0,0.0,0.0,0.0,0.0,0.0,0.0,0.0,0.0,0.0,0.0,0.0,0.0,0.0,0.0,0.0,0.0,0.0,0.0,0.0,0.0,0.0,0.0,0.0,0.0,0.0,0.0,0.0,0.0,-6.6757,-7.1174,-7.3891,-7.5799,-7.6957,-7.7988,-7.8184,-7.7553,-7.5899,-7.3937,0.0,0.0,0.0,0.0,0.0,0.0,0.0,0.0,0.0,0.0,0.0,0.0,0.0,0.0,0.0,0.0,0.0,0.0,0.0,0.0,0.0,0.0,0.0,0.0,0.0,0.0,0.0,0.0,-5.5511,-5.6742,-5.6511,0.0,0.0,0.0,0.0,0.0,0.0,0.0,0.0,0.0,0.0,-6.9283,-7.2091,-7.3976,0.0,0.0,-7.6515,-7.6938,-7.663,-7.5438,-7.4168,-7.2976,-7.0244,0.0,0.0,0.0,0.0,0.0,0.0,0.0,0.0,0.0,0.0,0.0,0.0,0.0,0.0,0.0,0.0,0.0,0.0,0.0,0.0,0.0,0.0,0.0,0.0,0.0,0.0,0.0,0.0,0.0,0.0,0.0,0.0,0.0,0.0,0.0,0.0,0.0,0.0,0.0,0.0,0.0,0.0,0.0,0.0,0.0,0.0,0.0,0.0,0.0,0.0,0.0,0.0,-6.8691,-7.3035,-7.5398,-7.7124,-7.8243,-7.8912,-7.9131,-7.8861,-7.7476,-7.5861,0.0,0.0,0.0,0.0,0.0,0.0,0.0,0.0,0.0,0.0,0.0,0.0,0.0,0.0,0.0,0.0,0.0,0.0,0.0,0.0,0.0,0.0,0.0,0.0,0.0,0.0,0.0,0.0,-5.7973,-5.8627,-5.7511,0.0,0.0,0.0,0.0,0.0,0.0,0.0,0.0,0.0,0.0,-7.1937,-7.3976,-7.5899,-7.7246,-7.763,-7.8361,-7.8784,-7.853,-7.7323,-7.6169,-7.5592,0.0,0.0,0.0,0.0,0.0,0.0,0.0,0.0,0.0,0.0,0.0,0.0,0.0,0.0,0.0,0.0,0.0,0.0,0.0,0.0,0.0,0.0,0.0,0.0,0.0,0.0,0.0,-5.1211,0.0,0.0,-4.7734,0.0,0.0,0.0,0.0,0.0,0.0,0.0,0.0,0.0,0.0,0.0,0.0,0.0,0.0,0.0,0.0,0.0,0.0,0.0,0.0,0.0,0.0,-6.9001,-7.3927,-7.6287,-7.8282,-7.985,-8.063,-8.0592,-7.9823,-7.89,-7.7246,-7.4707,0.0,0.0,0.0,0.0,0.0,0.0,0.0,0.0,0.0,0.0,0.0,0.0,0.0,0.0,0.0,0.0,0.0,0.0,0.0,0.0,0.0,0.0,0.0,0.0,0.0,0.0,-6.0358,-6.0704,-6.0089,0.0,0.0,0.0,0.0,0.0,0.0,0.0,0.0,0.0,-6.8038,-7.1975,-7.4938,-7.5822,-7.8092,-7.9323,-7.8592,-7.9208,-7.9477,-7.8707,-7.7823,-7.7284,0.0,0.0,0.0,0.0,0.0,0.0,0.0,0.0,0.0,0.0,0.0,0.0,0.0,0.0,0.0,0.0,0.0,0.0,0.0,0.0,0.0,0.0,0.0,0.0,0.0,0.0,0.0,-5.625,-5.5664,0.0,0.0,0.0,0.0,0.0,0.0,0.0,0.0,0.0,0.0,0.0,-6.4687,-6.3867,0.0,0.0,0.0,0.0,0.0,0.0,0.0,0.0,0.0,0.0,0.0,0.0,-7.1236,-7.5555,-7.7408,-7.8861,-7.9966,-8.0707,-8.0977,-8.0669,-7.9823,-7.79,-7.4784,0.0,0.0,0.0,0.0,0.0,0.0,0.0,0.0,0.0,0.0,0.0,0.0,0.0,0.0,0.0,0.0,0.0,0.0,0.0,0.0,0.0,0.0,0.0,0.0,0.0,-6.1166,0.0,0.0,0.0,0.0,0.0,0.0,0.0,0.0,0.0,0.0,-6.6244,-6.9129,-7.2168,-7.4822,-7.6707,-7.7553,-7.8861,-7.9708,0.0,0.0,0.0,0.0,0.0,0.0,0.0,0.0,0.0,0.0,0.0,0.0,0.0,-6.9552,-6.7359,-6.3974,-6.3589,-6.3743,-6.3743,0.0,0.0,0.0,0.0,0.0,0.0,0.0,0.0,0.0,0.0,0.0,0.0,0.0,0.0,-6.1289,-6.0976,-6.0117,0.0,0.0,0.0,0.0,0.0,0.0,0.0,0.0,-6.8398,-6.8828,-6.9101,-6.8242,-6.7812,-6.7773,-6.7226,-6.5234,0.0,0.0,0.0,0.0,0.0,0.0,0.0,0.0,-7.313,-7.6873,-7.8722,-8.0018,-8.0891,-8.1593,-8.1977,-8.1939,-8.0862,-7.89,-7.613,-7.4399,-7.1706,0.0,0.0,0.0,0.0,0.0,0.0,0.0,0.0,0.0,0.0,0.0,0.0,0.0,0.0,0.0,0.0,0.0,0.0,0.0,0.0,0.0,0.0,0.0,-6.4179,0.0,0.0,0.0,0.0,0.0,0.0,0.0,0.0,0.0,-6.7244,-6.9667,-7.236,-7.4822,-7.7169,-7.8823,-7.9323,0.0,0.0,0.0,0.0,0.0,0.0,0.0,-8.0977,-8.1823,-8.0554,-7.9208,-7.8707,-7.7015,-7.5784,-7.6092,0.0,0.0,-6.9436,-6.8783,-6.8936,-6.8936,-6.9629,-7.0167,-7.0206,-7.0898,-7.1822,0.0,0.0,0.0,0.0,-6.4531,0.0,0.0,0.0,-6.5781,-6.625,0.0,-6.6055,0.0,0.0,0.0,0.0,-6.707,-6.8047,0.0,0.0,-7.2187,-7.2656,-7.332,-7.2539,-7.2148,-7.2148,-7.2109,-7.207,-7.1758,-6.7109,0.0,0.0,0.0,0.0,0.0,0.0,-7.4557,-7.792,-8.0113,-8.1716,-8.2603,-8.3264,-8.3555,-8.3532,-8.2016,-8.0362,-7.8646,-7.6976,-7.4553,-7.1206,-6.859,0.0,0.0,0.0,0.0,0.0,0.0,0.0,0.0,0.0,0.0,0.0,0.0,0.0,0.0,0.0,0.0,0.0,0.0,0.0,0.0,-6.5333,0.0,0.0,0.0,0.0,0.0,0.0,0.0,0.0,0.0,-7.0744,-7.0206,-7.286,-7.5168,-7.6092,0.0,0.0,0.0,0.0,-8.3593,-8.3593,-8.3632,-8.367,-8.367,-8.2978,-8.2708,-8.3593,0.0,0.0,-8.1323,-8.0592,-8.0246,-8.1093,-8.0516,-7.8707,-7.4731,-7.4437,-7.4784,-7.4861,-7.5438,-7.6092,-7.6169,-7.6515,-7.7207,-7.4687,0.0,0.0,0.0,0.0,-6.9531,-6.9922,-7.0156,-7.0156,-7.0312,-7.0469,-6.9609,0.0,0.0,0.0,0.0,0.0,0.0,-7.4414,-7.5742,-7.6367,-7.6445,-7.6055,-7.582,-7.5703,-7.5703,-7.5703,-7.5703,-7.5625,-7.4219,-7.2578,-7.0777,0.0,0.0,0.0,0.0,-7.7243,-8.0362,-8.1079,-8.2024,-8.3413,-8.3572,-8.3593,-8.3593,-8.3131,-8.2093,-8.04,-7.9285,-7.7438,-7.463,-7.2091,0.0,0.0,0.0,0.0,0.0,0.0,0.0,0.0,0.0,0.0,0.0,0.0,0.0,0.0,0.0,0.0,0.0,0.0,0.0,-6.8936,-6.9629,-6.9475,0.0,0.0,0.0,0.0,0.0,0.0,0.0,0.0,0.0,-7.5784,-7.7361,-7.8669,0.0,0.0,-8.2901,-8.2901,-8.3824,-8.4516,-8.4516,-8.5016,0.0,-8.5401,-8.517,-8.5324,-8.617,-8.5901,-8.5593,-8.5593,-8.4863,-8.4362,-8.4632,-8.4478,-8.3862,-8.2708,-8.0669,-7.94,-7.9285,-7.9477,-7.9631,-7.9669,-7.9862,-8.0362,-7.9726,-7.7226,-7.5351,-7.4062,-7.3359,-7.3828,-7.4062,-7.4062,-7.4062,-7.4258,-7.4492,-7.3672,-7.3476,-7.375,-7.293,0.0,0.0,0.0,-7.7578,-7.8711,-7.9258,-7.9414,-7.9219,-7.9219,-7.9219,-7.9219,-7.9219,-7.9219,-7.9219,-7.957,-7.8945,-7.7381,0.0,-7.635,-7.7935,-7.8168,-7.955,-8.2111,-8.2664,-8.3354,-8.4301,-8.4497,-8.4439,-8.4132,-8.4132,-8.3478,-8.2131,-8.0939,-7.9438,-7.7553,-7.5053,-7.2552,0.0,0.0,0.0,0.0,0.0,0.0,0.0,0.0,0.0,0.0,0.0,-5.5357,-5.9192,0.0,0.0,0.0,-6.7898,-7.0552,-7.3437,-7.3245,0.0,0.0,0.0,0.0,0.0,0.0,0.0,-7.3976,-7.5707,-7.7669,-8.0169,-8.1554,-8.2247,-8.2093,-8.3516,-8.4709,-8.5055,0.0,-8.6401,-8.6401,-8.6824,-8.7132,-8.7132,-8.7132,-8.7325,-8.7825,-8.7902,-8.7902,-8.7902,-8.7478,-8.7132,-8.7171,-8.7401,-8.7632,-8.7594,-8.6209,-8.4555,-8.3362,-8.3054,-8.3093,-8.3093,-8.3362,-8.3939,-8.3906,-8.3633,-8.0508,-7.8594,-7.7617,-7.7617,-7.7617,-7.7617,-7.7617,-7.8047,-7.8711,-7.7969,-7.8047,-7.875,-7.7969,0.0,-7.8906,-7.8906,-7.9805,-8.1328,-8.1289,-8.1719,-8.25,-8.25,-8.25,-8.25,-8.25,-8.25,-8.2539,-8.3281,-8.3711,-8.3672,-7.9755,-7.8504,-7.9978,-8.0617,-8.1662,-8.3193,-8.4672,-8.5407,-8.5405,-8.5998,-8.594,-8.5247,-8.5132,-8.467,-8.3785,-8.2247,-8.0939,-7.99,-7.7669,-7.5245,-7.2706,0.0,0.0,0.0,0.0,0.0,0.0,0.0,0.0,0.0,0.0,0.0,0.0,0.0,0.0,-7.1091,-7.3553,0.0,-7.6207,-7.6361,0.0,0.0,0.0,-7.4822,-7.4077,-7.4654,-7.5784,-7.7592,0.0,0.0,-8.3555,-8.5247,-8.5709,-8.4362,-8.544,-8.6632,-8.7478,-8.8325,-8.8902,-8.8979,-8.9094,-8.9133,-8.9248,-8.9248,-8.9286,-8.9325,-8.9094,-8.921,-8.9248,-8.921,-8.9133,-8.9171,-8.971,-9.021,-9.021,-9.0671,-9.0402,-8.7325,-8.6632,-8.6517,-8.6555,-8.7055,-8.7594,-8.6601,-8.6523,-8.5703,-8.3711,-8.1094,-8.1094,-8.1094,-8.1054,-8.1094,-8.1211,-8.1367,-8.1172,-8.1211,-8.1406,-8.1172,-8.1562,-8.2383,-8.2383,-8.2969,-8.3945,-8.3984,-8.4101,-8.4297,-8.4297,-8.4297,-8.4258,-8.4297,-8.4258,-8.4297,-8.4492,-8.4921,-8.5467,-8.3863,-8.3222,-8.3565,-8.3564,-8.4062,-8.5048,-8.587,-8.6823,-8.7888,-8.8072,-8.8062,-8.7786,-8.7132,-8.6401,-8.5555,-8.4555,-8.3016,-8.09,-8.0208,-7.8746,-7.6207,-7.3668,0.0,0.0,0.0,0.0,0.0,0.0,0.0,0.0,0.0,-6.4782,-6.8783,0.0,-7.2783,0.0,-7.6476,-7.7938,-7.8823,-7.9515,0.0,0.0,-7.8592,-7.8515,-7.8323,-7.8477,-7.9477,-8.1823,-8.2477,-8.367,-8.617,-8.6863,-8.7671,-8.9133,-8.8632,-8.8402,-8.921,-9.0056,-9.0864,-9.1441,-9.2018,-9.2518,-9.2402,-9.2518,-9.2402,-9.2479,-9.2479,-9.2518,-9.2479,-9.2518,-9.2518,-9.2518,-9.2633,-9.2787,-9.2749,-9.2979,-9.2864,-9.1979,-9.0902,-8.9979,-9.0017,-9.0133,-9.0479,-8.8594,-8.8633,-8.8633,-8.75,-8.5664,-8.4922,-8.4609,-8.4609,-8.4609,-8.4609,-8.4609,-8.4609,-8.4609,-8.4609,-8.4609,-8.4883,-8.5312,-8.5351,-8.5781,-8.6562,-8.6601,-8.6797,-8.7148,-8.7187,-8.7187,-8.7187,-8.7187,-8.7148,-8.7148,-8.7187,-8.7422,-8.789,-8.7419,-8.7139,-8.7077,-8.6205,-8.6122,-8.686,-8.7417,-8.8102,-8.8899,-8.8829,-8.8788,-8.8738,-8.8243,-8.7555,-8.6709,-8.5901,-8.4593,-8.2901,-8.2054,-8.0823,-7.9054,-7.6938,-7.4437,0.0,0.0,0.0,0.0,0.0,0.0,0.0,0.0,0.0,0.0,0.0,-7.7169,-7.9208,-8.0208,-8.0939,-8.1439,-8.1939,-8.217,-8.2093,-8.2054,-8.2208,-8.2554,-8.2631,-8.3285,-8.5093,-8.5632,-8.6671,-8.8786,-8.9402,-9.0287,-9.2095,-9.1518,-9.1095,-9.1518,-9.2018,-9.2479,-9.2979,-9.3403,-9.3672,-9.3672,-9.3672,-9.3672,-9.3672,-9.3672,-9.3672,-9.3672,-9.3672,-9.3672,-9.371,-9.4018,-9.4249,-9.4287,-9.4634,-9.4864,-9.4788,-9.4441,-9.3633,-9.2556,-9.2326,-9.2518,-9.0664,-9.0664,-9.0664,-9.0664,-9.0547,-8.9101,-8.8242,-8.7812,-8.7812,-8.7812,-8.7812,-8.7812,-8.7812,-8.7812,-8.7812,-8.7812,-8.7812,-8.7812,-8.8203,-8.8867,-8.8867,-8.9258,-9.0,-9.0,-9.0,-9.0,-9.0,-9.0,-9.0,-9.0,-9.0078,-9.0156,-9.0155,-9.0229,-9.0259,-8.888,-8.8305,-8.8637,-8.9209,-8.9474,-8.9447,-8.9347,-8.926,-8.9112,-8.8953,-8.8479,-8.7748,-8.6901,-8.6055,-8.5247,-8.367,-8.2401,-8.1631,-7.9939,-7.763,0.0,-7.3668,0.0,0.0,0.0,0.0,0.0,0.0,0.0,0.0,-7.8477,-8.14,-8.3593,-8.3978,-8.4093,-8.4093,-8.417,-8.4555,-8.5286,-8.5478,-8.5824,-8.6517,-8.6671,-8.7094,-8.794,-8.8709,-8.9787,-9.1287,-9.221,-9.2941,-9.3826,-9.398,-9.4018,-9.4287,-9.4057,-9.3903,-9.4095,-9.4287,-9.4749,-9.4672,-9.4518,-9.4557,-9.448,-9.4595,-9.4364,-9.4557,-9.4518,-9.4441,-9.4518,-9.5134,-9.5557,-9.548,-9.6134,-9.6596,-9.6634,-9.7019,-9.6711,-9.4864,-9.4403,-9.4326,-9.4219,-9.4219,-9.4219,-9.4219,-9.4179,-9.3867,-9.2148,-8.9531,-8.9531,-8.9531,-8.9531,-8.9531,-8.9531,-8.9531,-8.9531,-8.9531,-8.9531,-8.9531,-8.9609,-8.9765,-8.9726,-8.9844,-9.0,-9.0,-9.0,-9.0,-9.0,-9.0,-9.0,-9.0,-9.0351,-9.1054,-9.1054,-9.1405,-9.2065,0.0,0.0,0.0,-9.1149,-9.1432,-9.1231,-9.176,-9.1647,-9.0846,-9.0069,0.0,-8.9402,-8.8632,-8.7825,-8.6978,-8.594,0.0,0.0,0.0,0.0,0.0,0.0,0.0,0.0,0.0,0.0,0.0,-7.8861,-7.9054,-7.8938,-8.1977,-8.4132,-8.4632,-8.5863,-8.6671,-8.6709,-8.7325,-8.7786,-8.7979,-8.8556,-8.9017,-8.921,-8.9787,-9.0594,-9.1441,-9.1672,-9.2133,-9.3056,-9.3403,-9.4095,-9.5557,-9.5826,-9.6365,-9.7557,-9.6019,-9.5326,-9.648,-9.7134,-9.7711,-9.7827,-9.7673,-9.7519,-9.7827,-9.7827,-9.775,-9.7634,-9.7673,-9.775,-9.7673,-9.798,-9.8019,-9.8019,-9.8211,-9.8211,-9.8327,-9.8442,-9.8211,-9.7057,-9.7326,-9.7827,-9.5195,-9.5195,-9.5195,-9.5195,0.0,-9.5195,-9.4179,-9.2578,-9.2578,-9.2539,-9.2578,-9.2578,-9.2578,-9.2578,-9.2578,-9.2578,-9.2539,-9.2578,-9.2578,-9.2539,-9.2578,-9.2578,-9.2578,-9.2578,-9.2578,-9.2578,-9.2578,-9.2578,-9.2578,-9.2578,-9.2773,-9.3203,-9.3242,-9.3437,-9.3863,-9.4272,-9.3925,-9.2885,-9.3219,-9.3296,-9.3139,-9.3412,-9.3267,-9.2727,-9.2156,0.0,0.0,0.0,0.0,0.0,0.0,0.0,0.0,-8.5286,0.0,-8.3054,-8.2554,-8.1939,-8.1147,-8.14,-8.1862,-8.2324,-8.3478,-8.3862,-8.2978,-8.4901,-8.6324,-8.6748,-8.7902,-8.8632,-8.8671,-8.9402,-9.0094,-9.0517,-9.0941,-9.1325,-9.1748,-9.2172,-9.2595,-9.3018,-9.348,-9.4057,-9.4864,-9.5365,-9.6095,-9.7288,-9.7557,-9.7827,-9.8519,-9.775,-9.725,-9.8019,-9.8481,-9.875,-9.8788,-9.8788,-9.8788,-9.8788,-9.8788,-9.8788,-9.8788,-9.8788,-9.8788,-9.8788,-9.8788,-9.8788,-9.8788,-9.8788,-9.8788,-9.8827,-9.9135,-9.9288,-9.8827,-9.8788,-9.8788,-9.5664,-9.5625,-9.5664,-9.5625,-9.5625,-9.5664,-9.5625,-9.5625,-9.5312,0.0,0.0,-9.5195,-9.5195,-9.5195,-9.5195,-9.5195,-9.5195,-9.5195,-9.5195,-9.5195,-9.5195,-9.5195,-9.5195,-9.5195,-9.5195,-9.5195,-9.5195,-9.5195,-9.5195,-9.5195,-9.5195,-9.5195,-9.5351,-9.5507,-9.5621,-9.56,-9.5504,-9.5401,-9.5112,-9.4853,-9.4628,-9.4574,-9.4431,-9.4141,-9.3968,-9.3564,-9.2784,-9.2035,-9.1325,-9.0594,-8.9825,-8.9017,-8.8325,-8.8171,-8.7401,-8.594,-8.5786,-8.5478,-8.4786,-8.5363,-8.5863,-8.6017,-8.744,-8.7863,-8.6863,-8.7594,-8.844,-8.9286,-9.0094,-9.0594,-9.0594,-9.121,-9.1941,-9.2633,-9.2826,-9.3249,-9.4018,-9.4287,-9.448,-9.4634,-9.5288,-9.5942,-9.6634,-9.7288,-9.8057,-9.8788,-9.8942,-9.9135,-9.9173,-9.9096,-9.8904,-9.9019,-9.925,-9.9327,-9.925,-9.9327,-9.925,-9.9365,-9.9327,-9.925,-9.925,-9.925,-9.925,-9.9365,-9.925,-9.9288,-9.925,-9.9365,-9.925,-9.925,-9.9788,-10.0289,-10.025,-9.975,-9.9327,-9.7344,-9.7344,-9.7344,-9.7344,-9.7344,-9.7344,-9.7344,-9.7226,-9.582,-9.5195,-9.5195,-9.5195,-9.5195,-9.5195,-9.5195,-9.5195,-9.5195,-9.5195,-9.5195,-9.5195,-9.5195,-9.5195,-9.5195,-9.5195,-9.5195,-9.5195,-9.5195,-9.5195,-9.5195,-9.5195,-9.5195,-9.5312,-9.5937,-9.6679,-9.7301,-9.7337,-9.732,-9.7308,-9.646,-9.5572,-9.4707,-9.5284,-9.5132,-9.423,-9.4064,-9.3897,-9.368,-9.3495,-9.3287,-9.3133,-9.2402,-9.1902,-9.1748,-9.1056,-9.0248,-8.9286,-8.921,-8.9133,-8.9017,-8.9133,-8.9517,-9.0287,-9.121,-9.1133,-8.9556,-9.0171,-9.1018,-9.1902,-9.2595,-9.3172,-9.3172,-9.3287,-9.348,-9.3633,-9.421,-9.498,-9.5865,-9.648,-9.7096,-9.775,-9.8173,-9.8173,-9.8327,-9.8519,-9.8942,-9.9673,-9.9904,-10.0135,-10.0558,-10.0366,-9.9942,-10.0019,-10.0519,-10.0866,-10.075,-10.0904,-10.0789,-10.0943,-10.0827,-10.075,-10.075,-10.075,-10.075,-10.0904,-10.0789,-10.0827,-10.0827,-10.0943,-10.0789,-10.075,-10.0943,-10.1058,-10.1058,-10.0904,-10.0827,-9.9101,-9.9101,-9.9101,-9.9101,-9.9101,-9.9101,-9.9101,-9.9062,-9.832,-9.7422,-9.6601,-9.6562,-9.6562,-9.6562,-9.6562,-9.6562,-9.6562,-9.6562,-9.6562,-9.6562,-9.6562,-9.6562,-9.6562,-9.6562,-9.6562,-9.6562,-9.6562,-9.6562,-9.6562,-9.6562,-9.6562,-9.664,-9.7422,-9.8281,-9.9061,-9.9098,-9.9093,-9.908,-9.7733,-9.6746,-9.6242,-9.6468,-9.6299,-9.5672,-9.5569,-9.5438,-9.5255,-9.4741,-9.4418,-9.4403,-9.3595,-9.3133,-9.3133,-9.2787,-9.2402,-9.1979,-9.1941,-9.1979,-9.1979,-9.1979,-9.2133,-9.2518,-9.2903,-9.3249,-9.3403,-9.2864,-9.271,-9.3133,-9.3903,-9.4595,-9.5057,-9.5518,-9.5942,-9.6403,-9.6826,-9.7211,-9.7596,-9.7942,-9.8365,-9.8711,-9.8788,-9.8981,-9.9442,-9.9519,-9.9827,-10.0558,-10.075,-10.0904,-10.125,-10.1019,-10.075,-10.0789,-10.1096,-10.125,-10.1289,-10.1289,-10.1289,-10.1289,-10.1289,-10.1289,-10.1289,-10.1289,-10.1289,-10.1289,-10.1289,-10.1289,-10.1289,-10.1289,-10.1289,-10.1289,-10.1289,-10.1289,-10.1289,-10.1289,-10.1289,-10.0312,-10.0312,-10.0312,-10.0312,-10.0312,-10.0312,-10.0312,-10.0312,-10.0273,-9.9531,-9.8398,-9.8281,-9.8281,-9.8281,-9.8281,-9.8281,-9.8281,-9.8281,-9.8281,-9.8281,-9.8281,-9.8281,-9.8281,-9.8281,-9.8281,-9.8281,-9.8281,-9.8281,-9.8281,-9.8281,-9.8281,-9.8359,-9.8984,-9.9648,-10.0312,-10.0311,-10.0309,-10.0229,-9.8958,-9.8236,-9.8078,-9.7947,-9.781,-9.7574,-9.7454,-9.7264,-9.702,-9.6352,-9.5935,-9.5845,-9.5211,-9.4826,-9.4864,-9.4864,-9.4672,-9.4364,-9.448,-9.4557,-9.4557,-9.4749,-9.4864,-9.4864,-9.4826,-9.5441,-9.6557,-9.5634,-9.4864,-9.4903,-9.5557,-9.6172,-9.6788,-9.7365,-9.8057,-9.8711,-9.8788,-9.8788,-9.9019,-9.9096,-9.9173,-9.9288,-9.9365,-9.9673,-10.0173,-10.0366,-10.0596,-10.1096,-10.1289,-10.1289,-10.1289,-10.1289,-10.1289,-10.1289,-10.1289,-10.1289,-10.1289,-10.1289,-10.1289,-10.1289,-10.1289,-10.1289,-10.1289,-10.1289,-10.1289,-10.1289,-10.1289,-10.1289,-10.1289,-10.1289,-10.1289,-10.1289,-10.1289,-10.1289,-10.1289,-10.1289,-10.1289,-10.0312,-10.0312,-10.039,-10.0312,-10.039,-10.0351,-10.039,-10.039,-10.0312,-10.0234,-10.0078,-10.0039,-10.0039,-10.0078,-10.0,-9.9961,-10.0,-10.0039,-10.0039,-10.0,-10.0078,-10.0078,-9.9961,-10.0039,-10.0039,-10.0,-9.9961,-9.9883,-9.9922,-9.9961,-10.0039,-10.0078,-10.0156,-10.0234,-10.0351,-10.0351,-10.0351,-10.0308,-10.0144,-9.9995,-9.9863,-9.9786,-9.9626,-9.9452,-9.9307,-9.9169,-9.8847,-9.8678,-9.8477,-9.8461,-9.8288,-9.825,-9.825,-9.8288,-9.7634,-9.6211,-9.6711,-9.7134,-9.7173,-9.7865,-9.8173,-9.8327,-9.8134,-9.825,-9.8519,-9.8365,-9.8288,-9.825,-9.8327,-9.8327,-9.8557,-9.8634,-9.875,-9.8981,-9.8981,-9.9096,-9.9827,-9.9981,-10.025,-10.1019,-10.0904,-10.1096,-10.1058,-10.1096,-10.1173,-10.125,-10.1289,-10.1289,-10.1289,-10.1289,-10.1289,-10.1289,-10.1289,-10.1289,-10.1289,-10.1289,-10.1289,-10.1289,-10.1289,-10.1289,-10.1289,-10.1289,-10.1289,-10.1289,-10.1289,-10.1289,-10.1289,-10.1289,-10.1289,-10.1289,-10.1289,-10.1289,-10.1289,-10.1289,-10.1289,-10.1836,-10.1836,-10.1836,-10.1836,-10.1836,-10.1836,-10.1836,-10.1836,-10.1836,-10.1836,-10.1836,-10.1836,-10.1289,-10.0312,-10.0312,-10.0312,-10.0312,-10.0312,-10.0312,-10.0312,-10.0312,-10.0312,-10.0312,-10.0312,-10.0312,-10.0312,-10.0312,-10.0312,-10.0312,-10.0312,-10.0547,-10.1015,-10.1094,-10.1328,-10.1797,-10.1836,-10.1836,-10.1835,-10.1832,-10.1816,-10.1575,-10.0592,-9.9997,-9.9804,-9.9638,-9.9447,-9.9267,-9.9089,-9.899,-9.8882,-9.8826,-9.8788,-9.8788,-9.8788,-9.8519,-9.7865,-9.8096,-9.825,-9.825,-9.8596,-9.8788,-9.8788,-9.8788,-9.8981,-9.9519,-9.9558,-9.975,-10.0096,-9.9404,-9.8981,-9.9481,-9.9558,-9.975,-10.0173,-10.0289,-10.0404,-10.075,-10.0827,-10.0981,-10.125,-10.1289,-10.1289,-10.1289,-10.1289,-10.1289,-10.1289,-10.1289,-10.1289,-10.1289,-10.1289,-10.1289,-10.1289,-10.1289,-10.1289,-10.1289,-10.1289,-10.1289,-10.1289,-10.1289,-10.1289,-10.1289,-10.1289,-10.1289,-10.1289,-10.1289,-10.1289,-10.1289,-10.1289,-10.1289,-10.1289,-10.1289,-10.1289,-10.1289,-10.1289,-10.1289,-10.289,-10.289,-10.289,-10.289,-10.289,-10.289,-10.289,-10.289,-10.289,-10.289,-10.289,-10.289,-10.2226,-10.1133,-10.1015,-10.1015,-10.1015,-10.1015,-10.1015,-10.1015,-10.1015,-10.1015,-10.1015,-10.1015,-10.1015,-10.1015,-10.1054,-10.1054,-10.1015,-10.1015,-10.1328,-10.1875,-10.1953,-10.2265,-10.2851,-10.289,-10.289,-10.289,-10.2928,-10.2882,-10.2629,-10.1548,-10.0781,-10.0639,-10.0462,-10.0276,-10.0069,-9.9938,-9.9789,-9.9648,-9.9556,-9.9519,-9.9481,-9.9481,-9.9481,-9.9442,-9.925,-9.925,-9.9442,-9.9481,-9.9481,-9.9481,-9.9481,-9.975,-10.025,-10.0404,-10.0673,-10.1058,-10.0173,-9.9827,-10.0289,-10.0442,-10.0712,-10.1212,-10.1289,-10.1289,-10.1289,-10.1289,-10.1289,-10.1289,-10.1289,-10.1289,-10.1289,-10.1289,-10.1289,-10.1289,-10.1289,-10.1289,-10.1289,-10.1289,-10.1289,-10.1289,-10.1289,-10.1289,-10.1289,-10.1289,-10.1289,-10.1289,-10.1289,-10.1289,-10.1289,-10.1289,-10.1289,-10.1289,-10.1289,-10.1289,-10.1289,-10.1289,-10.1289,-10.1289,-10.1289,-10.1289,-10.1289,-10.1289,-10.1289,-10.289,-10.289,-10.289,-10.289,-10.289,-10.289,-10.289,-10.289,-10.289,-10.289,-10.289,-10.289,-10.2851,-10.2695,-10.2617,-10.2734,-10.2734,-10.2656,-10.2617,-10.2617,-10.2656,-10.2734,-10.2773,-10.2773,-10.2734,-10.2578,-10.2539,-10.2617,-10.2656,-10.2695,-10.2773,-10.2812,-10.2773,-10.2812,-10.289,-10.289,-10.289,-10.289,-10.2928,-10.2886,-10.2883,-10.2735,-10.2504,-10.2336,-10.2303,-10.2023,-10.1827,-10.1772,-10.1606,-10.1382,-10.1248,-10.1231,-10.1135,-10.1135,-10.1058,-10.1019,-10.0442,-10.0366,-10.0981,-10.1058,-10.1058,-10.1096,-10.0981,-10.1135,-10.1096,-10.1135,-10.1173,-10.1289,-10.1135,-10.1058,-10.1135,-10.1096,-10.1173,-10.125,-10.1289,-10.1289,-10.1289,-10.1289,-10.1289,-10.1289,-10.1289,-10.1289,-10.1289,-10.1289,-10.1289,-10.1289,-10.1289,-10.1289,-10.1289,-10.1289,-10.1289,-10.1289,-10.1289,-10.1289,-10.1289,-10.1289,-10.1289,-10.1289,-10.1289,-10.1289,-10.1289,-10.1289,-10.1289,-10.1289,-10.1289,-10.1289,-10.1289,-10.1289,-10.1289,-10.1289,-10.1289,-10.1289,-10.1289,-10.1289,-10.1289,-10.289,-10.289,-10.289,-10.289,-10.289,-10.289,-10.289,-10.289,-10.289,-10.289,-10.289,-10.289,-10.289,-10.289,-10.289,-10.289,-10.289,-10.289,-10.289,-10.289,-10.289,-10.289,-10.289,-10.289,-10.289,-10.289,-10.289,-10.289,-10.289,-10.289,-10.289,-10.289,-10.289,-10.289,-10.289,-10.289,-10.289,-10.289,-10.2929,-10.2928,-10.2926,-10.2873,-10.2839,-10.2733,-10.253,-10.235,-10.2189,-10.1986,-10.1826,-10.1676,-10.1552,-10.1423,-10.1289,-10.1289,-10.1289,-10.1289,-10.1019,-10.1019,-10.125,-10.1289,-10.1289,-10.1289,-10.1289,-10.1289,-10.1289,-10.1289,-10.1289,-10.1289,-10.1289,-10.1289,-10.1289,-10.1289,-10.1289,-10.1289,-10.1289,-10.1289,-10.1289,-10.1289,-10.1289,-10.1289,-10.1289,-10.1289,-10.1289,-10.1289,-10.1289,-10.1289,-10.1289,-10.1289,-10.1289,-10.1289,-10.1289,-10.1289,-10.1289,-10.1289,-10.1289,-10.1289,-10.1289,-10.1289,-10.1289,-10.1289,-10.1289,-10.1289,-10.1289,-10.1289,-10.1289,-10.1289,-10.1289,-10.1289,-10.1289,-10.1289,-10.1289,-10.1289,-10.1289,-10.1289,-10.1289,-10.289,-10.289,-10.289,-10.289,-10.289,-10.289,-10.289,-10.289,-10.289,-10.289,-10.289,-10.289,-10.289,-10.289,-10.289,-10.289,-10.289,-10.289,-10.289,-10.289,-10.289,-10.289,-10.289,-10.289,-10.289,-10.289,-10.289,-10.289,-10.289,-10.289,-10.289,-10.289,-10.289,-10.289,-10.289,-10.289,-10.289,-10.289,-10.289,-10.2929,-10.2927,-10.2922,-10.2868,-10.2789,-10.2582,-10.245,-10.2345,-10.2112,-10.1897,-10.1738,-10.1567,-10.1461,-10.1308,-10.1289,-10.1289,-10.1289,-10.1289,-10.1289,-10.1289,-10.1289,-10.1289,-10.1289,-10.1289,-10.1289,-10.1289,-10.1289,-10.1289,-10.1289,-10.1289,-10.1289,-10.1289,-10.1289,-10.1289,-10.1289,-10.1289,-10.1289,-10.1289,-10.1289,-10.1289,-10.1289,-10.1289,-10.1289,-10.1289,-10.1289,-10.1289,-10.1289,-10.1289,-10.1289,-10.1289,-10.1289,-10.1289,-10.1289,-10.1289,-10.1289,-10.1289,-10.1289,-10.1289,-10.1289,-10.1289,-10.1289,-10.1289,-10.1289,-10.1289,-10.1289,-10.1289,-10.1289,-10.1289,-10.1289,-10.1289,-10.1289,-10.1289,-10.1289,-10.1289,-10.1289,-10.1289,-10.289,-10.289,-10.289,-10.289,-10.289,-10.289,-10.289,-10.289,-10.289,-10.289,-10.289,-10.289,-10.289,-10.289,-10.289,-10.289,-10.289,-10.289,-10.289,-10.289,-10.289,-10.289,-10.289,-10.289,-10.289,-10.289,-10.289,-10.289,-10.289,-10.289,-10.289,-10.289,-10.289,-10.289,-10.289,-10.289,-10.289,-10.289,-10.289,-10.289,-10.289,-10.2927,-10.2878,-10.2816,-10.2709,-10.2599,-10.2431,-10.2249,-10.2043,-10.1771,-10.1637,-10.1496,-10.1308,-10.1289,-10.1289,-10.1289,-10.1289,-10.1289,-10.1289,-10.1289,-10.1289,-10.1289,-10.1289,-10.1289,-10.1289,-10.1289,-10.1289,-10.1289,-10.1289,-10.1289,-10.1289,-10.1289,-10.1289,-10.1289,-10.1289,-10.1289,-10.1289,-10.1289,-10.1289,-10.1289,-10.1289,-10.1289,-10.1289,-10.1289,-10.1289,-10.1289,-10.1289,-10.1289,-10.1289,-10.1289,-10.1289,-10.1289,-10.1289,-10.1289,-10.1289,-10.1289,-10.1289,-10.1289,-10.1289,-10.1289,-10.1289,-10.1289,-10.1289,-10.1289,-10.1289,-10.1289,-10.1289,-10.1289,-10.1289,-10.1289,-10.1289,-10.1289,-10.1289,-10.1289,-10.1289,-10.289,-10.289,-10.289,-10.289,-10.289,-10.289,-10.289,-10.289,-10.289,-10.289,-10.289,-10.289,-10.289,-10.289,-10.289,-10.289,-10.289,-10.289,-10.289,-10.289,-10.289,-10.289,-10.289,-10.289,-10.289,-10.289,-10.289,-10.289,-10.289,-10.289,-10.289,-10.289,-10.289,-10.289,-10.289,-10.289,-10.289,-10.289,-10.289,-10.289,-10.289,-10.2928,-10.2883,-10.2868,-10.2793,-10.2722,-10.2609,-10.2328,-10.2112,-10.1912,-10.1705,-10.1496,-10.1328,-10.1289,-10.1289,-10.1289,-10.1289,-10.1289,-10.1289,-10.1289,-10.1289,-10.1289,-10.1289,-10.1289,-10.1289,-10.1289,-10.1289,-10.1289,-10.1289,-10.1289,-10.1289,-10.1289,-10.1289,-10.1289,-10.1289,-10.1289,-10.1289,-10.1289,-10.1289,-10.1289,-10.1289,-10.1289,-10.1289,-10.1289,-10.1289,-10.1289,-10.1289,-10.1289,-10.1289,-10.1289,-10.1289,-10.1289,-10.1289,-10.1289,-10.1289,-10.1289,-10.1289,-10.1289,-10.1289,-10.1289,-10.1289,-10.1289,-10.1289,-10.1289,-10.1289,-10.1289,-10.1289,-10.1289,-10.1289,-10.1289,-10.1289,-10.1289,-10.1289,-10.1289,-10.1289,-10.289,-10.289,-10.289,-10.289,-10.289,-10.289,-10.289,-10.289,-10.289,-10.289,-10.289,-10.289,-10.289,-10.289,-10.289,-10.289,-10.289,-10.289,-10.289,-10.289,-10.289,-10.289,-10.289,-10.289,-10.289,-10.289,-10.289,-10.289,-10.289,-10.289,-10.289,-10.289,-10.289,-10.289,-10.289,-10.289,-10.289,-10.289,-10.289,-10.289,-10.289,-10.2929,-10.2924,-10.2914,-10.2852,-10.2763,-10.2698,-10.2401,-10.2177,-10.1976,-10.1722,-10.1459,-10.1308,-10.1289,-10.1289,-10.1289,-10.1289,-10.1289,-10.1289,-10.1289,-10.1289,-10.1289,-10.1289,-10.1289,-10.1289,-10.1289,-10.1289,-10.1289,-10.1289,-10.1289,-10.1289,-10.1289,-10.1289,-10.1289,-10.1289,-10.1289,-10.1289,-10.1289,-10.1289,-10.1289,-10.1289,-10.1289,-10.1289,-10.1289,-10.1289,-10.1289,-10.1289,-10.1289,-10.1289,-10.1289,-10.1289,-10.1289,-10.1289,-10.1289,-10.1289,-10.1289,-10.1289,-10.1289,-10.1289,-10.1289,-10.1289,-10.1289,-10.1289,-10.1289,-10.1289,-10.1289,-10.1289,-10.1289,-10.1289,-10.1289,-10.1289,-10.1289,-10.1289,-10.1289,-10.1289,-10.289,-10.289,-10.289,-10.289,-10.289,-10.289,-10.289,-10.289,-10.289,-10.289,-10.289,-10.289,-10.289,-10.289,-10.289,-10.289,-10.289,-10.289,-10.289,-10.289,-10.289,-10.289,-10.289,-10.289,-10.289,-10.289,-10.289,-10.289,-10.289,-10.289,-10.289,-10.289,-10.289,-10.289,-10.289,-10.289,-10.289,-10.289,-10.289,-10.289,-10.289,-10.289,-10.2928,-10.2916,-10.2863,-10.2785,-10.2679,-10.2477,-10.2233,-10.1993,-10.1688,-10.1461,-10.1308,-10.1289,-10.1289,-10.1289,-10.1289,-10.1289,-10.1289,-10.1289,-10.1289,-10.1289,-10.1289,-10.1289,-10.1289,-10.1289,-10.1289,-10.1289,-10.1289,-10.1289,-10.1289,-10.1289,-10.1289,-10.1289,-10.1289,-10.1289,-10.1289,-10.1289,-10.1289,-10.1289,-10.1289,-10.1289,-10.1289,-10.1289,-10.1289,-10.1289,-10.1289,-10.1289,-10.1289,-10.1289,-10.1289,-10.1289,-10.1289,-10.1289,-10.1289,-10.1289,-10.1289,-10.1289,-10.1289,-10.1289,-10.1289,-10.1289,-10.1289,-10.1289,-10.1289,-10.1289,-10.1289,-10.1289,-10.1289,-10.1289,-10.1289,-10.1289,-10.1289,-10.1289,-10.1289,-10.289,-10.289,-10.289,-10.289,-10.289,-10.289,-10.289,-10.289,-10.289,-10.289,-10.289,-10.289,-10.289,-10.289,-10.289,-10.289,-10.289,-10.289,-10.289,-10.289,-10.289,-10.289,-10.289,-10.289,-10.289,-10.289,-10.289,-10.289,-10.289,-10.289,-10.289,-10.289,-10.289,-10.289,-10.289,-10.289,-10.289,-10.289,-10.289,-10.289,-10.289,-10.289,-10.289,-10.2884,-10.2877,-10.2807,-10.2683,-10.2468,-10.2151,-10.1812,-10.1671,-10.1498,-10.1308,-10.1289,-10.1289,-10.1289,-10.1289,-10.1289,-10.1289,-10.1289,-10.1289,-10.1289,-10.1289,-10.1289,-10.1289,-10.1289,-10.1289,-10.1289,-10.1289,-10.1289,-10.1289,-10.1289,-10.1289,-10.1289,-10.1289,-10.1289,-10.1289,-10.1289,-10.1289,-10.1289,-10.1289,-10.1289,-10.1289,-10.1289,-10.1289,-10.1289,-10.1289,-10.1289,-10.1289,-10.1289,-10.1289,-10.1289,-10.1289,-10.1289,-10.1289,-10.1289,-10.1289,-10.1289,-10.1289,-10.1289,-10.1289,-10.1289,-10.1289,-10.1289,-10.1289,-10.1289,-10.1289,-10.1289,-10.1289,-10.1289,-10.1289,-10.1289,-10.1289,-10.1289,-10.1289,-10.289,-10.289,-10.289,-10.289,-10.289,-10.289,-10.289,-10.289,-10.289,-10.289,-10.289,-10.289,-10.289,-10.289,-10.289,-10.289,-10.289,-10.289,-10.289,-10.289,-10.289,-10.289,-10.289,-10.289,-10.289,-10.289,-10.289,-10.289,-10.289,-10.289,-10.289,-10.289,-10.289,-10.289,-10.289,-10.289,-10.289,-10.289,-10.289,-10.289,-10.289,-10.289,-10.289,-10.2926,-10.2917,-10.2849,-10.2659,-10.2421,-10.2165,-10.1881,-10.1688,-10.1552,-10.1404,-10.1308,-10.1289,-10.1289,-10.1289,-10.1289,-10.1289,-10.1289,-10.1289,-10.1289,-10.1289,-10.1289,-10.1289,-10.1289,-10.1289,-10.1289,-10.1289,-10.1289,-10.1289,-10.1289,-10.1289,-10.1289,-10.1289,-10.1289,-10.1289,-10.1289,-10.1289,-10.1289,-10.1289,-10.1289,-10.1289,-10.1289,-10.1289,-10.1289,-10.1289,-10.1289,-10.1289,-10.1289,-10.1289,-10.1289,-10.1289,-10.1289,-10.1289,-10.1289,-10.1289,-10.1289,-10.1289,-10.1289,-10.1289,-10.1289,-10.1289,-10.1289,-10.1289,-10.1289,-10.1289,-10.1289,-10.1289,-10.1289,-10.1289,-10.1289,-10.1289,-10.1289,-10.1289,-10.289,-10.289,-10.289,-10.289,-10.289,-10.289,-10.289,-10.289,-10.289,-10.289,-10.289,-10.289,-10.289,-10.289,-10.289,-10.289,-10.289,-10.289,-10.289,-10.289,-10.289,-10.289,-10.289,-10.289,-10.289,-10.289,-10.289,-10.289,-10.289,-10.289,-10.289,-10.289,-10.289,-10.289,-10.289,-10.289,-10.289,-10.289,-10.289,-10.289,-10.289,-10.289,-10.289,-10.2927,-10.2877,-10.2828,-10.2646,-10.244,-10.2228,-10.2015,-10.1755,-10.1588,-10.1479,-10.1385,-10.1327,-10.1289,-10.1289,-10.1289,-10.1289,-10.1289,-10.1289,-10.1289,-10.1289,-10.1289,-10.1289,-10.1289,-10.1289,-10.1289,-10.1289,-10.1327,-10.1308,-10.1308,-10.1347,-10.1347,-10.1328,-10.1366,-10.1308,-10.1289,-10.1289,-10.1289,-10.1289,-10.1289,-10.1289,-10.1289,-10.1289,-10.1289,-10.1289,-10.1289,-10.1289,-10.1289,-10.1289,-10.1289,-10.1289,-10.1289,-10.1289,-10.1289,-10.1289,-10.1289,-10.1289,-10.1289,-10.1289,-10.1289,-10.1289,-10.1289,-10.1289,-10.1289,-10.1289,-10.1289,-10.1289,-10.1289,-10.1289,-10.1289,-10.1289,-10.1289,-10.1289,-10.289,-10.289,-10.289,-10.289,-10.289,-10.289,-10.289,-10.289,-10.289,-10.289,-10.289,-10.289,-10.289,-10.289,-10.289,-10.289,-10.289,-10.289,-10.289,-10.289,-10.289,-10.289,-10.289,-10.289,-10.289,-10.289,-10.289,-10.289,-10.289,-10.289,-10.289,-10.289,-10.289,-10.289,-10.289,-10.289,-10.289,-10.289,-10.289,-10.289,-10.289,-10.289,-10.289,-10.2928,-10.2877,-10.2781,-10.2666,-10.2477,-10.2306,-10.2086,-10.1835,-10.1606,-10.1498,-10.1385,-10.1327,-10.1289,-10.1289,-10.1289,-10.1289,-10.1289,-10.1289,-10.1289,-10.1289,-10.1289,-10.1289,-10.1289,-10.1289,-10.1289,-10.1289,-10.1366,-10.1442,-10.1516,-10.1514,-10.1514,-10.1514,-10.1514,-10.1496,-10.1385,-10.1308,-10.1327,-10.1289,-10.1289,-10.1289,-10.1289,-10.1289,-10.1289,-10.1289,-10.1289,-10.1289,-10.1289,-10.1289,-10.1289,-10.1289,-10.1289,-10.1289,-10.1289,-10.1289,-10.1289,-10.1289,-10.1289,-10.1289,-10.1289,-10.1289,-10.1289,-10.1289,-10.1289,-10.1289,-10.1289,-10.1289,-10.1289,-10.1289,-10.1289,-10.1289,-10.1289,-10.1289,-10.289,-10.289,-10.289,-10.289,-10.289,-10.289,-10.289,-10.289,-10.289,-10.289,-10.289,-10.289,-10.289,-10.289,-10.289,-10.289,-10.289,-10.289,-10.289,-10.289,-10.289,-10.289,-10.289,-10.289,-10.289,-10.289,-10.289,-10.289,-10.289,-10.289,-10.289,-10.289,-10.289,-10.289,-10.289,-10.289,-10.289,-10.289,-10.289,-10.289,-10.289,-10.289,-10.2929,-10.2889,-10.2834,-10.2785,-10.2686,-10.2504,-10.236,-10.2177,-10.1927,-10.1693,-10.1552,-10.1461,-10.1385,-10.1327,-10.1289,-10.1289,-10.1289,-10.1289,-10.1308,-10.1385,-10.1385,-10.1423,-10.1404,-10.1422,-10.1422,-10.1422,-10.1441,-10.1498,-10.1552,-10.1585,-10.1637,-10.1654,-10.1654,-10.1654,-10.162,-10.1478,-10.1404,-10.1385,-10.1347,-10.1289,-10.1289,-10.1289,-10.1289,-10.1289,-10.1289,-10.1289,-10.1289,-10.1289,-10.1289,-10.1289,-10.1289,-10.1289,-10.1289,-10.1289,-10.1289,-10.1289,-10.1289,-10.1289,-10.1289,-10.1289,-10.1289,-10.1289,-10.1289,-10.1289,-10.1289,-10.1289,-10.1289,-10.1289,-10.1289,-10.1289,-10.1289,-10.1289,-10.1289,-10.289,-10.289,-10.289,-10.289,-10.289,-10.289,-10.289,-10.289,-10.289,-10.289,-10.289,-10.289,-10.289,-10.289,-10.289,-10.289,-10.289,-10.289,-10.289,-10.289,-10.289,-10.289,-10.289,-10.289,-10.289,-10.289,-10.289,-10.289,-10.289,-10.289,-10.289,-10.289,-10.289,-10.289,-10.289,-10.289,-10.289,-10.289,-10.289,-10.289,-10.289,-10.289,-10.289,-10.2886,-10.2873,-10.28,-10.2722,-10.257,-10.2411,-10.2323,-10.2085,-10.1866,-10.1688,-10.1552,-10.1461,-10.1347,-10.1347,-10.1366,-10.1366,-10.1366,-10.1423,-10.1498,-10.1498,-10.1552,-10.1567,-10.1603,-10.1603,-10.1637,-10.1637,-10.1671,-10.1654,-10.1755,-10.1787,-10.1748,-10.1787,-10.1732,-10.1738,-10.1641,-10.157,-10.1461,-10.1404,-10.1366,-10.1289,-10.1289,-10.1289,-10.1289,-10.1289,-10.1289,-10.1289,-10.1289,-10.1289,-10.1289,-10.1289,-10.1289,-10.1289,-10.1289,-10.1289,-10.1289,-10.1289,-10.1289,-10.1289,-10.1289,-10.1289,-10.1289,-10.1289,-10.1289,-10.1289,-10.1289,-10.1289,-10.1289,-10.1289,-10.1289,-10.1289,-10.1289,-10.1212,-10.289,-10.289,-10.289,-10.289,-10.289,-10.289,-10.289,-10.289,-10.289,-10.289,-10.289,-10.289,-10.289,-10.289,-10.289,-10.289,-10.289,-10.289,-10.289,-10.289,-10.289,-10.289,-10.289,-10.289,-10.289,-10.289,-10.289,-10.289,-10.289,-10.289,-10.289,-10.289,-10.289,-10.289,-10.289,-10.289,-10.289,-10.289,-10.289,-10.289,-10.289,-10.289,-10.289,-10.2926,-10.2878,-10.2819,-10.2776,-10.2692,-10.2593,-10.2459,-10.2323,-10.2126,-10.1962,-10.1716,-10.1603,-10.155,-10.1532,-10.1532,-10.1532,-10.1532,-10.1588,-10.1606,-10.1624,-10.1659,-10.1727,-10.1799,-10.198,-10.2028,-10.2075,-10.2028,-10.1912,-10.2102,-10.2029,-10.2029,-10.2029,-10.2,-10.1942,-10.1873,-10.1727,-10.157,-10.1498,-10.1404,-10.1308,-10.1289,-10.1289,-10.1289,-10.1289,-10.1289,-10.1289,-10.1289,-10.1289,-10.1289,-10.1289,-10.1289,-10.1289,-10.1289,-10.1289,-10.1289,-10.1289,-10.1289,-10.1289,-10.1289,-10.1289,-10.1289,-10.1289,-10.1289,-10.1289,-10.1289,-10.1173,-10.1096,-10.1173,-10.125,-10.0904,-10.0635,-10.0866,-10.289,-10.289,-10.289,-10.289,-10.289,-10.289,-10.289,-10.289,-10.289,-10.289,-10.289,-10.289,-10.289,-10.289,-10.289,-10.289,-10.289,-10.289,-10.289,-10.289,-10.289,-10.289,-10.289,-10.289,-10.289,-10.289,-10.289,-10.289,-10.289,-10.289,-10.289,-10.289,-10.289,-10.289,-10.289,-10.289,-10.2929,-10.2929,-10.2969,-10.2969,-10.2969,-10.2969,-10.2929,-10.2929,-10.2924,-10.2873,-10.2803,-10.2714,-10.2634,-10.253,-10.2411,-10.2306,-10.2228,-10.2137,-10.1912,-10.1826,-10.1738,-10.1683,-10.1722,-10.1722,-10.1755,-10.1787,-10.1842,-10.2137,-10.2445,-10.2698,-10.2804,-10.3209,-10.3366,-10.3238,-10.285,-10.2875,-10.2667,-10.233,-10.2279,-10.2254,-10.2138,-10.2043,-10.1866,-10.171,-10.157,-10.1461,-10.1308,-10.1289,-10.1289,-10.1289,-10.1289,-10.1289,-10.1289,-10.1289,-10.1289,-10.1289,-10.1289,-10.1289,-10.1289,-10.1289,-10.1289,-10.1289,-10.1289,-10.1289,-10.1289,-10.1289,-10.1289,-10.1289,-10.1289,-10.1289,-10.1289,-10.1289,-10.1058,-10.0827,-10.0712,-10.0558,-10.0135,-9.9981,-10.0212,-10.289,-10.289,-10.289,-10.289,-10.289,-10.289,-10.289,-10.289,-10.289,-10.289,-10.289,-10.289,-10.289,-10.289,-10.289,-10.289,-10.289,-10.289,-10.289,-10.289,-10.289,-10.289,-10.289,-10.289,-10.289,-10.289,-10.289,-10.289,-10.289,-10.289,-10.289,-10.289,-10.289,-10.3047,-10.3164,-10.332,-10.3203,-10.3398,-10.3398,-10.3398,-10.3437,-10.3437,-10.3437,-10.3437,-10.3397,-10.3467,-10.353,-10.353,-10.3441,-10.3322,-10.32,-10.3034,-10.2995,-10.2905,-10.2742,-10.2472,-10.2155,-10.1918,-10.1888,-10.2189,-10.2335,-10.2402,-10.2508,-10.3056,-10.3509,-10.3842,-10.4071,-10.4689,-10.4789,-10.4516,-10.3933,-10.3926,-10.3558,-10.3014,-10.2721,-10.2572,-10.2327,-10.2177,-10.2029,-10.1889,-10.1676,-10.1516,-10.1423,-10.1289,-10.1289,-10.1289,-10.1289,-10.1289,-10.1289,-10.1289,-10.1289,-10.1289,-10.1289,-10.1289,-10.1289,-10.1289,-10.1289,-10.1289,-10.1289,-10.1289,-10.1289,-10.1289,-10.1289,-10.1289,-10.1289,-10.1289,-10.1289,-10.1212,-10.0981,-10.0673,-10.0289,-9.9904,-9.9558,-9.9327,-9.9365,-10.289,-10.289,-10.289,-10.289,-10.289,-10.289,-10.289,-10.289,-10.289,-10.289,-10.289,-10.289,-10.289,-10.289,-10.289,-10.289,-10.289,-10.289,-10.289,-10.289,-10.289,-10.289,-10.289,-10.289,-10.289,-10.289,-10.289,-10.289,-10.289,-10.289,-10.2969,-10.2969,-10.3125,-10.3281,-10.4023,-10.4062,-10.4453,-10.5,-10.5117,-10.5078,-10.5039,-10.5039,-10.5039,-10.5039,-10.4998,-10.4878,-10.4755,-10.4729,-10.4776,-10.4836,-10.4837,-10.4829,-10.4853,-10.4822,-10.4758,-10.425,-10.3361,-10.2228,-10.2423,-10.2953,-10.3276,-10.347,-10.3871,-10.4471,-10.4793,-10.5008,-10.5131,-10.4984,-10.5148,-10.5148,-10.4992,-10.4962,-10.4494,-10.401,-10.3534,-10.3073,-10.2632,-10.2284,-10.2177,-10.201,-10.1809,-10.1641,-10.1498,-10.1366,-10.1289,-10.1289,-10.1289,-10.1289,-10.1289,-10.1289,-10.1289,-10.1289,-10.1289,-10.1289,-10.1289,-10.1289,-10.1289,-10.1289,-10.1289,-10.1289,-10.1289,-10.1289,-10.1289,-10.1289,-10.1289,-10.1289,-10.1289,-10.1135,-10.0866,-10.0327,-9.9673,-9.9288,-9.9019,-9.8788,-9.8442,-10.289,-10.289,-10.289,-10.289,-10.289,-10.289,-10.289,-10.289,-10.289,-10.289,-10.289,-10.289,-10.289,-10.289,-10.289,-10.289,-10.289,-10.289,-10.289,-10.289,-10.289,-10.289,-10.289,-10.289,-10.289,-10.289,-10.289,-10.289,-10.289,-10.2969,-10.3086,-10.3554,-10.3672,-10.4101,-10.4844,-10.4922,-10.5117,-10.5351,-10.5469,-10.5508,-10.5508,-10.5508,-10.5547,-10.5547,-10.5547,-10.5506,-10.5502,-10.5419,-10.5402,-10.5387,-10.5314,-10.5295,-10.5241,-10.5213,-10.5195,-10.511,-10.4534,-10.4044,-10.3947,-10.423,-10.4326,-10.4453,-10.4834,-10.5164,-10.5741,-10.6278,-10.6599,-10.6716,-10.6695,-10.6467,-10.6038,-10.5966,-10.5447,-10.4928,-10.4395,-10.3817,-10.3187,-10.2586,-10.2272,-10.2086,-10.1897,-10.1738,-10.155,-10.1442,-10.1347,-10.1289,-10.1289,-10.1289,-10.1289,-10.1289,-10.1289,-10.1289,-10.1289,-10.1289,-10.1289,-10.1289,-10.1289,-10.1289,-10.1289,-10.1289,-10.1289,-10.1289,-10.1289,-10.1289,-10.1289,-10.1289,-10.1289,-10.0904,-10.0481,-9.975,-9.8981,-9.8519,-9.8057,-9.748,-9.7211,-10.289,-10.289,-10.289,-10.289,-10.289,-10.289,-10.289,-10.289,-10.289,-10.289,-10.289,-10.289,-10.289,-10.289,-10.289,-10.289,-10.289,-10.289,-10.289,-10.289,-10.289,-10.289,-10.289,-10.289,-10.289,-10.289,-10.289,-10.289,-10.3008,-10.3203,-10.3633,-10.4219,-10.4414,-10.4961,-10.5586,-10.582,-10.5937,-10.6328,-10.6328,-10.6289,-10.6289,-10.625,-10.6211,-10.6211,-10.6133,-10.6093,-10.6053,-10.6129,-10.6161,-10.6153,-10.6219,-10.6246,-10.6197,-10.6228,-10.622,-10.6211,-10.5987,-10.5915,-10.5733,-10.5703,-10.5515,-10.5515,-10.5796,-10.6306,-10.6773,-10.7598,-10.7894,-10.7699,-10.7708,-10.7407,-10.7137,-10.6942,-10.6466,-10.5825,-10.5187,-10.4589,-10.3978,-10.3292,-10.2614,-10.2189,-10.2029,-10.1796,-10.1654,-10.1498,-10.1385,-10.1289,-10.1289,-10.1289,-10.1289,-10.1289,-10.1289,-10.1289,-10.1289,-10.1289,-10.1289,-10.1289,-10.1289,-10.1289,-10.1289,-10.1289,-10.1289,-10.1289,-10.1289,-10.1289,-10.1289,-10.1289,-10.1289,-10.0712,-10.0096,-9.9404,-9.8673,-9.7673,-9.7019,-9.648,-9.6326,-10.289,-10.289,-10.289,-10.289,-10.289,-10.289,-10.289,-10.289,-10.289,-10.289,-10.289,-10.289,-10.289,-10.289,-10.289,-10.289,-10.289,-10.289,-10.289,-10.289,-10.289,-10.289,-10.289,-10.289,-10.289,-10.289,-10.289,-10.289,-10.3164,-10.3828,-10.4062,-10.4297,-10.5039,-10.582,-10.6367,-10.664,-10.6953,-10.7304,-10.7461,-10.7539,-10.7578,-10.7578,-10.7617,-10.7656,-10.7734,-10.7812,-10.7773,-10.7576,-10.7497,-10.7454,-10.7411,-10.7446,-10.7325,-10.736,-10.7357,-10.7354,-10.7343,-10.7325,-10.7226,-10.6791,-10.6514,-10.667,-10.7019,-10.7387,-10.7633,-10.7817,-10.7984,-10.7984,-10.7987,-10.795,-10.7833,-10.7794,-10.7245,-10.6769,-10.6008,-10.5309,-10.4628,-10.3925,-10.3256,-10.2517,-10.21,-10.1918,-10.1755,-10.1588,-10.1404,-10.1347,-10.1289,-10.1289,-10.1289,-10.1289,-10.1289,-10.1289,-10.1289,-10.1289,-10.1289,-10.1289,-10.1289,-10.1289,-10.1289,-10.1289,-10.1289,-10.1289,-10.1289,-10.1289,-10.1289,-10.1289,-10.1289,-10.0943,-10.0366,-9.9327,-9.8365,-9.7519,-9.6826,-9.6403,-9.6288,-10.289,-10.289,-10.289,-10.289,-10.289,-10.289,-10.289,-10.289,-10.289,-10.289,-10.289,-10.289,-10.289,-10.289,-10.289,-10.289,-10.289,-10.289,-10.289,-10.289,-10.289,-10.289,-10.289,-10.289,-10.289,-10.289,-10.289,-10.289,-10.3047,-10.414,-10.4844,-10.5273,-10.5742,-10.6679,-10.7226,-10.7422,-10.7695,-10.7812,-10.8008,-10.8008,-10.8008,-10.8008,-10.8008,-10.8008,-10.8008,-10.8008,-10.7969,-10.8008,-10.8007,-10.8008,-10.8008,-10.8008,-10.8008,-10.8001,-10.8,-10.8,-10.7991,-10.8026,-10.7982,-10.7648,-10.7473,-10.7481,-10.7769,-10.7979,-10.8026,-10.7995,-10.8,-10.8001,-10.8008,-10.8008,-10.8008,-10.7969,-10.773,-10.7453,-10.6893,-10.6087,-10.5226,-10.446,-10.3536,-10.2625,-10.2291,-10.2057,-10.1866,-10.1693,-10.1516,-10.1366,-10.1327,-10.1289,-10.1289,-10.1289,-10.1289,-10.1289,-10.1289,-10.1289,-10.1289,-10.1289,-10.1289,-10.1289,-10.1289,-10.1289,-10.1289,-10.1289,-10.1289,-10.1289,-10.1289,-10.1289,-10.1289,-10.1289,-10.0712,-9.975,-9.8596,-9.7442,-9.6865,-9.6403,-9.6326,-10.289,-10.289,-10.289,-10.289,-10.289,-10.289,-10.289,-10.289,-10.289,-10.289,-10.289,-10.289,-10.289,-10.289,-10.289,-10.289,-10.289,-10.289,-10.289,-10.289,-10.289,-10.289,-10.289,-10.289,-10.289,-10.289,-10.289,-10.289,-10.2969,-10.4414,-10.4804,-10.5234,-10.6172,-10.707,-10.7773,-10.8008,-10.8008,-10.8008,-10.8008,-10.8008,-10.8008,-10.8008,-10.8008,-10.8008,-10.8008,-10.8008,-10.8008,-10.8008,-10.8008,-10.8008,-10.8008,-10.8008,-10.8008,-10.8007,-10.8008,-10.8008,-10.8008,-10.8008,-10.8008,-10.8028,-10.8023,-10.7911,-10.7915,-10.7997,-10.8008,-10.8008,-10.8005,-10.8006,-10.8008,-10.8008,-10.8008,-10.8008,-10.8008,-10.7693,-10.7532,-10.6813,-10.5689,-10.4783,-10.3712,-10.272,-10.2456,-10.2164,-10.1942,-10.1722,-10.1516,-10.1366,-10.1289,-10.1289,-10.1289,-10.1289,-10.1289,-10.1289,-10.1289,-10.1289,-10.1289,-10.1289,-10.1289,-10.1289,-10.1289,-10.1289,-10.1289,-10.1289,-10.1289,-10.1289,-10.1289,-10.1289,-10.1289,-10.1289,-10.0827,-10.0173,-9.9058,-9.7904,-9.7288,-9.6865,-9.6557,-10.289,-10.289,-10.289,-10.289,-10.289,-10.289,-10.289,-10.2929,-10.3008,-10.3086,-10.3164,-10.3164,-10.3164,-10.3125,-10.3242,-10.3125,-10.3047,-10.2969,-10.289,-10.289,-10.289,-10.289,-10.289,-10.289,-10.289,-10.289,-10.289,-10.289,-10.2929,-10.3984,-10.4336,-10.4804,-10.5781,-10.7031,-10.789,-10.8008,-10.8008,-10.8008,-10.8008,-10.8008,-10.8008,-10.8008,-10.8008,-10.8008,-10.8008,-10.8008,-10.8008,-10.8008,-10.8008,-10.8008,-10.8008,-10.8008,-10.8008,-10.8008,-10.8008,-10.8008,-10.8008,-10.8008,-10.8008,-10.8008,-10.7998,-10.8002,-10.8003,-10.8004,-10.8008,-10.8008,-10.8008,-10.8008,-10.8008,-10.8008,-10.8008,-10.8008,-10.8008,-10.7968,-10.7809,-10.718,-10.6027,-10.5209,-10.4154,-10.2959,-10.2546,-10.2278,-10.1993,-10.1732,-10.1514,-10.1385,-10.1289,-10.1289,-10.1289,-10.1289,-10.1289,-10.1289,-10.1289,-10.1289,-10.1289,-10.1289,-10.1289,-10.1289,-10.1289,-10.1289,-10.1289,-10.1289,-10.1289,-10.1289,-10.1289,-10.1289,-10.1289,-10.1289,-10.0904,-10.0481,-9.9596,-9.8634,-9.7942,-9.7442,-9.725,-10.289,-10.289,-10.289,-10.289,-10.289,-10.289,-10.289,-10.3008,-10.3515,-10.4062,-10.4531,-10.4609,-10.4648,-10.4492,-10.3945,-10.3672,-10.3633,-10.3008,-10.289,-10.289,-10.289,-10.289,-10.289,-10.289,-10.289,-10.289,-10.289,-10.289,-10.2929,-10.3711,-10.4101,-10.457,-10.5312,-10.664,-10.7617,-10.8008,-10.8008,-10.8008,-10.8008,-10.8008,-10.8008,-10.8008,-10.8008,-10.8008,-10.8008,-10.8008,-10.8008,-10.8008,-10.8008,-10.8008,-10.8008,-10.8008,-10.8008,-10.8008,-10.8008,-10.8008,-10.8008,-10.8008,-10.8008,-10.8007,-10.8007,-10.8008,-10.8008,-10.8008,-10.8008,-10.8008,-10.8008,-10.8008,-10.8008,-10.8008,-10.8008,-10.8008,-10.8008,-10.8008,-10.7693,-10.6949,-10.6038,-10.5543,-10.4705,-10.3336,-10.253,-10.2295,-10.2004,-10.1812,-10.1603,-10.1442,-10.1347,-10.1289,-10.1289,-10.1289,-10.1289,-10.1289,-10.1289,-10.1289,-10.1289,-10.1289,-10.1289,-10.1289,-10.1289,-10.1289,-10.1289,-10.1289,-10.1289,-10.1289,-10.1289,-10.1289,-10.1289,-10.1289,-10.1212,-10.0789,-10.0058,-9.9365,-9.8673,-9.8365,-9.8288,-10.289,-10.2929,-10.3242,-10.3359,-10.3359,-10.3359,-10.3476,-10.3867,-10.4414,-10.5,-10.539,-10.5469,-10.5469,-10.5195,-10.4648,-10.4179,-10.4101,-10.332,-10.289,-10.289,-10.289,-10.289,-10.289,-10.289,-10.289,-10.289,-10.289,-10.289,-10.289,-10.3437,-10.3867,-10.4258,-10.4765,-10.5742,-10.6719,-10.7226,-10.7695,-10.7812,-10.8008,-10.8008,-10.8008,-10.8008,-10.8008,-10.8008,-10.8008,-10.8008,-10.8008,-10.8008,-10.8008,-10.8008,-10.8008,-10.8008,-10.8008,-10.8008,-10.8008,-10.8008,-10.8008,-10.8008,-10.8008,-10.8008,-10.8008,-10.8008,-10.8008,-10.8008,-10.8008,-10.8008,-10.8008,-10.8008,-10.8008,-10.8008,-10.8008,-10.8008,-10.8008,-10.8008,-10.7695,-10.6953,-10.597,-10.5441,-10.4709,-10.3357,-10.2655,-10.2367,-10.2135,-10.1881,-10.1705,-10.155,-10.1442,-10.1385,-10.1327,-10.1289,-10.1289,-10.1289,-10.1289,-10.1289,-10.1289,-10.1289,-10.1289,-10.1289,-10.1289,-10.1289,-10.1289,-10.1289,-10.1289,-10.1289,-10.1289,-10.1289,-10.1289,-10.1289,-10.1327,-10.1212,-10.0827,-10.0135,-9.9404,-9.925,-9.9211,-10.289,-10.3086,-10.3867,-10.4219,-10.4219,-10.4336,-10.4804,-10.5469,-10.5547,-10.5586,-10.5664,-10.5781,-10.5898,-10.5547,-10.4726,-10.4336,-10.4101,-10.3359,-10.3008,-10.289,-10.289,-10.289,-10.289,-10.289,-10.289,-10.289,-10.289,-10.289,-10.289,-10.3086,-10.3476,-10.3867,-10.4062,-10.4804,-10.5547,-10.6172,-10.6914,-10.7422,-10.7695,-10.7812,-10.7929,-10.8008,-10.8008,-10.8008,-10.8008,-10.8008,-10.8008,-10.8008,-10.8008,-10.8008,-10.8008,-10.8008,-10.8008,-10.8008,-10.8008,-10.8008,-10.8008,-10.8008,-10.8008,-10.8008,-10.8008,-10.8008,-10.8008,-10.8008,-10.8008,-10.8008,-10.8008,-10.8008,-10.8008,-10.8008,-10.8008,-10.8008,-10.8008,-10.7929,-10.7851,-10.6953,-10.5781,-10.5027,-10.4306,-10.3518,-10.3037,-10.2741,-10.2577,-10.2325,-10.2383,-10.2023,-10.1863,-10.1558,-10.1462,-10.1289,-10.1289,-10.1289,-10.1289,-10.1289,-10.1289,-10.1289,-10.1289,-10.1289,-10.1289,-10.1289,-10.1289,-10.1289,-10.1289,-10.1289,-10.1289,-10.1289,-10.1289,-10.1404,-10.152,-10.1443,-10.1597,-10.1058,-10.0404,-10.0173,-10.0019,-10.3242,-10.3828,-10.4101,-10.4531,-10.5156,-10.5742,-10.6133,-10.6328,-10.6367,-10.664,-10.7265,-10.7265,-10.7109,-10.7148,-10.5781,-10.5234,-10.4531,-10.3789,-10.3086,-10.289,-10.289,-10.289,-10.289,-10.289,-10.289,-10.2929,-10.2929,-10.2929,-10.2929,-10.2929,-10.2929,-10.3242,-10.3398,-10.3906,-10.4375,-10.4844,-10.5859,-10.6719,-10.7031,-10.7461,-10.7812,-10.7969,-10.7969,-10.8008,-10.8008,-10.8008,-10.8008,-10.8008,-10.8008,-10.8008,-10.8008,-10.8008,-10.8008,-10.8008,-10.8008,-10.8008,-10.8008,-10.8008,-10.8008,-10.8008,-10.8008,-10.8008,-10.8008,-10.8008,-10.8008,-10.8008,-10.8008,-10.8008,-10.8008,-10.8008,-10.8008,-10.8008,-10.789,-10.7734,-10.75,-10.664,-10.5547,-10.476,-10.4083,-10.3616,-10.3145,-10.3339,-10.3166,-10.3417,-10.3421,-10.2859,-10.2339,-10.1961,-10.1597,-10.1443,-10.1289,-10.1289,-10.1289,-10.1289,-10.1289,-10.1289,-10.1289,-10.1289,-10.1289,-10.1289,-10.1289,-10.1289,-10.1289,-10.1443,-10.1673,-10.1558,-10.1289,-10.1597,-10.2212,-10.252,-10.2597,-10.202,-10.152,-10.1212,-10.0981,-10.3398,-10.4219,-10.4609,-10.539,-10.6445,-10.7031,-10.7226,-10.7226,-10.7226,-10.7539,-10.7969,-10.7969,-10.8008,-10.7656,-10.6289,-10.5429,-10.5273,-10.3711,-10.289,-10.289,-10.289,-10.289,-10.289,-10.2969,-10.3164,-10.3164,-10.3164,-10.3125,-10.3203,-10.3008,-10.2929,-10.2969,-10.289,-10.3203,-10.3594,-10.3867,-10.4453,-10.5508,-10.6328,-10.6914,-10.7383,-10.7812,-10.7969,-10.8008,-10.8008,-10.8008,-10.8008,-10.8008,-10.8008,-10.8008,-10.8008,-10.8008,-10.8008,-10.8008,-10.8008,-10.8008,-10.8008,-10.8008,-10.8008,-10.8008,-10.8008,-10.8008,-10.8008,-10.8008,-10.8008,-10.8008,-10.8008,-10.8008,-10.8008,-10.8008,-10.8008,-10.7969,-10.7734,-10.75,-10.6875,-10.6211,-10.539,-10.4609,-10.4046,-10.3581,-10.3613,-10.3893,-10.4138,-10.4441,-10.4387,-10.3665,-10.2992,-10.2461,-10.1982,-10.1558,-10.1404,-10.1289,-10.1289,-10.1289,-10.1289,-10.1289,-10.1289,-10.1289,-10.1289,-10.1289,-10.1327,-10.1443,-10.1558,-10.1904,-10.2251,-10.2212,-10.2251,-10.2635,-10.3174,-10.3405,-10.352,-10.3174,-10.2635,-10.2174,-10.1943,-10.3515,-10.4414,-10.5312,-10.6562,-10.7851,-10.7929,-10.7929,-10.8008,-10.7929,-10.8008,-10.8008,-10.8008,-10.8008,-10.7695,-10.6289,-10.5547,-10.5,-10.375,-10.289,-10.289,-10.289,-10.2969,-10.3164,-10.3086,-10.3672,-10.3789,-10.3828,-10.375,-10.3789,-10.3554,-10.3164,-10.2929,-10.289,-10.3047,-10.3086,-10.3125,-10.3594,-10.4258,-10.5469,-10.6367,-10.6875,-10.7422,-10.7929,-10.8008,-10.8008,-10.8008,-10.8008,-10.8008,-10.8008,-10.8008,-10.8008,-10.8008,-10.8008,-10.8008,-10.8008,-10.8008,-10.8008,-10.8008,-10.8008,-10.8008,-10.8008,-10.8008,-10.8008,-10.8008,-10.8008,-10.8008,-10.8008,-10.8008,-10.8008,-10.7734,-10.7656,-10.7539,-10.7304,-10.6758,-10.6054,-10.5469,-10.4804,-10.4219,-10.3855,-10.3662,-10.4104,-10.4432,-10.5067,-10.5396,-10.5352,-10.4542,-10.3953,-10.3308,-10.2694,-10.2155,-10.1712,-10.152,-10.1366,-10.1366,-10.1289,-10.1289,-10.1289,-10.1289,-10.1443,-10.1558,-10.1789,-10.1827,-10.1904,-10.2404,-10.2981,-10.3366,-10.3558,-10.3789,-10.3943,-10.4097,-10.4174,-10.4174,-10.3828,-10.3366,-10.2904,-10.4414,-10.5351,-10.6758,-10.7656,-10.7969,-10.8008,-10.8008,-10.8008,-10.8008,-10.8008,-10.8008,-10.8008,-10.8008,-10.7734,-10.625,-10.5508,-10.5117,-10.3789,-10.3086,-10.2969,-10.2969,-10.3359,-10.3789,-10.3867,-10.4414,-10.4883,-10.4922,-10.457,-10.4297,-10.3945,-10.3476,-10.3008,-10.2929,-10.289,-10.289,-10.289,-10.3125,-10.3476,-10.4258,-10.5547,-10.6445,-10.6836,-10.7226,-10.7695,-10.7969,-10.8008,-10.8008,-10.8008,-10.8008,-10.8008,-10.8008,-10.8008,-10.8008,-10.8008,-10.8008,-10.8008,-10.8008,-10.8008,-10.8008,-10.8008,-10.8008,-10.8008,-10.8008,-10.8008,-10.8008,-10.8008,-10.8008,-10.8008,-10.7851,-10.7539,-10.7265,-10.707,-10.6719,-10.5976,-10.5312,-10.4765,-10.4219,-10.3906,-10.3554,-10.4059,-10.4583,-10.5194,-10.5844,-10.6099,-10.607,-10.5759,-10.5259,-10.4655,-10.3906,-10.3271,-10.2366,-10.2058,-10.152,-10.1404,-10.1404,-10.1673,-10.1866,-10.1943,-10.2097,-10.2212,-10.2289,-10.2712,-10.3135,-10.3366,-10.3751,-10.4174,-10.4482,-10.4559,-10.4713,-10.4828,-10.5059,-10.5174,-10.5174,-10.4828,-10.4251,-10.4922,-10.6133,-10.7422,-10.8008,-10.8008,-10.8008,-10.8008,-10.8008,-10.8008,-10.8008,-10.8008,-10.8008,-10.8008,-10.7734,-10.625,-10.5508,-10.5195,-10.3672,-10.3086,-10.2969,-10.332,-10.375,-10.414,-10.4648,-10.5312,-10.582,-10.5937,-10.5625,-10.4883,-10.4258,-10.3828,-10.3398,-10.3203,-10.289,-10.289,-10.289,-10.289,-10.2969,-10.3476,-10.4375,-10.5703,-10.6211,-10.6758,-10.7383,-10.7734,-10.7851,-10.8008,-10.8008,-10.8008,-10.8008,-10.8008,-10.8008,-10.8008,-10.8008,-10.8008,-10.8008,-10.8008,-10.8008,-10.8008,-10.8008,-10.8008,-10.8008,-10.8008,-10.8008,-10.8008,-10.8008,-10.8008,-10.7969,-10.7383,-10.7031,-10.6797,-10.6562,-10.582,-10.5078,-10.4687,-10.4258,-10.375,-10.3359,-10.3819,-10.474,-10.524,-10.5765,-10.6397,-10.6916,-10.6833,-10.6447,-10.6034,-10.5443,-10.4792,-10.433,-10.3463,-10.2866,-10.252,-10.2097,-10.2058,-10.2404,-10.2789,-10.2789,-10.2789,-10.3058,-10.3328,-10.3943,-10.4443,-10.4482,-10.4674,-10.5136,-10.5366,-10.5366,-10.552,-10.5713,-10.5982,-10.6213,-10.6174,-10.5982,-10.5443,-10.5351,-10.6875,-10.7695,-10.8008,-10.8008,-10.8008,-10.8008,-10.8008,-10.8008,-10.8008,-10.8008,-10.8008,-10.8008,-10.7461,-10.6328,-10.582,-10.4961,-10.3594,-10.3047,-10.332,-10.3828,-10.4414,-10.4922,-10.5351,-10.6093,-10.6601,-10.6836,-10.6328,-10.5664,-10.5,-10.4414,-10.4101,-10.3515,-10.289,-10.289,-10.289,-10.289,-10.289,-10.3164,-10.3398,-10.4414,-10.5508,-10.6093,-10.6719,-10.7304,-10.7773,-10.7812,-10.7969,-10.7969,-10.8008,-10.8008,-10.8008,-10.8008,-10.8008,-10.8008,-10.8008,-10.8008,-10.8008,-10.8008,-10.8008,-10.8008,-10.8008,-10.8008,-10.7969,-10.789,-10.7773,-10.7773,-10.7383,-10.6797,-10.6484,-10.6211,-10.5781,-10.4961,-10.4297,-10.4023,-10.3828,-10.3359,-10.2969,-10.3978,-10.5064,-10.5696,-10.6193,-10.6916,-10.7498,-10.7316,-10.6949,-10.6518,-10.5954,-10.5446,-10.512,-10.454,-10.4251,-10.4097,-10.3597,-10.2981,-10.3058,-10.352,-10.3558,-10.3597,-10.3943,-10.4328,-10.4943,-10.5328,-10.5366,-10.5636,-10.5828,-10.602,-10.6059,-10.6251,-10.629,-10.6328,-10.6405,-10.6367,-10.6251,-10.629,-10.6211,-10.7773,-10.7969,-10.8008,-10.8008,-10.8008,-10.8008,-10.8008,-10.8008,-10.8008,-10.8008,-10.8008,-10.8008,-10.789,-10.625,-10.5586,-10.539,-10.3867,-10.3633,-10.3984,-10.4375,-10.5156,-10.5859,-10.625,-10.6953,-10.7344,-10.7539,-10.7187,-10.6406,-10.5625,-10.4844,-10.4258,-10.3359,-10.2929,-10.289,-10.289,-10.289,-10.289,-10.289,-10.3086,-10.3281,-10.4219,-10.5,-10.5703,-10.6523,-10.6797,-10.7109,-10.7656,-10.789,-10.8008,-10.7969,-10.7929,-10.8008,-10.8008,-10.8008,-10.8008,-10.8008,-10.8008,-10.8008,-10.8008,-10.8008,-10.8008,-10.789,-10.7539,-10.7344,-10.6992,-10.6758,-10.6211,-10.5781,-10.5625,-10.5351,-10.4804,-10.4101,-10.3633,-10.3242,-10.3242,-10.3008,-10.3125,-10.3669,-10.4677,-10.5477,-10.6358,-10.7437,-10.7663,-10.7477,-10.7158,-10.6866,-10.6358,-10.6178,-10.5852,-10.552,-10.5443,-10.5328,-10.4751,-10.3982,-10.3866,-10.4135,-10.4212,-10.4443,-10.4866,-10.5328,-10.5905,-10.6174,-10.5982,-10.602,-10.6213,-10.6367,-10.6405,-10.6405,-10.6367,-10.6367,-10.6405,-10.6405,-10.6405,-10.6405]},{"header":{"parameterUnit":"m.s-1","parameterCategory":1,"la1":31.0,"la2":29.5877,"lo1":-88.7671,"lo2":-86.6584,"dx":0.0162,"dy":0.0185,"nx":115,"ny":88,"refTime":"2023-01-13T06:00:00:Z","depth":0,"parameterNumber":3,"parameterNumberName":"V-component_of_WINDS"},"data":[0.0,0.0,0.0,0.0,0.0,0.0,0.0,0.0,0.0,0.0,0.0,0.0,0.0,0.0,0.0,0.0,0.0,0.0,0.0,0.0,0.0,0.0,0.0,0.0,0.0,0.0,0.0,0.0,0.0,0.0,0.0,0.0,0.0,0.0,0.0,0.0,0.0,0.0,0.0,0.0,0.0,0.0,0.0,0.0,0.0,0.0,0.0,0.0,0.0,0.0,0.0,0.0,0.0,0.0,0.0,0.0,0.0,0.0,0.0,0.0,0.0,0.0,0.0,0.0,0.0,0.0,0.0,0.0,0.0,0.0,0.0,0.0,0.0,0.0,0.0,0.0,0.0,0.0,0.0,0.0,0.0,0.0,0.0,0.0,0.0,0.0,0.0,0.0,0.0,0.0,0.0,0.0,0.0,0.0,0.0,0.0,0.0,0.0,0.0,0.0,0.0,0.0,0.0,0.0,0.0,0.0,0.0,0.0,0.0,0.0,0.0,0.0,0.0,0.0,0.0,0.0,0.0,0.0,0.0,0.0,0.0,0.0,0.0,0.0,0.0,0.0,0.0,0.0,0.0,0.0,0.0,0.0,0.0,0.0,0.0,0.0,0.0,0.0,0.0,0.0,0.0,0.0,0.0,0.0,0.0,0.0,0.0,0.0,0.0,0.0,0.0,0.0,0.0,0.0,0.0,0.0,0.0,0.0,0.0,0.0,0.0,0.0,0.0,0.0,0.0,0.0,0.0,0.0,0.0,0.0,0.0,0.0,0.0,0.0,0.0,0.0,0.0,0.0,0.0,0.0,0.0,0.0,0.0,0.0,0.0,0.0,0.0,0.0,0.0,0.0,0.0,0.0,0.0,0.0,0.0,0.0,0.0,0.0,0.0,0.0,0.0,0.0,0.0,0.0,0.0,0.0,0.0,0.0,0.0,0.0,0.0,0.0,0.0,0.0,0.0,0.0,0.0,0.0,0.0,0.0,0.0,0.0,0.0,0.0,0.0,0.0,0.0,0.0,0.0,0.0,0.0,0.0,0.0,0.0,0.0,0.0,0.0,0.0,0.0,0.0,0.0,0.0,0.0,0.0,0.0,0.0,0.0,0.0,0.0,0.0,0.0,0.0,0.0,0.0,0.0,0.0,0.0,0.0,0.0,0.0,0.0,0.0,0.0,0.0,0.0,0.0,0.0,0.0,0.0,0.0,0.0,0.0,0.0,0.0,0.0,0.0,0.0,0.0,0.0,0.0,0.0,0.0,0.0,0.0,0.0,0.0,0.0,0.0,0.0,0.0,0.0,0.0,0.0,0.0,0.0,0.0,0.0,0.0,0.0,0.0,0.0,0.0,0.0,0.0,0.0,0.0,0.0,0.0,0.0,0.0,0.0,0.0,0.0,0.0,0.0,0.0,0.0,0.0,0.0,0.0,0.0,0.0,0.0,0.0,0.0,0.0,0.0,0.0,0.0,0.0,0.0,0.0,0.0,0.0,0.0,0.0,0.0,0.0,0.0,0.0,0.0,0.0,0.0,0.0,0.0,0.0,0.0,0.0,0.0,0.0,0.0,0.0,0.0,0.0,0.0,0.0,0.0,0.0,0.0,0.0,0.0,0.0,0.0,0.0,0.0,0.0,0.0,0.0,0.0,0.0,0.0,0.0,0.0,0.0,0.0,0.0,0.0,0.0,0.0,0.0,0.0,0.0,0.0,0.0,0.0,0.0,0.0,0.0,0.0,0.0,0.0,0.0,0.0,0.0,0.0,0.0,0.0,0.0,0.0,0.0,0.0,0.0,0.0,0.0,0.0,0.0,0.0,0.0,0.0,0.0,0.0,0.0,0.0,0.0,0.0,0.0,0.0,0.0,0.0,0.0,0.0,0.0,0.0,0.0,0.0,0.0,0.0,0.0,0.0,0.0,0.0,0.0,0.0,0.0,0.0,0.0,0.0,0.0,0.0,0.0,0.0,0.0,0.0,0.0,0.0,0.0,0.0,0.0,0.0,0.0,0.0,0.0,0.0,0.0,0.0,0.0,0.0,0.0,0.0,0.0,0.0,0.0,0.0,0.0,0.0,0.0,0.0,0.0,0.0,0.0,0.0,0.0,0.0,0.0,0.0,0.0,0.0,0.0,0.0,0.0,0.0,0.0,0.0,0.0,0.0,0.0,0.0,0.0,0.0,0.0,0.0,0.0,0.0,0.0,0.0,0.0,0.0,0.0,0.0,0.0,0.0,0.0,0.0,0.0,0.0,0.0,0.0,0.0,0.0,0.0,0.0,0.0,0.0,0.0,0.0,0.0,0.0,0.0,0.0,0.0,0.0,0.0,0.0,0.0,0.0,0.0,0.0,0.0,0.0,0.0,0.0,0.0,0.0,0.0,0.0,0.0,0.0,0.0,0.0,0.0,0.0,0.0,0.0,0.0,0.0,0.0,0.0,0.0,0.0,0.0,0.0,0.0,0.0,0.0,0.0,0.0,0.0,0.0,0.0,0.0,0.0,0.0,0.0,0.0,0.0,0.0,0.0,0.0,0.0,0.0,0.0,0.0,0.0,0.0,0.0,0.0,0.0,0.0,0.0,0.0,0.0,0.0,0.0,0.0,0.0,0.0,0.0,0.0,0.0,0.0,0.0,0.0,0.0,0.0,0.0,0.0,0.0,0.0,0.0,0.0,0.0,0.0,0.0,0.0,0.0,0.0,0.0,0.0,0.0,0.0,0.0,0.0,0.0,0.0,0.0,0.0,0.0,0.0,0.0,0.0,0.0,0.0,0.0,0.0,0.0,0.0,0.0,0.0,0.0,0.0,0.0,0.0,0.0,0.0,0.0,0.0,0.0,0.0,0.0,0.0,0.0,0.0,0.0,0.0,0.0,0.0,0.0,0.0,0.0,0.0,0.0,0.0,0.0,0.0,0.0,0.0,0.0,0.0,0.0,0.0,0.0,0.0,0.0,0.0,0.0,0.0,0.0,0.0,0.0,0.0,0.0,0.0,0.0,0.0,0.0,0.0,0.0,0.0,0.0,0.0,0.0,0.0,0.0,0.0,0.0,0.0,0.0,0.0,0.0,0.0,0.0,0.0,0.0,0.0,0.0,0.0,0.0,0.0,0.0,0.0,0.0,0.0,0.0,0.0,0.0,0.0,0.0,0.0,0.0,0.0,0.0,0.0,0.0,0.0,0.0,0.0,0.0,0.0,0.0,0.0,0.0,0.0,0.0,0.0,0.0,0.0,0.0,0.0,0.0,0.0,0.0,0.0,0.0,0.0,0.0,0.0,0.0,0.0,0.0,0.0,0.0,0.0,0.0,0.0,0.0,0.0,0.0,0.0,0.0,0.0,0.0,0.0,0.0,0.0,0.0,0.0,0.0,0.0,0.0,0.0,0.0,0.0,0.0,0.0,0.0,0.0,0.0,0.0,0.0,0.0,0.0,0.0,0.0,0.0,0.0,0.0,0.0,0.0,0.0,0.0,0.0,0.0,0.0,0.0,0.0,0.0,0.0,0.0,0.0,0.0,0.0,0.0,0.0,0.0,0.0,0.0,0.0,0.0,0.0,0.0,0.0,0.0,0.0,0.0,0.0,0.0,0.0,0.0,0.0,0.0,0.0,0.0,0.0,0.0,0.0,0.0,0.0,0.0,0.0,0.0,0.0,0.0,0.0,0.0,0.0,0.0,0.0,0.0,0.0,0.0,0.0,0.0,0.0,0.0,0.0,0.0,0.0,0.0,0.0,0.0,0.0,0.0,0.0,0.0,0.0,0.0,0.0,0.0,0.0,0.0,0.0,0.0,0.0,0.0,0.0,0.0,0.0,0.0,0.0,0.0,0.0,0.0,0.0,0.0,0.0,0.0,0.0,0.0,0.0,0.0,0.0,0.0,0.0,0.0,0.0,0.0,0.0,0.0,0.0,0.0,0.0,0.0,0.0,0.0,0.0,0.0,0.0,0.0,0.0,0.0,0.0,0.0,0.0,0.0,0.0,0.0,0.0,0.0,0.0,0.0,0.0,0.0,0.0,0.0,0.0,0.0,0.0,0.0,0.0,0.0,0.0,0.0,0.0,0.0,0.0,0.0,0.0,0.0,0.0,0.0,0.0,0.0,0.0,0.0,0.0,0.0,0.0,0.0,0.0,0.0,0.0,0.0,0.0,0.0,0.0,0.0,0.0,0.0,0.0,0.0,0.0,0.0,0.0,0.0,0.0,0.0,0.0,0.0,0.0,0.0,0.0,0.0,0.0,0.0,0.0,0.0,0.0,0.0,0.0,0.0,0.0,0.0,0.5186,0.0,0.0,0.0,0.5399,0.0,0.0,0.0,0.0,0.0,0.0,0.0,0.0,0.0,0.0,0.0,0.0,0.0,0.0,0.0,0.0,0.0,0.0,0.0,0.0,0.0,0.0,0.0,0.0,0.0,0.0,0.0,0.0,0.0,0.0,0.0,0.0,0.0,0.0,0.0,0.0,0.0,0.0,0.0,0.0,0.0,0.0,0.0,0.0,0.0,0.0,0.0,0.0,0.0,0.0,0.0,0.0,0.0,0.0,0.0,0.0,0.0,0.0,0.0,0.0,0.0,0.0,0.0,0.0,0.0,0.0,0.0,0.0,0.0,0.0,0.0,0.0,0.0,0.0,0.0,0.0,0.0,0.0,0.0,0.0,0.0,0.0,0.0,0.0,0.0,0.0,0.0,0.0,0.0,0.0,0.0,0.0,0.0,0.0,0.0,0.0,0.0,0.0,0.0,0.0,0.0,0.0,0.0,0.0,0.0,0.0,0.0,0.0,0.0,0.0,0.5453,0.5596,0.5671,0.5671,0.5638,0.0,0.0,0.0,0.0,0.0,0.0,0.0,0.0,0.0,0.0,0.0,0.0,0.0,0.0,0.0,0.0,0.0,0.0,0.0,0.0,0.0,0.0,0.0,0.0,0.0,0.0,0.0,0.0,0.0,0.0,0.0,0.0,0.0,0.0,0.0,0.0,0.0,0.0,0.0,0.0,0.0,0.0,0.0,0.0,0.0,0.0,0.0,0.0,0.0,0.0,0.0,0.0,0.0,0.0,0.0,0.0,0.0,0.0,0.0,0.0,0.0,0.0,0.0,0.0,0.0,0.0,0.0,0.0,0.0,0.0,0.0,0.0,0.0,0.0,0.0,0.0,0.0,0.0,0.0,0.0,0.0,0.0,0.0,0.0,0.0,0.0,0.0,0.0,0.0,0.0,0.0,0.0,0.0,0.0,0.0,0.0,0.0,0.0,0.0,0.0,0.0,0.0,0.0,0.0,0.0,0.0,0.0,0.0,0.0,0.0,0.0,0.0,0.5833,0.5854,0.5847,0.0,0.0,0.0,0.0,0.0,0.0,0.0,0.0,0.0,0.0,0.0,0.0,0.0,0.0,0.0,0.0,0.0,0.0,0.0,0.0,0.0,0.0,0.0,0.0,0.0,0.0,0.0,0.0,0.0,0.0,0.0,0.0,0.0,0.0,0.0,0.0,0.0,0.0,0.0,0.0,0.0,0.0,0.0,0.0,0.0,0.0,0.0,0.0,0.0,0.0,0.0,0.0,0.0,0.0,0.0,0.0,0.0,0.0,0.0,0.0,0.0,0.0,0.0,0.0,0.0,0.0,0.0,0.0,0.0,0.0,0.0,0.0,0.0,0.0,0.0,0.0,0.0,0.0,0.0,0.0,0.0,0.0,0.0,0.0,0.0,0.0,0.0,0.0,0.0,0.0,0.0,0.0,0.0,0.0,0.0,0.0,0.0,0.0,0.0,0.0,0.0,0.0,0.0,0.0,0.0,0.0,0.0,0.0,0.0,0.0,0.5786,0.58,0.5899,0.0,0.5959,0.0,0.0,0.0,0.0,0.0,0.0,0.0,0.0,0.0,0.0,0.0,0.0,0.0,0.0,0.0,0.0,0.0,0.0,0.0,0.0,0.0,0.0,0.0,0.0,0.0,0.0,0.0,0.0,0.0,0.0,0.0,0.0,0.0,0.0,0.0,0.0,0.0,0.0,0.0,0.0,0.0,0.0,0.0,0.0,0.0,0.0,0.0,0.0,0.0,0.0,0.0,0.0,0.0,0.0,0.0,0.0,0.0,0.0,0.0,0.0,0.0,0.0,0.0,0.0,0.0,0.0,0.0,0.0,0.0,0.0,0.0,0.0,0.0,0.0,0.0,0.0,0.0,0.0,0.0,0.0,0.0,0.0,0.0,0.0,0.0,0.0,0.0,0.0,0.0,0.0,0.0,0.0,0.0,0.0,0.0,0.0,0.0,0.0,0.0,0.0,0.0,0.0,0.0,0.0,0.0,0.0,0.0,0.0,0.0,0.0,0.5983,0.6108,0.6132,0.6125,0.0,0.0,0.0,0.0,0.0,0.0,0.0,0.0,0.0,0.0,0.0,0.0,0.0,0.0,0.0,0.0,0.0,0.0,0.0,0.0,0.0,0.0,0.0,0.0,0.0,0.0,0.0,0.0,0.0,0.0,0.0,0.0,0.0,0.0,0.0,0.0,0.0,0.0,0.0,0.0,0.0,0.0,0.0,0.0,0.0,0.0,0.0,0.0,0.0,0.0,0.0,0.0,0.0,0.0,0.0,0.0,0.0,0.0,0.0,0.0,0.0,0.0,0.0,0.0,0.0,0.0,0.0,0.0,0.0,0.0,0.0,0.0,0.0,0.0,0.0,0.0,0.0,0.0,0.0,0.0,0.0,0.0,0.0,0.0,0.0,0.0,0.0,0.0,0.0,0.0,0.0,0.0,0.0,0.0,0.0,0.0,0.0,0.0,0.0,0.0,0.0,0.0,0.0,0.0,0.0,0.0,0.0,0.0,0.0,0.0,0.5921,0.6146,0.6293,0.63,0.6245,0.6098,0.0,0.0,0.0,0.0,0.0,0.0,0.0,0.0,0.0,0.0,0.0,0.0,0.0,0.0,0.0,0.0,0.0,0.0,0.0,0.0,0.0,0.0,0.0,0.0,0.0,0.0,0.0,0.0,0.0,0.0,0.0,0.0,0.0,0.0,0.0,0.0,0.0,0.0,0.0,0.0,0.0,0.0,0.0,0.0,0.0,0.0,0.0,0.0,0.0,0.0,0.0,0.0,0.0,0.0,0.0,0.0,0.0,0.0,0.0,0.0,0.0,0.0,0.0,0.0,0.0,0.0,0.0,0.0,0.0,0.0,0.0,0.0,0.0,0.0,0.0,0.0,0.0,0.0,0.0,0.0,0.0,0.0,0.0,0.0,0.0,0.0,0.0,0.0,0.0,0.0,0.0,0.0,0.0,0.0,0.0,0.0,0.0,0.0,0.0,0.0,0.0,0.0,0.0,0.0,0.0,0.0,0.0,0.0,0.5694,0.6058,0.6293,0.6306,0.63,0.63,0.0,0.0,0.0,0.0,0.0,0.0,0.0,0.0,0.0,0.0,0.0,0.0,0.0,0.0,0.0,0.0,0.0,0.0,0.0,0.0,0.0,0.0,0.0,0.0,0.0,0.0,0.0,0.0,0.0,0.0,0.0,0.0,0.0,0.0,0.0,0.0,0.0,0.0,0.0,0.0,0.0,0.0,0.0,0.0,0.0,0.0,0.0,0.0,0.0,0.0,0.0,0.0,0.0,0.0,0.0,0.0,0.0,0.0,0.0,0.0,0.0,0.0,0.0,0.0,0.0,0.0,0.0,0.0,0.0,0.0,0.0,0.0,0.0,0.0,0.0,0.0,0.0,0.0,0.0,0.0,0.0,0.0,0.0,0.0,0.0,0.0,0.0,0.0,0.0,0.0,0.0,0.0,0.0,0.0,0.0,0.0,0.0,0.0,0.0,0.0,0.0,0.0,0.0,0.0,0.0,0.0,0.0,0.0,0.0,0.58,0.6298,0.6546,0.6539,0.6451,0.6436,0.0,0.0,0.0,0.0,0.0,0.0,0.0,0.0,0.0,0.0,0.0,0.0,0.0,0.0,0.0,0.0,0.0,0.0,0.0,0.0,0.0,0.0,0.0,0.0,0.0,0.0,0.0,0.0,0.0,0.0,0.0,0.0,0.0,0.0,0.0,0.0,0.0,0.0,0.0,0.0,0.0,0.0,0.0,0.0,0.0,0.0,0.0,0.0,0.0,0.0,0.0,0.0,0.0,0.0,0.0,0.0,0.0,0.0,0.0,0.0,0.0,0.0,0.0,0.0,0.0,0.0,0.0,0.0,0.0,0.0,0.0,0.0,0.0,0.0,0.0,0.0,0.0,0.0,0.0,0.0,0.0,0.0,0.0,0.0,0.0,0.0,0.0,0.0,0.0,0.0,0.0,0.0,0.0,0.0,0.0,0.0,0.0,0.0,0.0,0.0,0.0,0.0,0.0,0.0,0.0,0.0,0.0,0.0,0.0,0.6122,0.0,0.6759,0.6795,0.6695,0.6593,0.0,0.0,0.0,0.0,0.0,0.0,0.0,0.0,0.0,0.0,0.0,0.0,0.0,0.0,0.0,0.0,0.0,0.0,0.0,0.0,0.0,0.0,0.0,0.0,0.0,0.0,0.0,0.0,0.0,0.0,0.0,0.0,0.0,0.0,0.0,0.0,0.0,0.0,0.0,0.0,0.0,0.0,0.0,0.0,0.0,0.0,0.0,0.0,0.0,0.0,0.0,0.0,0.0,0.0,0.0,0.0,0.0,0.0,0.0,0.0,0.0,0.0,0.0,0.0,0.0,0.0,0.0,0.0,0.0,0.0,0.0,0.0,0.0,0.0,0.0,0.0,0.0,0.0,0.0,0.0,0.0,0.0,0.0,0.0,0.0,0.0,0.0,0.0,0.0,0.0,0.0,0.0,0.0,0.0,0.0,0.0,0.0,0.0,0.0,0.0,0.0,0.0,0.0,0.0,0.0,0.0,0.0,0.0,0.5286,0.654,0.67,0.6872,0.7105,0.7027,0.6871,0.0,0.0,0.0,0.0,0.0,0.0,0.0,0.0,0.0,0.0,0.0,0.0,0.0,0.0,0.0,0.0,0.0,0.0,0.0,0.0,0.0,0.0,0.0,0.0,0.0,0.0,0.0,0.0,0.0,0.0,0.0,0.0,0.0,0.0,0.0,0.0,0.0,0.0,0.0,0.0,0.0,0.0,0.0,0.0,0.0,0.0,0.0,0.0,0.0,0.0,0.0,0.0,0.0,0.0,0.0,0.0,0.0,0.0,0.0,0.0,0.0,0.0,0.0,0.0,0.0,0.0,0.0,0.0,0.0,0.0,0.0,0.0,0.0,0.0,0.0,0.0,0.0,0.0,0.0,0.0,0.0,0.0,0.0,0.0,0.0,0.0,0.0,0.0,0.0,0.0,0.0,0.0,0.0,0.0,0.0,0.0,0.0,0.0,0.0,0.0,0.0,0.0,0.0,0.0,0.0,0.0,0.0,0.0,0.0,0.7025,0.7349,0.7622,0.7909,0.7672,0.7421,0.0,0.0,0.0,0.0,0.0,0.0,0.0,0.0,0.0,0.0,0.0,0.0,0.0,0.0,0.0,0.0,0.0,0.0,0.0,0.0,0.0,0.0,0.0,0.0,0.0,0.0,0.0,0.0,0.0,0.0,0.0,0.0,0.0,0.0,0.0,0.0,0.0,0.0,0.0,0.0,0.0,0.0,0.0,0.0,0.0,0.0,0.0,0.0,0.0,0.0,0.0,0.0,0.0,0.0,0.0,0.0,0.0,0.0,0.0,0.0,0.0,0.0,0.0,0.0,0.0,0.0,0.0,0.0,0.0,0.0,0.0,0.0,0.0,0.0,0.0,0.0,0.0,0.0,0.0,0.0,0.0,0.0,0.0,0.0,0.0,0.0,0.0,0.0,0.0,0.0,0.0,0.0,0.0,0.0,0.0,0.0,0.0,0.0,0.0,0.0,0.0,0.0,0.0,0.0,0.0,0.0,0.0,0.0,0.0,0.7754,0.7859,0.8091,0.852,0.8221,0.7923,0.7631,0.0,0.0,0.0,0.0,0.0,0.0,0.0,0.0,0.0,0.0,0.0,0.0,0.0,0.0,0.0,0.0,0.0,0.0,0.0,0.0,0.0,0.0,0.0,0.0,0.0,0.0,0.0,0.0,0.0,0.0,0.0,0.0,0.0,0.0,0.0,0.0,0.0,0.0,0.0,0.0,0.0,0.0,0.0,0.0,0.0,0.0,0.0,0.0,0.0,0.0,0.0,0.0,0.0,0.0,0.0,0.0,0.0,0.0,0.0,0.0,0.0,0.0,0.0,0.0,0.0,0.0,0.0,0.0,0.0,0.0,0.0,0.0,0.0,0.0,0.0,0.0,0.0,0.0,0.0,0.0,0.0,0.0,0.0,0.0,0.0,0.0,0.0,0.0,0.0,0.0,0.0,0.0,0.0,0.0,0.0,0.0,0.0,0.0,0.0,0.0,0.0,0.0,0.0,0.0,0.0,0.0,0.0,0.0,0.8737,0.8317,0.8407,0.8946,0.871,0.8397,0.0,0.0,0.0,0.0,0.0,0.0,0.0,0.0,0.0,0.0,0.0,0.0,0.0,0.0,0.0,0.0,0.0,0.0,0.0,0.0,0.0,0.0,0.0,0.0,0.0,0.0,0.0,0.0,0.0,0.0,0.0,0.0,0.0,0.0,0.0,0.0,0.0,0.0,0.0,0.0,0.0,0.0,0.0,0.0,0.0,0.0,0.0,0.0,0.0,0.0,0.0,0.0,0.0,0.0,0.0,0.0,0.0,0.0,0.0,0.0,0.0,0.0,0.0,0.0,0.0,0.0,0.0,0.0,0.0,0.0,0.0,0.0,0.0,0.0,0.0,0.0,0.0,0.0,0.0,0.0,0.0,0.0,0.0,0.0,0.0,0.0,0.0,0.0,0.0,0.0,0.0,0.0,0.0,0.0,0.0,0.0,0.0,0.0,0.0,0.0,0.0,0.0,0.0,0.0,0.0,0.0,0.0,0.0,0.0,0.9062,0.9087,0.9298,0.9701,0.9469,0.9069,0.0,0.0,0.0,0.0,0.0,0.0,0.0,0.0,0.0,0.0,0.0,0.0,0.0,0.0,0.0,0.0,0.0,0.0,0.0,0.0,0.0,0.0,0.0,0.0,0.0,0.0,0.0,0.0,0.0,0.0,0.0,0.0,0.0,0.0,0.0,0.0,0.0,0.0,0.0,0.0,0.0,0.0,0.0,0.0,0.0,0.0,0.0,0.0,0.0,0.0,0.0,0.0,0.0,0.0,0.0,0.0,0.0,0.0,0.0,0.0,0.0,0.0,0.0,0.0,0.0,0.0,0.0,0.0,0.0,0.0,0.0,0.0,0.0,0.0,0.0,0.0,0.0,0.0,0.0,0.0,0.0,0.0,0.0,0.0,0.0,0.0,0.0,0.0,0.0,0.0,0.0,0.0,0.0,0.0,0.0,0.0,0.0,0.0,0.0,0.0,0.0,0.0,0.0,0.0,0.0,0.0,0.0,0.0,0.7763,0.9417,0.9678,0.9962,1.0456,1.0107,0.9612,0.0,0.0,0.0,0.0,0.0,0.0,0.0,0.0,0.0,0.0,0.0,0.0,0.0,0.0,0.0,0.0,0.0,0.0,0.0,0.0,0.0,0.0,0.0,0.0,0.0,0.0,0.0,0.0,0.0,0.0,0.0,0.0,0.0,0.0,0.0,0.0,0.0,0.0,0.0,0.0,0.0,0.0,0.0,0.0,0.0,0.0,0.0,0.0,0.0,0.0,0.0,0.0,0.0,0.0,0.0,0.0,0.0,0.0,0.0,0.0,0.0,0.0,0.0,0.0,0.0,0.0,0.0,0.0,0.0,0.0,0.0,0.0,0.0,0.0,0.0,0.0,0.0,0.0,0.0,0.0,0.0,0.0,0.0,0.0,0.0,0.0,0.0,0.0,0.0,0.0,0.0,0.0,0.0,0.0,0.0,0.0,0.0,0.0,0.0,0.0,0.0,0.0,0.0,0.0,0.0,0.0,0.0,0.0,0.8135,0.974,1.0048,1.0518,1.1192,1.0636,1.0053,0.0,0.0,0.0,0.0,0.0,0.0,0.0,0.0,0.0,0.0,0.0,0.0,0.0,0.0,0.0,0.0,0.0,0.0,0.0,0.0,0.0,0.0,0.0,0.0,0.0,0.0,0.0,0.0,0.0,0.0,0.0,0.0,0.0,0.0,0.0,0.0,0.0,0.0,0.0,0.0,0.0,0.0,0.0,0.0,0.0,0.0,0.0,0.0,0.0,0.0,0.0,0.0,0.0,0.0,0.0,0.0,0.0,0.0,0.0,0.0,0.0,0.0,0.0,0.0,0.0,0.0,0.0,0.0,0.0,0.0,0.0,0.0,0.0,0.0,0.0,0.0,0.0,0.0,0.0,0.0,0.0,0.0,0.0,0.0,0.0,0.0,0.0,0.0,0.0,0.0,0.0,0.0,0.0,0.0,0.0,0.0,0.0,0.0,0.0,0.0,0.0,0.0,0.0,0.0,0.0,0.0,0.0,0.0,0.8832,1.026,1.0695,1.1083,1.1518,1.0941,1.0399,0.0,0.0,0.0,0.0,0.0,0.0,0.0,0.0,0.0,0.0,0.0,0.0,0.0,0.0,0.0,0.0,0.0,0.0,0.0,0.0,0.0,0.0,0.0,0.0,0.0,0.0,0.0,0.0,0.0,0.0,0.0,0.0,0.0,0.0,0.0,0.0,0.0,0.0,0.0,0.0,0.0,0.0,0.0,0.0,0.0,0.0,0.0,0.0,0.8513,0.0,0.0,0.0,0.0,0.0,0.0,0.0,0.0,0.0,0.0,0.0,0.0,0.0,0.0,0.0,0.0,0.0,0.0,0.0,0.0,0.0,0.0,0.0,0.0,0.0,0.0,0.0,0.0,0.0,0.0,0.0,0.0,0.0,0.0,0.0,0.0,0.0,0.0,0.0,0.0,0.0,0.0,0.0,0.0,0.0,0.0,0.0,0.0,0.0,0.0,0.0,0.0,0.0,0.0,0.0,0.0,0.0,0.0,0.0,0.928,1.0503,1.1021,1.1424,1.1708,1.1274,1.0758,0.0,0.0,0.0,0.0,0.0,0.0,0.0,0.0,0.0,0.0,0.0,0.0,0.0,0.0,0.0,0.0,0.0,0.0,0.0,0.0,0.0,0.0,0.0,0.0,0.0,0.0,0.0,0.0,0.0,0.0,0.0,0.0,0.0,0.0,0.0,0.0,0.0,0.0,0.0,0.0,0.0,0.0,0.0,0.0,0.0,0.0,0.0,0.0,0.0,0.0,0.0,0.0,0.0,0.0,0.0,0.0,0.0,0.0,0.0,0.0,0.0,0.0,0.0,0.0,0.0,0.0,0.0,0.0,0.0,0.0,0.0,0.0,0.0,0.0,0.0,0.0,0.0,0.0,0.0,0.0,0.0,0.0,0.0,0.0,0.0,0.0,0.0,0.0,0.0,0.0,0.0,0.0,0.0,0.0,0.0,0.0,0.0,0.0,0.0,0.0,0.0,0.0,0.0,0.0,0.0,0.0,0.0,0.837,0.9753,1.0572,1.1305,1.1742,1.1932,1.1626,1.1124,1.0405,0.0,0.0,0.0,0.0,0.0,0.0,0.0,0.0,0.0,0.0,0.0,0.0,0.0,0.0,0.0,0.0,0.0,0.0,0.0,0.0,0.0,0.0,0.0,0.0,0.0,0.0,0.0,0.0,0.0,0.0,0.0,0.0,0.0,0.0,0.0,0.0,0.0,0.0,0.8374,0.8954,0.0,0.0,0.0,0.0,0.0,0.0,0.0,0.0,0.9958,0.0,0.0,0.0,0.0,0.0,0.0,0.0,0.0,0.0,0.0,0.0,0.0,0.0,0.0,0.0,0.0,0.0,0.0,0.0,0.0,0.0,0.0,0.0,0.0,0.0,0.0,0.0,0.0,0.0,0.0,0.0,0.0,0.0,0.0,0.0,0.0,0.0,0.0,0.0,0.0,0.0,0.0,0.0,0.0,0.0,0.0,0.0,0.0,0.0,0.0,0.0,0.0,0.0,0.0,0.0,0.0,0.7083,0.9095,1.045,1.1186,1.1828,1.2222,1.2379,1.1979,1.147,1.0779,0.0,0.0,0.0,0.0,0.0,0.0,0.0,0.0,0.0,0.0,0.0,0.0,0.0,0.0,0.0,0.0,0.0,0.0,0.0,0.0,0.0,0.0,0.0,0.0,0.0,0.0,0.0,0.0,0.0,0.0,0.0,0.0,0.0,0.0,0.0,0.0,0.0,0.0,0.0,0.9415,0.9707,0.0,0.0,0.0,0.0,0.0,0.0,0.0,0.0,1.0283,0.0,0.0,0.0,0.0,0.0,0.0,0.0,0.0,0.0,0.0,0.0,0.0,0.0,0.0,0.0,0.0,0.0,0.0,0.0,0.0,0.0,0.0,0.0,0.0,0.0,0.0,0.0,0.0,0.0,0.0,0.0,0.0,0.0,0.0,0.0,0.0,0.0,0.0,0.0,0.0,0.0,0.0,0.0,0.0,0.0,0.0,0.0,0.0,0.0,0.0,0.0,0.0,0.0,0.0,0.0,0.7521,0.9587,1.0872,1.1321,1.22,1.2596,1.2501,1.2142,1.164,0.0,0.0,0.0,0.0,0.0,0.0,0.0,0.0,0.0,0.0,0.0,0.0,0.0,0.0,0.0,0.0,0.0,0.0,0.0,0.0,0.0,0.0,0.0,0.0,0.0,0.0,0.0,0.0,0.0,0.0,0.0,0.0,0.0,0.0,0.0,0.0,0.0,0.0,0.0,0.0,0.9788,1.0168,1.0168,0.0,0.0,0.0,0.0,0.0,0.0,1.1077,1.0921,0.0,0.0,0.0,0.0,0.0,0.0,0.0,0.0,0.0,0.0,0.0,0.0,0.0,0.0,0.0,0.0,0.0,0.0,0.0,0.0,0.0,0.0,0.0,0.0,0.0,0.0,0.0,0.0,0.0,0.0,0.0,0.0,0.0,0.0,0.0,0.0,0.0,0.0,0.0,0.0,0.0,0.0,0.0,0.0,0.0,0.0,0.0,0.0,0.0,0.0,0.0,0.0,0.0,0.0,0.0,0.7873,0.9921,1.1124,1.1413,1.2436,1.284,1.2596,1.2277,1.1769,0.0,0.0,0.0,0.0,0.0,0.0,0.0,0.0,0.0,0.0,0.0,0.0,0.0,0.0,0.0,0.0,0.0,0.0,0.0,0.0,0.0,0.0,0.0,0.0,0.0,0.0,0.0,0.0,0.0,0.0,0.0,0.0,0.0,0.0,0.0,0.0,0.0,0.0,0.0,0.0,0.0,1.0575,1.0663,1.1009,0.0,0.0,0.0,0.0,1.1708,1.166,0.0,0.0,0.0,0.0,0.0,0.0,0.0,0.0,0.0,0.0,0.0,0.0,0.0,0.0,0.0,0.0,0.0,0.0,0.0,0.0,0.0,0.0,0.0,0.0,0.0,0.0,0.0,0.0,0.0,0.0,0.0,0.0,0.0,0.0,0.0,0.0,0.0,0.0,0.0,0.0,0.0,0.0,0.0,0.0,0.0,0.0,0.0,0.0,0.0,0.0,0.0,0.0,0.0,0.0,0.0,0.0,0.8086,1.0088,1.1225,1.1684,1.2542,1.3022,1.2901,1.2488,1.1972,0.0,0.0,0.0,0.0,0.0,0.0,0.0,0.0,0.0,0.0,0.0,0.0,0.0,0.0,0.0,0.0,0.0,0.0,0.0,0.0,0.0,0.0,0.0,0.0,0.0,0.0,0.0,0.0,0.0,0.0,0.0,0.0,0.0,0.0,0.0,0.0,0.0,0.0,0.0,0.0,0.0,1.0839,1.1233,1.1443,1.1613,0.0,0.0,1.1857,1.1993,1.1789,0.0,0.0,0.0,0.0,0.0,0.0,0.0,0.0,0.0,0.0,0.0,0.0,0.0,0.0,0.0,0.0,0.0,0.0,0.0,0.0,0.0,0.0,0.0,0.0,0.0,0.0,0.0,0.0,0.0,0.0,0.0,0.0,0.0,0.0,0.0,0.0,0.0,0.0,0.0,0.0,0.0,0.0,0.0,0.0,0.0,0.0,0.0,0.0,0.0,0.0,0.0,0.0,0.0,0.0,0.0,0.6813,0.8392,1.0369,1.1451,1.185,1.2759,1.3166,1.3085,1.2732,1.2216,0.0,0.0,0.0,0.0,0.0,0.0,0.0,0.0,0.0,0.0,0.0,0.0,0.0,0.0,0.0,0.0,0.0,0.0,0.0,0.0,0.0,0.0,0.0,0.0,0.0,0.0,0.0,0.0,0.0,0.0,0.0,0.0,0.0,0.0,0.0,0.0,0.0,0.0,0.0,0.0,0.0,0.0,1.1579,1.1911,0.0,0.0,0.0,1.2494,1.264,0.0,0.0,0.0,0.0,0.0,0.0,0.0,0.0,0.0,0.0,0.0,0.0,0.0,0.0,0.0,0.0,0.0,0.0,0.0,0.0,0.0,0.0,0.0,0.0,0.0,0.0,0.0,0.0,0.0,0.0,0.0,0.0,0.0,0.0,0.0,0.0,0.0,0.0,0.0,0.0,0.0,0.0,0.0,0.0,0.0,0.0,0.0,0.0,0.0,0.0,0.0,0.0,0.0,0.0,0.0,0.0,0.0,0.86,1.0592,1.1727,1.1992,1.2919,1.3424,1.3234,1.2942,0.0,0.0,0.0,0.0,0.0,0.0,0.0,0.0,0.0,0.0,0.0,0.0,0.0,0.0,0.0,0.0,0.0,0.0,0.0,0.0,0.0,0.0,0.0,0.0,0.0,0.0,0.0,0.7746,0.0,0.0,0.0,0.0,0.0,0.0,0.0,0.0,0.0,0.0,0.0,0.0,0.0,0.0,1.145,1.1932,1.2352,1.2657,0.0,0.0,1.3084,1.2963,1.2732,1.2461,0.0,0.0,0.0,0.0,0.0,0.0,0.0,0.0,0.0,0.0,0.0,0.0,0.0,0.0,0.0,0.0,0.0,0.0,0.0,0.0,0.0,0.0,0.0,0.0,0.0,0.0,0.0,0.0,0.0,0.0,0.0,0.0,0.0,0.0,0.0,0.0,0.0,0.0,0.0,0.0,0.0,0.0,0.0,0.0,0.0,0.0,0.0,0.0,0.0,0.0,0.0,0.0,0.0,0.0,0.6717,0.86,1.0684,1.1875,1.2133,1.3154,1.3675,1.339,1.3105,1.2664,0.0,0.0,0.0,0.0,0.0,0.0,0.0,0.0,0.0,0.0,0.0,0.0,0.0,0.0,0.0,0.0,0.0,0.0,0.0,0.0,0.0,0.0,0.0,0.0,0.0,0.0,0.0,0.0,0.0,0.0,0.0,0.0,0.0,0.0,0.0,0.0,0.0,0.0,0.0,0.0,0.0,1.1803,1.2379,1.2725,1.2935,0.0,1.3071,1.3112,1.3063,1.2827,1.2617,1.2325,0.0,0.0,0.0,0.0,0.0,0.0,0.0,0.0,0.0,0.0,0.0,0.0,0.0,0.0,0.0,0.0,0.0,0.0,0.0,0.0,0.0,0.0,0.0,0.0,0.0,0.0,0.0,0.0,0.0,0.0,0.0,0.0,0.0,0.0,0.0,0.0,0.0,0.0,0.0,0.0,0.0,0.0,0.0,0.0,0.0,0.0,0.0,0.0,0.0,0.0,0.0,0.0,0.0,0.7237,0.8818,1.0878,1.209,1.2275,1.3226,1.3698,1.3675,1.3383,1.3037,0.0,0.0,0.0,0.0,0.0,0.0,0.0,0.0,0.0,0.0,0.0,0.0,0.0,0.0,0.0,0.0,0.0,0.0,0.0,0.0,0.0,0.0,0.0,0.0,0.0,0.0,0.0,0.0,0.9788,1.0005,0.9964,0.0,0.0,0.0,0.0,0.0,0.0,0.0,0.0,0.0,0.0,1.2216,1.2712,1.3044,0.0,0.0,1.3492,1.3566,1.3512,1.3302,1.3078,1.2868,1.2386,0.0,0.0,0.0,0.0,0.0,0.0,0.0,0.0,0.0,0.0,0.0,0.0,0.0,0.0,0.0,0.0,0.0,0.0,0.0,0.0,0.0,0.0,0.0,0.0,0.0,0.0,0.0,0.0,0.0,0.0,0.0,0.0,0.0,0.0,0.0,0.0,0.0,0.0,0.0,0.0,0.0,0.0,0.0,0.0,0.0,0.0,0.0,0.0,0.0,0.0,0.0,0.0,0.7523,0.9048,1.11,1.2215,1.2393,1.3382,1.3953,1.3905,1.3661,1.3376,0.0,0.0,0.0,0.0,0.0,0.0,0.0,0.0,0.0,0.0,0.0,0.0,0.0,0.0,0.0,0.0,0.0,0.0,0.0,0.0,0.0,0.0,0.0,0.0,0.0,0.0,0.0,0.0,1.0222,1.0337,1.0141,0.0,0.0,0.0,0.0,0.0,0.0,0.0,0.0,0.0,0.0,1.2684,1.3044,1.3383,1.362,1.3688,1.3817,1.3892,1.3759,1.3634,1.3431,1.3329,0.0,0.0,0.0,0.0,0.0,0.0,0.0,0.0,0.0,0.0,0.0,0.0,0.0,0.0,0.0,0.0,0.0,0.0,0.0,0.0,0.0,0.0,0.0,0.0,0.0,0.0,0.0,0.0,0.0,0.0,0.0,0.0,0.0,0.0,0.0,0.0,0.0,0.0,0.0,0.0,0.0,0.0,0.0,0.0,0.0,0.0,0.0,0.0,0.0,0.0,0.0,0.0,0.0,0.7557,0.9159,1.1231,1.2399,1.2736,1.3764,1.4211,1.4075,1.3912,1.362,1.3173,0.0,0.0,0.0,0.0,0.0,0.0,0.0,0.0,0.0,0.0,0.0,0.0,0.0,0.0,0.0,0.0,0.0,0.0,0.0,0.0,0.0,0.0,0.0,0.0,0.0,0.0,1.0643,1.0704,1.0595,0.0,0.0,0.0,0.0,0.0,0.0,0.0,0.0,0.0,1.2074,1.2691,1.3214,1.337,1.377,1.3987,1.3858,1.3966,1.4014,1.3878,1.3722,1.3627,0.0,0.0,0.0,0.0,0.0,0.0,0.0,0.0,0.0,0.0,0.0,0.0,0.0,0.0,0.0,0.0,0.0,0.0,0.0,0.0,0.0,0.0,0.0,0.0,0.0,0.0,0.0,0.0,0.0,0.0,0.0,0.0,0.0,0.0,0.0,0.0,0.0,0.0,0.0,0.0,0.0,0.0,0.0,0.0,0.0,0.0,0.0,0.0,0.0,0.0,0.0,0.0,0.0,0.0,0.7959,0.9361,1.1396,1.249,1.2755,1.3777,1.4278,1.4224,1.4075,1.3736,1.3186,0.0,0.0,0.0,0.0,0.0,0.0,0.0,0.0,0.0,0.0,0.0,0.0,0.0,0.0,0.0,0.0,0.0,0.0,0.0,0.0,0.0,0.0,0.0,0.0,0.0,1.0785,0.0,0.0,0.0,0.0,0.0,0.0,0.0,0.0,0.0,0.0,1.1681,1.2189,1.2725,1.3193,1.3526,1.3675,1.3905,1.4055,0.0,0.0,0.0,0.0,0.0,0.0,0.0,0.0,0.0,0.0,0.0,0.0,0.0,1.2264,1.1877,1.128,1.1212,1.124,1.124,0.0,0.0,0.0,0.0,0.0,0.0,0.0,0.0,0.0,0.0,0.0,0.0,0.0,0.0,0.0,0.0,0.0,0.0,0.0,0.0,0.0,0.0,0.0,0.0,0.0,0.0,0.0,0.0,0.0,0.0,0.0,0.0,0.0,0.0,0.0,0.0,0.0,0.0,0.0,0.0,0.0,0.8251,0.9524,1.1589,1.2674,1.2902,1.3929,1.4455,1.4448,1.4258,1.3912,1.3424,1.3119,1.2644,0.0,0.0,0.0,0.0,0.0,0.0,0.0,0.0,0.0,0.0,0.0,0.0,0.0,0.0,0.0,0.0,0.0,0.0,0.0,0.0,0.0,0.0,0.0,1.1244,0.0,0.0,0.0,0.0,0.0,0.0,0.0,0.0,0.0,1.1857,1.2284,1.2759,1.3193,1.3607,1.3899,1.3987,0.0,0.0,0.0,0.0,0.0,0.0,0.0,1.4278,1.4428,1.4204,1.3966,1.3878,1.358,1.3363,1.3417,0.0,0.0,1.2244,1.2128,1.2155,1.2155,1.2277,1.2372,1.2379,1.2501,1.2664,0.0,0.0,0.0,0.0,0.0,0.0,0.0,0.0,0.0,0.0,0.0,0.0,0.0,0.0,0.0,0.0,0.0,0.0,0.0,0.0,0.0,0.0,0.0,0.0,0.0,0.0,0.0,0.0,0.0,0.0,0.0,0.0,0.0,0.0,0.0,0.0,0.8495,0.9654,1.1794,1.2942,1.3083,1.412,1.4733,1.4635,1.4462,1.417,1.3779,1.3573,1.3146,1.2556,1.2094,0.0,0.0,0.0,0.0,0.0,0.0,0.0,0.0,0.0,0.0,0.0,0.0,0.0,0.0,0.0,0.0,0.0,0.0,0.0,0.0,1.1446,0.0,0.0,0.0,0.0,0.0,0.0,0.0,0.0,0.0,1.2474,1.2379,1.2847,1.3254,1.3417,0.0,0.0,0.0,0.0,1.474,1.474,1.4746,1.4753,1.4753,1.4631,1.4584,1.474,0.0,0.0,1.434,1.4211,1.415,1.4299,1.4197,1.3878,1.3261,1.3125,1.3186,1.32,1.3302,1.3417,1.3431,1.3492,1.3614,0.0,0.0,0.0,0.0,0.0,0.0,0.0,0.0,0.0,0.0,0.0,0.0,0.0,0.0,0.0,0.0,0.0,0.0,0.0,0.0,0.0,0.0,0.0,0.0,0.0,0.0,0.0,0.0,0.0,0.0,0.0238,0.0772,0.0,0.0,0.0,0.0,0.8374,0.9956,1.1937,1.2991,1.3211,1.4173,1.474,1.474,1.4658,1.4475,1.4177,1.398,1.3654,1.3159,1.2712,0.0,0.0,0.0,0.0,0.0,0.0,0.0,0.0,0.0,0.0,0.0,0.0,0.0,0.0,0.0,0.0,0.0,0.0,0.0,1.2155,1.2277,1.225,0.0,0.0,0.0,0.0,0.0,0.0,0.0,0.0,0.0,1.3363,1.3641,1.3871,0.0,0.0,1.4618,1.4618,1.478,1.4903,1.4903,1.4991,0.0,1.5059,1.5018,1.5045,1.5194,1.5147,1.5092,1.5092,1.4964,1.4875,1.4923,1.4896,1.4787,1.4584,1.4224,1.4,1.398,1.4014,1.4041,1.4048,1.4082,1.417,0.0,0.0,0.0,0.0,0.0,0.0,0.0,0.0,0.0,0.0,0.0,0.0,0.0,0.0,0.0,0.0,0.0,0.0,0.0,0.0,0.0,0.0,0.0,0.0,0.0,0.0,0.0,0.0,0.0,0.0,0.0086,0.0422,0.0,0.2916,0.4852,0.6495,0.8098,0.9809,1.1618,1.2829,1.3352,1.4329,1.4889,1.4835,1.4835,1.4719,1.4482,1.4272,1.4007,1.3675,1.3234,1.2793,0.0,0.0,0.0,0.0,0.0,0.0,0.0,0.0,0.0,0.0,0.0,0.9761,1.0504,0.0,0.0,0.0,1.1972,1.244,1.2949,1.2915,0.0,0.0,0.0,0.0,0.0,0.0,0.0,1.3044,1.3349,1.3695,1.4136,1.438,1.4502,1.4475,1.4726,1.4936,1.4997,0.0,1.5235,1.5235,1.5309,1.5364,1.5364,1.5364,1.5398,1.5486,1.5499,1.5499,1.5499,1.5425,1.5364,1.5371,1.5411,1.5452,1.5445,1.5201,1.4909,1.4699,1.4645,1.4652,1.4652,1.4699,1.4801,0.0,0.0,0.0,0.0,0.0,0.0,0.0,0.0,0.0,0.0,0.0,0.0,0.0,0.0,0.0,0.0,0.0,0.0,0.0,0.0,0.0,0.0,0.0,0.0,0.0,0.0,0.0,0.0,0.0,0.0,0.0,0.0091,0.1305,0.2827,0.4717,0.6256,0.7773,0.9295,1.1053,1.2574,1.3622,1.4584,1.5153,1.5031,1.5011,1.493,1.4774,1.4502,1.4272,1.4089,1.3695,1.3268,1.282,0.0,0.0,0.0,0.0,0.0,0.0,0.0,0.0,0.0,0.0,0.0,0.0,0.0,0.0,1.2535,1.2969,0.0,1.3437,1.3464,0.0,0.0,0.0,1.3193,1.3145,1.3247,1.3363,1.3682,0.0,0.0,1.4733,1.5031,1.5113,1.4875,1.5065,1.5276,1.5425,1.5574,1.5676,1.5689,1.571,1.5716,1.5737,1.5737,1.5744,1.575,1.571,1.573,1.5737,1.573,1.5716,1.5723,1.5818,1.5906,1.5906,1.5988,1.594,1.5398,1.5276,1.5255,1.5262,1.535,1.5445,0.0,0.0,0.0,0.0,0.0,0.0,0.0,0.0,0.0,0.0,0.0,0.0,0.0,0.0,0.0,0.0,0.0,0.0,0.0,0.0,0.0,0.0,0.0,0.0,0.0,0.0,0.0,0.0,0.0,0.0,0.0185,0.0559,0.0823,0.1816,0.3375,0.5569,0.7262,0.847,1.0924,1.2879,1.4412,1.4738,1.5033,1.5479,1.5364,1.5235,1.5086,1.4909,1.4638,1.4265,1.4143,1.3885,1.3437,1.299,0.0,0.0,0.0,0.0,0.0,0.0,0.0,0.0,0.0,1.1423,1.2128,0.0,1.2834,0.0,1.3485,1.3743,1.3899,1.4021,0.0,0.0,1.3858,1.3844,1.381,1.3838,1.4014,1.4428,1.4543,1.4753,1.5194,1.5316,1.5459,1.5716,1.5628,1.5588,1.573,1.5879,1.6022,1.6123,1.6225,1.6313,1.6293,1.6313,1.6293,1.6307,1.6307,1.6313,1.6307,1.6313,1.6313,1.6313,1.6334,1.6361,1.6354,1.6395,1.6374,1.6218,1.6029,1.5866,1.5872,1.5893,1.5954,0.0,0.0,0.0,0.0,0.0,0.0,0.0,0.0,0.0,0.0,0.0,0.0,0.0,0.0,0.0,0.0,0.0,0.0,0.0,0.0,0.0,0.0,0.0,0.0,0.0,0.0,0.0,0.0,0.0,0.0,0.0095,0.0383,0.0668,0.1236,0.2375,0.4612,0.6494,0.7981,1.083,1.2774,1.3782,1.4467,1.4958,1.5248,1.5361,1.5438,1.5289,1.5147,1.4916,1.4618,1.4468,1.4251,1.3939,1.3566,1.3125,0.0,0.0,0.0,0.0,0.0,0.0,0.0,0.0,0.0,0.0,0.0,1.3607,1.3966,1.4143,1.4272,1.436,1.4448,1.4489,1.4475,1.4468,1.4496,1.4557,1.457,1.4685,1.5004,1.5099,1.5282,1.5655,1.5764,1.592,1.6239,1.6137,1.6062,1.6137,1.6225,1.6307,1.6395,1.6469,1.6517,1.6517,1.6517,1.6517,1.6517,1.6517,1.6517,1.6517,1.6517,1.6517,1.6524,1.6578,1.6619,1.6625,1.6686,1.6727,1.6714,1.6653,1.651,1.632,1.6279,1.6313,0.0,0.0,0.0,0.0,0.0,0.0,0.0,0.0,0.0,0.0,0.0,0.0,0.0,0.0,0.0,0.0,0.0,0.0,0.0,0.0,0.0,0.0,0.0,0.0,0.0,0.0,0.0,0.0,0.0,0.0,0.0,0.0,0.0492,0.0984,0.1575,0.3395,0.5498,0.7852,1.0657,1.2276,1.2471,1.3951,1.4737,1.4912,1.5385,1.5601,1.5472,1.5323,1.5174,1.5031,1.4753,1.4529,1.4394,1.4095,1.3688,0.0,1.299,0.0,0.0,0.0,0.0,0.0,0.0,0.0,0.0,1.3838,1.4353,1.474,1.4808,1.4828,1.4828,1.4841,1.4909,1.5038,1.5072,1.5133,1.5255,1.5282,1.5357,1.5506,1.5642,1.5832,1.6096,1.6259,1.6388,1.6544,1.6571,1.6578,1.6625,1.6585,1.6558,1.6592,1.6625,1.6707,1.6693,1.6666,1.6673,1.6659,1.668,1.6639,1.6673,1.6666,1.6653,1.6666,1.6775,1.6849,1.6836,1.6951,1.7032,1.7039,1.7107,1.7053,1.6727,1.6646,1.6632,0.0,0.0,0.0,0.0,0.0,0.0,0.0,0.0,0.0,0.0,0.0,0.0,0.0,0.0,0.0,0.0,0.0,0.0,0.0,0.0,0.0,0.0,0.0,0.0,0.0,0.0,0.0,0.0,0.0,0.0,0.0,0.0,0.0099,0.0399,0.1004,0.0,0.0,0.0,0.948,1.0822,1.2112,1.3407,1.4413,1.5202,1.5578,0.0,1.5764,1.5628,1.5486,1.5337,1.5153,0.0,0.0,0.0,0.0,0.0,0.0,0.0,0.0,0.0,0.0,0.0,1.3905,1.3939,1.3919,1.4455,1.4835,1.4923,1.514,1.5282,1.5289,1.5398,1.5479,1.5513,1.5615,1.5696,1.573,1.5832,1.5974,1.6123,1.6164,1.6246,1.6408,1.6469,1.6592,1.6849,1.6897,1.6992,1.7202,1.6931,1.6809,1.7012,1.7127,1.7229,1.7249,1.7222,1.7195,1.7249,1.7249,1.7236,1.7216,1.7222,1.7236,1.7222,1.7277,1.7283,1.7283,1.7317,1.7317,1.7338,1.7358,1.7317,1.7114,1.7161,1.7249,0.0,0.0,0.0,0.0,0.0,0.0,0.0,0.0,0.0,0.0,0.0,0.0,0.0,0.0,0.0,0.0,0.0,0.0,0.0,0.0,0.0,0.0,0.0,0.0,0.0,0.0,0.0,0.0,0.0,0.0,0.0,0.0,0.0,0.0306,0.0819,0.216,0.4306,0.7208,0.8361,0.96,1.1024,1.2298,1.3627,1.4583,1.5422,0.0,0.0,0.0,0.0,0.0,0.0,0.0,0.0,1.5038,0.0,1.4645,1.4557,1.4448,1.4217,1.4353,1.4434,1.4516,1.4719,1.4787,1.4631,1.497,1.5221,1.5296,1.5499,1.5628,1.5635,1.5764,1.5886,1.5961,1.6035,1.6103,1.6178,1.6252,1.6327,1.6402,1.6483,1.6585,1.6727,1.6815,1.6944,1.7154,1.7202,1.7249,1.7372,1.7236,1.7148,1.7283,1.7365,1.7412,1.7419,1.7419,1.7419,1.7419,1.7419,1.7419,1.7419,1.7419,1.7419,1.7419,1.7419,1.7419,1.7419,1.7419,1.7419,1.7426,1.748,1.7507,1.7426,1.7419,1.7419,0.0,0.0,0.0,0.0,0.0,0.0,0.0,0.0,0.0,0.0,0.0,0.0,0.0,0.0,0.0,0.0,0.0,0.0,0.0,0.0,0.0,0.0,0.0,0.0,0.0,0.0,0.0,0.0,0.0,0.0,0.0,0.0,0.0,0.0313,0.0834,0.219,0.3961,0.5939,0.7277,0.8507,0.9633,1.1194,1.2642,1.386,1.4988,1.5762,1.6152,1.6125,1.6103,1.5974,1.5839,1.5696,1.5574,1.5547,1.5411,1.5153,1.5126,1.5072,1.495,1.5052,1.514,1.5167,1.5418,1.5493,1.5316,1.5445,1.5594,1.5744,1.5886,1.5974,1.5974,1.6083,1.6212,1.6334,1.6368,1.6442,1.6578,1.6625,1.6659,1.6686,1.6802,1.6917,1.7039,1.7154,1.729,1.7419,1.7446,1.748,1.7487,1.7473,1.7439,1.746,1.75,1.7514,1.75,1.7514,1.75,1.7521,1.7514,1.75,1.75,1.75,1.75,1.7521,1.75,1.7507,1.75,1.7521,1.75,1.75,1.7595,1.7684,1.7677,1.7589,1.7514,0.0,0.0,0.0,0.0,0.0,0.0,0.0,0.0,0.0,0.0,0.0,0.0,0.0,0.0,0.0,0.0,0.0,0.0,0.0,0.0,0.0,0.0,0.0,0.0,0.0,0.0,0.0,0.0,0.0,0.0,0.0,0.0,0.0,0.0316,0.0849,0.1168,0.2124,0.3823,0.59,0.7417,0.839,1.012,1.1786,1.3243,1.4373,1.5187,1.5782,1.617,1.6449,1.6422,1.6293,1.6205,1.6178,1.6056,1.5913,1.5744,1.573,1.5716,1.5696,1.5716,1.5784,1.592,1.6083,1.6069,1.5791,1.59,1.6049,1.6205,1.6327,1.6429,1.6429,1.6449,1.6483,1.651,1.6612,1.6748,1.6904,1.7012,1.7121,1.7236,1.7311,1.7311,1.7338,1.7372,1.7446,1.7575,1.7616,1.7656,1.7731,1.7697,1.7623,1.7636,1.7724,1.7785,1.7765,1.7792,1.7772,1.7799,1.7779,1.7765,1.7765,1.7765,1.7765,1.7792,1.7772,1.7779,1.7779,1.7799,1.7772,1.7765,1.7799,1.7819,1.7819,1.7792,1.7779,0.0,0.0,0.0,0.0,0.0,0.0,0.0,0.0,0.0,0.0,0.0,0.0,0.0,0.0,0.0,0.0,0.0,0.0,0.0,0.0,0.0,0.0,0.0,0.0,0.0,0.0,0.0,0.0,0.0,0.0,0.0,0.0,0.0,0.0107,0.0432,0.0757,0.1297,0.2054,0.3947,0.5705,0.7363,0.8864,1.0546,1.2489,1.3538,1.4689,1.5833,1.6067,1.633,1.6646,1.6503,1.6422,1.6422,1.6361,1.6293,1.6218,1.6212,1.6218,1.6218,1.6218,1.6246,1.6313,1.6381,1.6442,1.6469,1.6374,1.6347,1.6422,1.6558,1.668,1.6761,1.6842,1.6917,1.6998,1.7073,1.7141,1.7209,1.727,1.7344,1.7405,1.7419,1.7453,1.7534,1.7548,1.7602,1.7731,1.7765,1.7792,1.7853,1.7812,1.7765,1.7772,1.7826,1.7853,1.786,1.786,1.786,1.786,1.786,1.786,1.786,1.786,1.786,1.786,1.786,1.786,1.786,1.786,1.786,1.786,1.786,1.786,1.786,1.786,1.786,0.0,0.0,0.0,0.0,0.0,0.0,0.0,0.0,0.0,0.0,0.0,0.0,0.0,0.0,0.0,0.0,0.0,0.0,0.0,0.0,0.0,0.0,0.0,0.0,0.0,0.0,0.0,0.0,0.0,0.0,0.0,0.0,0.0,0.0,0.0,0.0438,0.0766,0.0984,0.2267,0.4074,0.6321,0.7601,0.9203,1.1441,1.2722,1.4103,1.5692,1.5908,1.6269,1.6792,1.6788,1.672,1.6727,1.6727,1.6693,1.6639,1.6659,1.6673,1.6673,1.6707,1.6727,1.6727,1.672,1.6829,1.7026,1.6863,1.6727,1.6734,1.6849,1.6958,1.7066,1.7168,1.729,1.7405,1.7419,1.7419,1.746,1.7473,1.7487,1.7507,1.7521,1.7575,1.7663,1.7697,1.7738,1.7826,1.786,1.786,1.786,1.786,1.786,1.786,1.786,1.786,1.786,1.786,1.786,1.786,1.786,1.786,1.786,1.786,1.786,1.786,1.786,1.786,1.786,1.786,1.786,1.786,1.786,1.786,1.786,1.786,1.786,0.0,0.0,0.0,0.0,0.0,0.0,0.0,0.0,0.0,0.0,0.0,0.0,0.0,0.0,0.0,0.0,0.0,0.0,0.0,0.0,0.0,0.0,0.0,0.0,0.0,0.0,0.0,0.0,0.0,0.0,0.0,0.0,0.0,0.0,0.0,0.0,0.0328,0.0875,0.1529,0.2946,0.5234,0.654,0.8169,1.0453,1.1754,1.3166,1.4883,1.596,1.67,1.7251,1.7331,1.7324,1.7324,1.7331,1.7216,1.6965,1.7053,1.7127,1.7134,1.7256,1.7311,1.7338,1.7304,1.7324,1.7372,1.7344,1.7331,1.7324,1.7338,1.7338,1.7378,1.7392,1.7412,1.7453,1.7453,1.7473,1.7602,1.7629,1.7677,1.7812,1.7792,1.7826,1.7819,1.7826,1.784,1.7853,1.786,1.786,1.786,1.786,1.786,1.786,1.786,1.786,1.786,1.786,1.786,1.786,1.786,1.786,1.786,1.786,1.786,1.786,1.786,1.786,1.786,1.786,1.786,1.786,1.786,1.786,1.786,1.786,1.786,0.0,0.0,0.0,0.0,0.0,0.0,0.0,0.0,0.0,0.0,0.0,0.0,0.0,0.0,0.0,0.0,0.0,0.0,0.0,0.0,0.0,0.0,0.0,0.0,0.0,0.0,0.0,0.0,0.0,0.0,0.0,0.0,0.0,0.0,0.0,0.0,0.0111,0.0333,0.0889,0.1999,0.3658,0.5492,0.7431,0.928,1.0912,1.2541,1.4172,1.5362,1.6232,1.688,1.7203,1.7419,1.7419,1.7419,1.7372,1.7256,1.7297,1.7324,1.7324,1.7385,1.7419,1.7419,1.7419,1.7453,1.7548,1.7555,1.7589,1.765,1.7528,1.7453,1.7541,1.7555,1.7589,1.7663,1.7684,1.7704,1.7765,1.7779,1.7806,1.7853,1.786,1.786,1.786,1.786,1.786,1.786,1.786,1.786,1.786,1.786,1.786,1.786,1.786,1.786,1.786,1.786,1.786,1.786,1.786,1.786,1.786,1.786,1.786,1.786,1.786,1.786,1.786,1.786,1.786,1.786,1.786,1.786,1.786,1.786,1.786,0.0,0.0,0.0,0.0,0.0,0.0,0.0,0.0,0.0,0.0,0.0,0.0,0.0,0.0,0.0,0.0,0.0,0.0,0.0,0.0,0.0,0.0,0.0,0.0,0.0,0.0,0.0,0.0,0.0,0.0,0.0,0.0,0.0,0.0,0.0,0.0,0.0,0.0,0.0561,0.1347,0.2351,0.4323,0.6274,0.8252,0.9784,1.1536,1.3508,1.4713,1.5693,1.6564,1.7107,1.7324,1.7541,1.7541,1.7541,1.7534,1.75,1.75,1.7534,1.7541,1.7541,1.7541,1.7541,1.7589,1.7677,1.7704,1.7751,1.7819,1.7663,1.7602,1.7684,1.7711,1.7758,1.7846,1.786,1.786,1.786,1.786,1.786,1.786,1.786,1.786,1.786,1.786,1.786,1.786,1.786,1.786,1.786,1.786,1.786,1.786,1.786,1.786,1.786,1.786,1.786,1.786,1.786,1.786,1.786,1.786,1.786,1.786,1.786,1.786,1.786,1.786,1.786,1.786,1.786,1.786,1.786,1.786,1.786,0.0,0.0,0.0,0.0,0.0,0.0,0.0,0.0,0.0,0.0,0.0,0.0,0.0,0.0,0.0,0.0,0.0,0.0,0.0,0.0,0.0,0.0,0.0,0.0,0.0,0.0,0.0,0.0,0.0,0.0,0.0,0.0,0.0,0.0,0.0,0.0,0.0,0.0,0.0561,0.0898,0.1235,0.2802,0.4812,0.7044,0.8501,1.0273,1.239,1.3738,1.5185,1.6852,1.6943,1.7281,1.7833,1.7833,1.7819,1.7812,1.7711,1.7697,1.7806,1.7819,1.7819,1.7826,1.7806,1.7833,1.7826,1.7833,1.784,1.786,1.7833,1.7819,1.7833,1.7826,1.784,1.7853,1.786,1.786,1.786,1.786,1.786,1.786,1.786,1.786,1.786,1.786,1.786,1.786,1.786,1.786,1.786,1.786,1.786,1.786,1.786,1.786,1.786,1.786,1.786,1.786,1.786,1.786,1.786,1.786,1.786,1.786,1.786,1.786,1.786,1.786,1.786,1.786,1.786,1.786,1.786,1.786,1.786,0.0,0.0,0.0,0.0,0.0,0.0,0.0,0.0,0.0,0.0,0.0,0.0,0.0,0.0,0.0,0.0,0.0,0.0,0.0,0.0,0.0,0.0,0.0,0.0,0.0,0.0,0.0,0.0,0.0,0.0,0.0,0.0,0.0,0.0,0.0,0.0,0.0,0.0,0.0225,0.0449,0.0898,0.1908,0.3254,0.4935,0.7619,0.9742,1.1304,1.3314,1.4764,1.5763,1.6539,1.7314,1.786,1.786,1.786,1.786,1.7812,1.7812,1.7853,1.786,1.786,1.786,1.786,1.786,1.786,1.786,1.786,1.786,1.786,1.786,1.786,1.786,1.786,1.786,1.786,1.786,1.786,1.786,1.786,1.786,1.786,1.786,1.786,1.786,1.786,1.786,1.786,1.786,1.786,1.786,1.786,1.786,1.786,1.786,1.786,1.786,1.786,1.786,1.786,1.786,1.786,1.786,1.786,1.786,1.786,1.786,1.786,1.786,1.786,1.786,1.786,1.786,1.786,1.786,1.786,0.0,0.0,0.0,0.0,0.0,0.0,0.0,0.0,0.0,0.0,0.0,0.0,0.0,0.0,0.0,0.0,0.0,0.0,0.0,0.0,0.0,0.0,0.0,0.0,0.0,0.0,0.0,0.0,0.0,0.0,0.0,0.0,0.0,0.0,0.0,0.0,0.0,0.0,0.0,0.0225,0.0674,0.1235,0.2132,0.3589,0.6274,0.8625,1.0193,1.2312,1.3981,1.5091,1.62,1.7092,1.7749,1.786,1.786,1.786,1.786,1.786,1.786,1.786,1.786,1.786,1.786,1.786,1.786,1.786,1.786,1.786,1.786,1.786,1.786,1.786,1.786,1.786,1.786,1.786,1.786,1.786,1.786,1.786,1.786,1.786,1.786,1.786,1.786,1.786,1.786,1.786,1.786,1.786,1.786,1.786,1.786,1.786,1.786,1.786,1.786,1.786,1.786,1.786,1.786,1.786,1.786,1.786,1.786,1.786,1.786,1.786,1.786,1.786,1.786,1.786,1.786,1.786,1.786,0.0,0.0,0.0,0.0,0.0,0.0,0.0,0.0,0.0,0.0,0.0,0.0,0.0,0.0,0.0,0.0,0.0,0.0,0.0,0.0,0.0,0.0,0.0,0.0,0.0,0.0,0.0,0.0,0.0,0.0,0.0,0.0,0.0,0.0,0.0,0.0,0.0,0.0,0.0,0.0,0.0,0.0674,0.1571,0.2692,0.4597,0.6612,0.8849,1.0747,1.2868,1.4869,1.5757,1.6643,1.7749,1.786,1.786,1.786,1.786,1.786,1.786,1.786,1.786,1.786,1.786,1.786,1.786,1.786,1.786,1.786,1.786,1.786,1.786,1.786,1.786,1.786,1.786,1.786,1.786,1.786,1.786,1.786,1.786,1.786,1.786,1.786,1.786,1.786,1.786,1.786,1.786,1.786,1.786,1.786,1.786,1.786,1.786,1.786,1.786,1.786,1.786,1.786,1.786,1.786,1.786,1.786,1.786,1.786,1.786,1.786,1.786,1.786,1.786,1.786,1.786,1.786,1.786,0.0,0.0,0.0,0.0,0.0,0.0,0.0,0.0,0.0,0.0,0.0,0.0,0.0,0.0,0.0,0.0,0.0,0.0,0.0,0.0,0.0,0.0,0.0,0.0,0.0,0.0,0.0,0.0,0.0,0.0,0.0,0.0,0.0,0.0,0.0,0.0,0.0,0.0,0.0,0.0,0.0,0.0561,0.1235,0.2132,0.3477,0.5159,0.7063,0.9966,1.2312,1.387,1.5313,1.6643,1.7639,1.786,1.786,1.786,1.786,1.786,1.786,1.786,1.786,1.786,1.786,1.786,1.786,1.786,1.786,1.786,1.786,1.786,1.786,1.786,1.786,1.786,1.786,1.786,1.786,1.786,1.786,1.786,1.786,1.786,1.786,1.786,1.786,1.786,1.786,1.786,1.786,1.786,1.786,1.786,1.786,1.786,1.786,1.786,1.786,1.786,1.786,1.786,1.786,1.786,1.786,1.786,1.786,1.786,1.786,1.786,1.786,1.786,1.786,1.786,1.786,1.786,1.786,0.0,0.0,0.0,0.0,0.0,0.0,0.0,0.0,0.0,0.0,0.0,0.0,0.0,0.0,0.0,0.0,0.0,0.0,0.0,0.0,0.0,0.0,0.0,0.0,0.0,0.0,0.0,0.0,0.0,0.0,0.0,0.0,0.0,0.0,0.0,0.0,0.0,0.0,0.0,0.0,0.0,0.0337,0.101,0.1796,0.2806,0.4262,0.6281,0.9184,1.1416,1.3086,1.5202,1.6865,1.7749,1.786,1.786,1.786,1.786,1.786,1.786,1.786,1.786,1.786,1.786,1.786,1.786,1.786,1.786,1.786,1.786,1.786,1.786,1.786,1.786,1.786,1.786,1.786,1.786,1.786,1.786,1.786,1.786,1.786,1.786,1.786,1.786,1.786,1.786,1.786,1.786,1.786,1.786,1.786,1.786,1.786,1.786,1.786,1.786,1.786,1.786,1.786,1.786,1.786,1.786,1.786,1.786,1.786,1.786,1.786,1.786,1.786,1.786,1.786,1.786,1.786,1.786,0.0,0.0,0.0,0.0,0.0,0.0,0.0,0.0,0.0,0.0,0.0,0.0,0.0,0.0,0.0,0.0,0.0,0.0,0.0,0.0,0.0,0.0,0.0,0.0,0.0,0.0,0.0,0.0,0.0,0.0,0.0,0.0,0.0,0.0,0.0,0.0,0.0,0.0,0.0,0.0,0.0,0.0,0.0561,0.1684,0.2357,0.3702,0.5943,0.829,1.052,1.2636,1.5424,1.7092,1.7749,1.786,1.786,1.786,1.786,1.786,1.786,1.786,1.786,1.786,1.786,1.786,1.786,1.786,1.786,1.786,1.786,1.786,1.786,1.786,1.786,1.786,1.786,1.786,1.786,1.786,1.786,1.786,1.786,1.786,1.786,1.786,1.786,1.786,1.786,1.786,1.786,1.786,1.786,1.786,1.786,1.786,1.786,1.786,1.786,1.786,1.786,1.786,1.786,1.786,1.786,1.786,1.786,1.786,1.786,1.786,1.786,1.786,1.786,1.786,1.786,1.786,1.786,0.0,0.0,0.0,0.0,0.0,0.0,0.0,0.0,0.0,0.0,0.0,0.0,0.0,0.0,0.0,0.0,0.0,0.0,0.0,0.0,0.0,0.0,0.0,0.0,0.0,0.0,0.0,0.0,0.0,0.0,0.0,0.0,0.0,0.0,0.0,0.0,0.0,0.0,0.0,0.0,0.0,0.0,0.0,0.1122,0.1683,0.3029,0.5157,0.8402,1.1639,1.4309,1.5535,1.6871,1.7749,1.786,1.786,1.786,1.786,1.786,1.786,1.786,1.786,1.786,1.786,1.786,1.786,1.786,1.786,1.786,1.786,1.786,1.786,1.786,1.786,1.786,1.786,1.786,1.786,1.786,1.786,1.786,1.786,1.786,1.786,1.786,1.786,1.786,1.786,1.786,1.786,1.786,1.786,1.786,1.786,1.786,1.786,1.786,1.786,1.786,1.786,1.786,1.786,1.786,1.786,1.786,1.786,1.786,1.786,1.786,1.786,1.786,1.786,1.786,1.786,1.786,1.786,0.0,0.0,0.0,0.0,0.0,0.0,0.0,0.0,0.0,0.0,0.0,0.0,0.0,0.0,0.0,0.0,0.0,0.0,0.0,0.0,0.0,0.0,0.0,0.0,0.0,0.0,0.0,0.0,0.0,0.0,0.0,0.0,0.0,0.0,0.0,0.0,0.0,0.0,0.0,0.0,0.0,0.0,0.0,0.0898,0.1572,0.2918,0.5605,0.8961,1.1866,1.4092,1.5424,1.6539,1.7424,1.7749,1.786,1.786,1.786,1.786,1.786,1.786,1.786,1.786,1.786,1.786,1.786,1.786,1.786,1.786,1.786,1.786,1.786,1.786,1.786,1.786,1.786,1.786,1.786,1.786,1.786,1.786,1.786,1.786,1.786,1.786,1.786,1.786,1.786,1.786,1.786,1.786,1.786,1.786,1.786,1.786,1.786,1.786,1.786,1.786,1.786,1.786,1.786,1.786,1.786,1.786,1.786,1.786,1.786,1.786,1.786,1.786,1.786,1.786,1.786,1.786,1.786,0.0,0.0,0.0,0.0,0.0,0.0,0.0,0.0,0.0,0.0,0.0,0.0,0.0,0.0,0.0,0.0,0.0,0.0,0.0,0.0,0.0,0.0,0.0,0.0,0.0,0.0,0.0,0.0,0.0,0.0,0.0,0.0,0.0,0.0,0.0,0.0,0.0,0.0,0.0,0.0,0.0,0.0,0.0,0.0674,0.1683,0.3591,0.6503,0.9188,1.1309,1.3091,1.498,1.6317,1.6982,1.7535,1.7867,1.786,1.786,1.786,1.786,1.786,1.786,1.786,1.786,1.786,1.786,1.786,1.786,1.786,1.786,1.7867,1.7749,1.7749,1.7528,1.7528,1.7639,1.7646,1.7749,1.786,1.786,1.786,1.786,1.786,1.786,1.786,1.786,1.786,1.786,1.786,1.786,1.786,1.786,1.786,1.786,1.786,1.786,1.786,1.786,1.786,1.786,1.786,1.786,1.786,1.786,1.786,1.786,1.786,1.786,1.786,1.786,1.786,1.786,1.786,1.786,1.786,1.786,0.0,0.0,0.0,0.0,0.0,0.0,0.0,0.0,0.0,0.0,0.0,0.0,0.0,0.0,0.0,0.0,0.0,0.0,0.0,0.0,0.0,0.0,0.0,0.0,0.0,0.0,0.0,0.0,0.0,0.0,0.0,0.0,0.0,0.0,0.0,0.0,0.0,0.0,0.0,0.0,0.0,0.0,0.0112,0.0449,0.1683,0.3814,0.6167,0.829,1.0189,1.2196,1.4425,1.6206,1.6871,1.7535,1.7867,1.786,1.786,1.786,1.786,1.786,1.786,1.786,1.786,1.786,1.786,1.786,1.786,1.786,1.786,1.7646,1.7203,1.676,1.6533,1.6533,1.6533,1.6533,1.6643,1.7307,1.7749,1.7867,1.786,1.786,1.786,1.786,1.786,1.786,1.786,1.786,1.786,1.786,1.786,1.786,1.786,1.786,1.786,1.786,1.786,1.786,1.786,1.786,1.786,1.786,1.786,1.786,1.786,1.786,1.786,1.786,1.786,1.786,1.786,1.786,1.786,1.786,1.786,0.0,0.0,0.0,0.0,0.0,0.0,0.0,0.0,0.0,0.0,0.0,0.0,0.0,0.0,0.0,0.0,0.0,0.0,0.0,0.0,0.0,0.0,0.0,0.0,0.0,0.0,0.0,0.0,0.0,0.0,0.0,0.0,0.0,0.0,0.0,0.0,0.0,0.0,0.0,0.0,0.0,0.0,0.0225,0.0561,0.1907,0.3702,0.5831,0.7955,0.9631,1.1416,1.3758,1.5652,1.6539,1.7092,1.7535,1.7867,1.786,1.786,1.786,1.786,1.7749,1.7535,1.7535,1.7314,1.7197,1.7086,1.7086,1.7086,1.6975,1.6871,1.6539,1.6089,1.5757,1.5646,1.5646,1.5646,1.5868,1.6754,1.7424,1.7535,1.7756,1.786,1.786,1.786,1.786,1.786,1.786,1.786,1.786,1.786,1.786,1.786,1.786,1.786,1.786,1.786,1.786,1.786,1.786,1.786,1.786,1.786,1.786,1.786,1.786,1.786,1.786,1.786,1.786,1.786,1.786,1.786,1.786,1.786,1.786,0.0,0.0,0.0,0.0,0.0,0.0,0.0,0.0,0.0,0.0,0.0,0.0,0.0,0.0,0.0,0.0,0.0,0.0,0.0,0.0,0.0,0.0,0.0,0.0,0.0,0.0,0.0,0.0,0.0,0.0,0.0,0.0,0.0,0.0,0.0,0.0,0.0,0.0,0.0,0.0,0.0,0.0,0.0,0.0898,0.1908,0.3253,0.5159,0.706,0.9072,1.0416,1.2534,1.4203,1.5424,1.6539,1.7092,1.7528,1.7528,1.7418,1.7418,1.7418,1.7314,1.6871,1.6871,1.6539,1.62,1.5979,1.5979,1.5757,1.5757,1.5535,1.5646,1.498,1.4758,1.4753,1.4758,1.4864,1.5091,1.5985,1.6428,1.7092,1.7424,1.7646,1.786,1.786,1.786,1.786,1.786,1.786,1.786,1.786,1.786,1.786,1.786,1.786,1.786,1.786,1.786,1.786,1.786,1.786,1.786,1.786,1.786,1.786,1.786,1.786,1.786,1.786,1.786,1.786,1.786,1.786,1.786,1.786,1.7846,0.0,0.0,0.0,0.0,0.0,0.0,0.0,0.0,0.0,0.0,0.0,0.0,0.0,0.0,0.0,0.0,0.0,0.0,0.0,0.0,0.0,0.0,0.0,0.0,0.0,0.0,0.0,0.0,0.0,0.0,0.0,0.0,0.0,0.0,0.0,0.0,0.0,0.0,0.0,0.0,0.0,0.0,0.0,0.0786,0.1571,0.258,0.3926,0.5719,0.7286,0.8514,1.0416,1.1862,1.3197,1.4975,1.5979,1.6311,1.6422,1.6422,1.6422,1.6422,1.6317,1.6206,1.6096,1.5874,1.543,1.5214,1.4786,1.4453,1.4119,1.3885,1.387,1.3329,1.298,1.298,1.298,1.3202,1.3647,1.4431,1.543,1.6428,1.6871,1.7424,1.7749,1.786,1.786,1.786,1.786,1.786,1.786,1.786,1.786,1.786,1.786,1.786,1.786,1.786,1.786,1.786,1.786,1.786,1.786,1.786,1.786,1.786,1.786,1.786,1.786,1.786,1.784,1.7826,1.784,1.7853,1.7792,1.7745,1.7785,0.0,0.0,0.0,0.0,0.0,0.0,0.0,0.0,0.0,0.0,0.0,0.0,0.0,0.0,0.0,0.0,0.0,0.0,0.0,0.0,0.0,0.0,0.0,0.0,0.0,0.0,0.0,0.0,0.0,0.0,0.0,0.0,0.0,0.0,0.0,0.0,0.0,0.0,0.0,0.0,0.0,0.0,0.0,0.0,0.101,0.1908,0.3141,0.4485,0.6053,0.7619,0.9072,1.0189,1.1309,1.2428,1.387,1.4764,1.5091,1.5197,1.5202,1.5202,1.498,1.4758,1.4653,1.4241,1.3715,1.3293,1.3078,1.2672,1.2349,1.2105,1.2059,1.1494,1.1244,1.1094,1.1201,1.1424,1.2089,1.2868,1.4203,1.5541,1.6428,1.7092,1.7749,1.786,1.786,1.786,1.786,1.786,1.786,1.786,1.786,1.786,1.786,1.786,1.786,1.786,1.786,1.786,1.786,1.786,1.786,1.786,1.786,1.786,1.786,1.786,1.786,1.786,1.7819,1.7779,1.7758,1.7731,1.7656,1.7629,1.767,0.0,0.0,0.0,0.0,0.0,0.0,0.0,0.0,0.0,0.0,0.0,0.0,0.0,0.0,0.0,0.0,0.0,0.0,0.0,0.0,0.0,0.0,0.0,0.0,0.0,0.0,0.0,0.0,0.0,0.0,0.0,0.0,0.0,0.0,0.0,0.0,0.0,0.0,0.0,0.0,0.0,0.0,0.0,0.0,0.0564,0.1354,0.2259,0.3615,0.4856,0.6319,0.7556,0.8675,0.9124,0.9682,1.0912,1.2582,1.3222,1.3531,1.3753,1.3567,1.3359,1.3141,1.2927,1.2311,1.145,1.0914,1.0594,1.0311,1.009,1.0064,1.0008,0.9664,0.9402,0.9352,0.9552,0.9877,1.0755,1.1755,1.298,1.432,1.5763,1.676,1.7314,1.786,1.786,1.786,1.786,1.786,1.786,1.786,1.786,1.786,1.786,1.786,1.786,1.786,1.786,1.786,1.786,1.786,1.786,1.786,1.786,1.786,1.786,1.786,1.786,1.7846,1.7806,1.7751,1.7684,1.7616,1.7555,1.7514,1.7521,0.0,0.0,0.0,0.0,0.0,0.0,0.0,0.0,0.0,0.0,0.0,0.0,0.0,0.0,0.0,0.0,0.0,0.0,0.0,0.0,0.0,0.0,0.0,0.0,0.0,0.0,0.0,0.0,0.0,0.0,0.0,0.0,0.0,0.0,0.0,0.0,0.0,0.0,0.0,0.0,0.0,0.0,0.0,0.0,0.0573,0.103,0.1486,0.2742,0.3773,0.4234,0.5838,0.6641,0.6872,0.733,0.767,0.8662,0.9839,1.1309,1.167,1.1503,1.1425,1.1446,1.1376,1.052,0.9629,0.8495,0.7928,0.7802,0.7699,0.7699,0.7687,0.757,0.7536,0.7729,0.7807,0.8678,0.9656,1.0412,1.1755,1.343,1.4875,1.5985,1.6871,1.7418,1.786,1.786,1.786,1.786,1.786,1.786,1.786,1.786,1.786,1.786,1.786,1.786,1.786,1.786,1.786,1.786,1.786,1.786,1.786,1.786,1.786,1.786,1.786,1.7833,1.7785,1.769,1.7575,1.7507,1.746,1.7419,1.7358,0.0,0.0,0.0,0.0,0.0,0.0,0.0,0.0,0.0,0.0,0.0,0.0,0.0,0.0,0.0,0.0,0.0,0.0,0.0,0.0,0.0,0.0,0.0,0.0,0.0,0.0,0.0,0.0,0.0,0.0,0.0,0.0,0.0,0.0,0.0,0.0,0.0,0.0,0.0,0.0,0.0,0.0,0.0,0.0,0.0,0.0575,0.1036,0.1495,0.2415,0.299,0.4023,0.4482,0.4825,0.5399,0.5743,0.5854,0.6966,0.8303,0.9437,0.9348,0.9586,0.9483,0.9172,0.8507,0.7626,0.6617,0.582,0.5826,0.5475,0.5347,0.5325,0.5206,0.5411,0.5614,0.6042,0.7146,0.8234,0.9313,1.0524,1.2196,1.3981,1.5091,1.6311,1.7203,1.7756,1.786,1.786,1.786,1.786,1.786,1.786,1.786,1.786,1.786,1.786,1.786,1.786,1.786,1.786,1.786,1.786,1.786,1.786,1.786,1.786,1.786,1.786,1.7792,1.7717,1.7589,1.7453,1.7372,1.729,1.7188,1.7141,0.0,0.0,0.0,0.0,0.0,0.0,0.0,0.0,0.0,0.0,0.0,0.0,0.0,0.0,0.0,0.0,0.0,0.0,0.0,0.0,0.0,0.0,0.0,0.0,0.0,0.0,0.0,0.0,0.0,0.0,0.0,0.0,0.0,0.0,0.0,0.0,0.0,0.0,0.0,0.0,0.0,0.0,0.0,0.0,0.0,0.0,0.0578,0.0926,0.1506,0.1969,0.255,0.3014,0.3361,0.3594,0.3825,0.4057,0.4743,0.5435,0.6583,0.7044,0.7494,0.7494,0.6818,0.6153,0.5479,0.458,0.4003,0.3996,0.3761,0.3399,0.3273,0.3267,0.3485,0.3927,0.4248,0.5367,0.6473,0.7903,0.9429,1.1304,1.298,1.442,1.5646,1.6871,1.7535,1.786,1.786,1.786,1.786,1.786,1.786,1.786,1.786,1.786,1.786,1.786,1.786,1.786,1.786,1.786,1.786,1.786,1.786,1.786,1.786,1.786,1.786,1.7758,1.765,1.7528,1.7399,1.7222,1.7107,1.7012,1.6985,0.0,0.0,0.0,0.0,0.0,0.0,0.0,0.0,0.0,0.0,0.0,0.0,0.0,0.0,0.0,0.0,0.0,0.0,0.0,0.0,0.0,0.0,0.0,0.0,0.0,0.0,0.0,0.0,0.0,0.0,0.0,0.0,0.0,0.0,0.0,0.0,0.0,0.0,0.0,0.0,0.0,0.0,0.0,0.0,0.0,0.0,0.0,0.0587,0.0821,0.1172,0.1523,0.1758,0.199,0.2225,0.2343,0.246,0.2928,0.3513,0.4096,0.513,0.5932,0.594,0.5258,0.3985,0.3641,0.2706,0.2238,0.2238,0.2121,0.2002,0.2,0.1999,0.2106,0.2446,0.3123,0.4138,0.5369,0.6698,0.8353,1.0436,1.2084,1.3531,1.498,1.6317,1.7424,1.7756,1.786,1.786,1.786,1.786,1.786,1.786,1.786,1.786,1.786,1.786,1.786,1.786,1.786,1.786,1.786,1.786,1.786,1.786,1.786,1.786,1.786,1.7799,1.7697,1.7514,1.7344,1.7195,1.7073,1.6998,1.6978,0.0,0.0,0.0,0.0,0.0,0.0,0.0,0.0,0.0,0.0,0.0,0.0,0.0,0.0,0.0,0.0,0.0,0.0,0.0,0.0,0.0,0.0,0.0,0.0,0.0,0.0,0.0,0.0,0.0,0.0,0.0,0.0,0.0,0.0,0.0,0.0,0.0,0.0,0.0,0.0,0.0,0.0,0.0,0.0,0.0,0.0,0.0,0.0,0.0353,0.0,0.0,0.0,0.0,0.1178,0.1296,0.1296,0.1885,0.2121,0.2356,0.3171,0.3753,0.3519,0.3057,0.2474,0.2121,0.1649,0.1296,0.1178,0.0,0.0,0.0,0.0,0.094,0.1289,0.2099,0.3125,0.4249,0.5589,0.724,0.9317,1.109,1.2757,1.4203,1.5652,1.676,1.7646,1.7867,1.786,1.786,1.786,1.786,1.786,1.786,1.786,1.786,1.786,1.786,1.786,1.786,1.786,1.786,1.786,1.786,1.786,1.786,1.786,1.786,1.786,1.7758,1.7589,1.7385,1.7182,1.708,1.6998,1.6985,0.0,0.0,0.0,0.0,0.0,0.0,0.0,0.0,0.0,0.0,0.0,0.0,0.0,0.0,0.0,0.0,0.0,0.0,0.0,0.0,0.0,0.0,0.0,0.0,0.0,0.0,0.0,0.0,0.0,0.0,0.0,0.0,0.0,0.0,0.0,0.0,0.0,0.0,0.0,0.0,0.0,0.0,0.0,0.0,0.0,0.0,0.0,0.0,0.0,0.0,0.0,0.0,0.0,0.0353,0.0,0.0,0.0,0.0,0.0,0.2004,0.2239,0.2001,0.1766,0.1532,0.0,0.0,0.0707,0.0589,0.0,0.0,0.0,0.0,0.0,0.0705,0.1173,0.2214,0.3344,0.4575,0.6343,0.8197,0.9865,1.1527,1.3647,1.5202,1.676,1.7646,1.786,1.786,1.786,1.786,1.786,1.786,1.786,1.786,1.786,1.786,1.786,1.786,1.786,1.786,1.786,1.786,1.786,1.786,1.786,1.786,1.786,1.786,1.7779,1.7663,1.7467,1.7263,1.7154,1.708,1.7026,0.0,0.0,0.0,0.0,0.0,0.0,0.0,0.0,0.0,0.0,0.0,0.0,0.0,0.0,0.0,0.0,0.0,0.0,0.0,0.0,0.0,0.0,0.0,0.0,0.0,0.0,0.0,0.0,0.0,0.0,0.0,0.0,0.0,0.0,0.0,0.0,0.0,0.0,0.0,0.0,0.0,0.0,0.0,0.0,0.0,0.0,0.0,0.0,0.0,0.0,0.0,0.0,0.0,0.0,0.0,0.0,0.0,0.0,0.0,0.0,0.1414,0.106,0.0943,0.0825,0.0,0.0,0.0,0.0,0.0,0.0,0.0,0.0,0.0,0.0236,0.0823,0.1286,0.2429,0.3674,0.5458,0.7087,0.8408,1.0074,1.2636,1.4864,1.6533,1.7535,1.786,1.786,1.786,1.786,1.786,1.786,1.786,1.786,1.786,1.786,1.786,1.786,1.786,1.786,1.786,1.786,1.786,1.786,1.786,1.786,1.786,1.786,1.7792,1.7717,1.7561,1.7392,1.727,1.7182,1.7148,0.0,0.0,0.0,0.0,0.0,0.0,0.0,0.0,0.0,0.0,0.0,0.0,0.0,0.0,0.0,0.0,0.0,0.0,0.0,0.0,0.0,0.0,0.0,0.0,0.0,0.0,0.0,0.0,0.0,0.0,0.0,0.0,0.0,0.0,0.0,0.0,0.0,0.0,0.0,0.0,0.0,0.0,0.0,0.0,0.0,0.0,0.0,0.0,0.0,0.0,0.0,0.0,0.0,0.0,0.0,0.0,0.0,0.0,0.0,0.0471,0.0471,0.0,0.0,0.0,0.0,0.0,0.0,0.0,0.0,0.0,0.0,0.0,0.0,0.0,0.0587,0.0933,0.1851,0.2994,0.4572,0.6094,0.7619,1.0301,1.2864,1.4309,1.5979,1.7203,1.7528,1.786,1.786,1.786,1.786,1.786,1.786,1.786,1.786,1.786,1.786,1.786,1.786,1.786,1.786,1.786,1.786,1.786,1.786,1.786,1.786,1.786,1.7846,1.7772,1.7643,1.7521,1.7399,1.7344,1.7331,0.0,0.0,0.0,0.0,0.0,0.0,0.0,0.0,0.0,0.0,0.0,0.0,0.0,0.0,0.0,0.0,0.0,0.0,0.0,0.0,0.0,0.0,0.0,0.0,0.0,0.0,0.0,0.0,0.0,0.0,0.0,0.0,0.0,0.0,0.0,0.0,0.0,0.0,0.0,0.0,0.0,0.0,0.0,0.0,0.0,0.0,0.0,0.0,0.0,0.0,0.0,0.0,0.0,0.0,0.0,0.0,0.0,0.0,0.0,0.0,0.0,0.0,0.0,0.0,0.0,0.0,0.0,0.0,0.0,0.0,0.0,0.0,0.0,0.0,0.0,0.0,0.1156,0.2416,0.3428,0.4965,0.6953,0.997,1.2767,1.4092,1.5313,1.6311,1.7203,1.7535,1.7867,1.786,1.786,1.786,1.786,1.786,1.786,1.786,1.786,1.786,1.786,1.786,1.786,1.786,1.786,1.786,1.786,1.786,1.786,1.786,1.7867,1.7846,1.7779,1.7656,1.7528,1.75,1.7494,0.0,0.0,0.0,0.0,0.0,0.0,0.0,0.0,0.0,0.0,0.0,0.0,0.0,0.0,0.0,0.0,0.0,0.0,0.0,0.0,0.0,0.0,0.0,0.0,0.0,0.0,0.0,0.0,0.0,0.0,0.0,0.0,0.0,0.0,0.0,0.0,0.0,0.0,0.0,0.0,0.0,0.0,0.0,0.0,0.0,0.0,0.0,0.0,0.0,0.0,0.0,0.0,0.0,0.0,0.0,0.0,0.0,0.0,0.0,0.0,0.0,0.0,0.0,0.0,0.0,0.0,0.0,0.0,0.0,0.0,0.0,0.0,0.0,0.0,0.0,0.0,0.0,0.1604,0.2504,0.3954,0.5851,0.8424,1.1347,1.3131,1.4731,1.5817,1.6818,1.7451,1.7776,1.786,1.786,1.786,1.786,1.786,1.786,1.786,1.786,1.786,1.786,1.786,1.786,1.786,1.786,1.786,1.786,1.786,1.786,1.788,1.7901,1.7887,1.7914,1.7819,1.7704,1.7663,1.7636,0.0,0.0,0.0,0.0,0.0,0.0,0.0,0.0,0.0,0.0,0.0,0.0,0.0,0.0,0.0,0.0,0.0,0.0,0.0,0.0,0.0,0.0,0.0,0.0,0.0,0.0,0.0,0.0,0.0,0.0,0.0,0.0,0.0,0.0,0.0,0.0,0.0,0.0,0.0,0.0,0.0,0.0,0.0,0.0,0.0,0.0,0.0,0.0,0.0,0.0,0.0,0.0,0.0,0.0,0.0,0.0,0.0,0.0,0.0,0.0,0.0,0.0,0.0,0.0,0.0,0.0,0.0,0.0,0.0,0.0,0.0,0.0,0.0,0.0,0.0,0.0,0.0,0.1029,0.193,0.3392,0.5293,0.7793,1.0616,1.2583,1.4075,1.5258,1.6323,1.7177,1.7686,1.7887,1.786,1.786,1.786,1.786,1.786,1.786,1.786,1.786,1.786,1.786,1.786,1.786,1.786,1.7887,1.7928,1.7907,1.786,1.7914,1.8023,1.8077,1.8091,1.7989,1.7901,1.7846,1.7806,0.0,0.0,0.0,0.0,0.0,0.0,0.0,0.0,0.0,0.0,0.0,0.0,0.0,0.0,0.0,0.0,0.0,0.0,0.0,0.0,0.0,0.0,0.0,0.0,0.0,0.0,0.0,0.0,0.0,0.0,0.0,0.0,0.0,0.0,0.0,0.0,0.0,0.0,0.0,0.0,0.0,0.0,0.0,0.0,0.0,0.0,0.0,0.0,0.0,0.0,0.0,0.0,0.0,0.0,0.0,0.0,0.0,0.0,0.0,0.0,0.0,0.0,0.0,0.0,0.0,0.0,0.0,0.0,0.0,0.0,0.0,0.0,0.0,0.0,0.0,0.0,0.0,0.0,0.1816,0.3278,0.5317,0.7721,0.9913,1.19,1.3627,1.5146,1.6197,1.7031,1.7524,1.7907,1.788,1.786,1.786,1.786,1.786,1.786,1.786,1.786,1.786,1.786,1.7867,1.7887,1.7907,1.7968,1.803,1.8023,1.803,1.8097,1.8192,1.8233,1.8253,1.8192,1.8097,1.8016,1.7975,0.0,0.0,0.0,0.0,0.0,0.0,0.0,0.0,0.0,0.0,0.0,0.0,0.0,0.0,0.0,0.0,0.0,0.0,0.0,0.0,0.0,0.0,0.0,0.0,0.0,0.0,0.0,0.0,0.0,0.0,0.0,0.0,0.0,0.0,0.0,0.0,0.0,0.0,0.0,0.0,0.0,0.0,0.0,0.0,0.0,0.0,0.0,0.0,0.0,0.0,0.0,0.0,0.0,0.0,0.0,0.0,0.0,0.0,0.0,0.0,0.0,0.0,0.0,0.0,0.0,0.0,0.0,0.0,0.0,0.0,0.0,0.0,0.0,0.0,0.0,0.0,0.0,0.0,0.1586,0.3167,0.4887,0.7303,0.9192,1.1078,1.3169,1.4809,1.6116,1.694,1.7531,1.7898,1.7935,1.7901,1.7874,1.7874,1.786,1.786,1.786,1.786,1.7887,1.7907,1.7948,1.7955,1.7968,1.8057,1.8158,1.8226,1.826,1.8301,1.8328,1.8355,1.8369,1.8369,1.8308,1.8226,1.8145,0.0,0.0,0.0,0.0,0.0,0.0,0.0,0.0,0.0,0.0,0.0,0.0,0.0,0.0,0.0,0.0,0.0,0.0,0.0,0.0,0.0,0.0,0.0,0.0,0.0,0.0,0.0,0.0,0.0,0.0,0.0,0.0,0.0,0.0,0.0,0.0,0.0,0.0,0.0,0.0,0.0,0.0,0.0,0.0,0.0,0.0,0.0,0.0,0.0,0.0,0.0,0.0,0.0,0.0,0.0,0.0,0.0,0.0,0.0,0.0,0.0,0.0,0.0,0.0,0.0,0.0,0.0,0.0,0.0,0.0,0.0,0.0,0.0,0.0,0.0,0.0,0.0,0.0,0.0,0.2952,0.468,0.6434,0.833,1.0333,1.2437,1.4276,1.5848,1.6927,1.7388,1.7861,1.805,1.7996,1.7901,1.788,1.788,1.7928,1.7962,1.7975,1.8002,1.8023,1.8036,1.8111,1.8186,1.8226,1.8294,1.8369,1.8423,1.8437,1.8464,1.8484,1.8525,1.8545,1.8545,1.8484,1.8382,0.0,0.0,0.0,0.0,0.0,0.0,0.0,0.0,0.0,0.0,0.0,0.0,0.0,0.0,0.0,0.0,0.0,0.0,0.0,0.0,0.0,0.0,0.0,0.0,0.0,0.0,0.0,0.0,0.0,0.0,0.0,0.0,0.0,0.0,0.0,0.0,0.0,0.0,0.0,0.0,0.0,0.0,0.0,0.0,0.0,0.0,0.0,0.0,0.0,0.0,0.0,0.0,0.0,0.0,0.0,0.0,0.0,0.0,0.0,0.0,0.0,0.0,0.0,0.0,0.0,0.0,0.0,0.0,0.0,0.0,0.0,0.0,0.0,0.0,0.0,0.0,0.0,0.0,0.1359,0.2285,0.3905,0.5312,0.7207,0.9119,1.1229,1.3542,1.5138,1.6701,1.7301,1.7927,1.8127,1.8138,1.8077,1.8002,1.7996,1.8057,1.8124,1.8124,1.8124,1.8172,1.8219,1.8328,1.8416,1.8423,1.8457,1.8538,1.8579,1.8579,1.8606,1.864,1.8687,1.8728,1.8721,1.8687,1.8593,0.0,0.0,0.0,0.0,0.0,0.0,0.0,0.0,0.0,0.0,0.0,0.0,0.0,0.0,0.0,0.0,0.0,0.0,0.0,0.0,0.0,0.0,0.0,0.0,0.0,0.0,0.0,0.0,0.0,0.0,0.0,0.0,0.0,0.0,0.0,0.0,0.0,0.0,0.0,0.0,0.0,0.0,0.0,0.0,0.0,0.0,0.0,0.0,0.0,0.0,0.0,0.0,0.0,0.0,0.0,0.0,0.0,0.0,0.0,0.0,0.0,0.0,0.0,0.0,0.0,0.0,0.0,0.0,0.0,0.0,0.0,0.0,0.0,0.0,0.0,0.0,0.0,0.0,0.1134,0.1719,0.3114,0.452,0.6422,0.8224,1.0333,1.2658,1.4496,1.5953,1.7173,1.7945,1.8316,1.8382,1.8355,1.8267,1.8158,1.8172,1.8253,1.826,1.8267,1.8328,1.8396,1.8504,1.8572,1.8579,1.8626,1.866,1.8694,1.8701,1.8735,1.8742,1.8749,1.8762,1.8755,1.8735,1.8742,0.0,0.0,0.0,0.0,0.0,0.0,0.0,0.0,0.0,0.0,0.0,0.0,0.0,0.0,0.0,0.0,0.0,0.0,0.0,0.0,0.0,0.0,0.0,0.0,0.0,0.0,0.0,0.0,0.0,0.0,0.0,0.0,0.0,0.0,0.0,0.0,0.0,0.0,0.0,0.0,0.0,0.0,0.0,0.0,0.0,0.0,0.0,0.0,0.0,0.0,0.0,0.0,0.0,0.0,0.0,0.0,0.0,0.0,0.0,0.0,0.0,0.0,0.0,0.0,0.0,0.0,0.0,0.0,0.0,0.0,0.0,0.0,0.0,0.0,0.0,0.0,0.0,0.0,0.0679,0.1484,0.2532,0.4295,0.6218,0.8119,0.9876,1.2209,1.4544,1.5895,1.7054,1.7832,1.8606,1.8593,1.8572,1.847,1.8335,1.8314,1.8362,1.8375,1.8416,1.8491,1.8572,1.8674,1.8721,1.8687,1.8694,1.8728,1.8755,1.8762,1.8762,1.8755,1.8755,1.8762,1.8762,1.8762,1.8762]}]]